Time,TemperatureF,DewpointF,PressureIn,WindDirection,WindDirectionDegrees,WindSpeedMPH,WindSpeedGustMPH,Humidity,HourlyPrecipIn,Conditions,Clouds,dailyrainin,SoftwareType,DateUTC
2013-10-19 00:00:00,53.1,0.0,29.87,SW,236,4.9,7.1,0,0.00,,---,0.00,VWS V14.00,2013-10-19 04:00:00,
2013-10-19 00:01:00,53.3,0.0,29.86,South,173,2.7,8.1,0,0.10,,---,0.10,VWS V14.00,2013-10-19 04:01:00,
2013-10-19 00:02:00,53.0,0.0,29.87,SW,229,4.5,7.1,0,0.00,,---,0.00,VWS V14.00,2013-10-19 04:02:00,
2013-10-19 00:03:00,53.1,0.0,29.87,SW,224,2.9,7.1,0,0.00,,---,0.00,VWS V14.00,2013-10-19 04:03:00,
2013-10-19 00:04:00,53.1,0.0,29.87,SW,235,0.0,7.1,0,0.00,,---,0.00,VWS V14.00,2013-10-19 04:04:00,
2013-10-19 00:05:00,53.1,0.0,29.87,West,271,5.7,9.3,0,0.00,,---,0.00,VWS V14.00,2013-10-19 04:05:00,
2013-10-19 00:06:00,53.4,0.0,29.86,WSW,245,2.8,6.4,0,0.10,,---,0.10,VWS V14.00,2013-10-19 04:06:00,
2013-10-19 00:07:00,53.1,0.0,29.87,West,273,3.4,9.3,0,0.00,,---,0.00,VWS V14.00,2013-10-19 04:07:00,
2013-10-19 00:08:00,53.1,0.0,29.87,West,280,4.8,9.3,0,0.00,,---,0.00,VWS V14.00,2013-10-19 04:08:00,
2013-10-19 00:09:00,53.0,0.0,29.87,WSW,250,2.2,9.3,0,0.00,,---,0.00,VWS V14.00,2013-10-19 04:09:00,
2013-10-19 00:10:00,52.9,0.0,29.87,WSW,242,4.9,9.3,0,0.00,,---,0.00,VWS V14.00,2013-10-19 04:10:00,
2013-10-19 00:11:00,53.4,0.0,29.86,SW,222,5.6,8.8,0,0.00,,---,0.10,VWS V14.00,2013-10-19 04:11:00,
2013-10-19 00:12:00,53.0,0.0,29.87,SW,229,0.0,8.5,0,0.00,,---,0.00,VWS V14.00,2013-10-19 04:12:00,
2013-10-19 00:13:00,52.9,0.0,29.87,SW,232,5.2,8.5,0,0.00,,---,0.00,VWS V14.00,2013-10-19 04:13:00,
2013-10-19 00:14:00,52.9,0.0,29.87,West,259,8.1,8.5,0,0.00,,---,0.00,VWS V14.00,2013-10-19 04:14:00,
2013-10-19 00:15:00,52.8,0.0,29.87,WSW,248,2.7,8.5,0,0.00,,---,0.00,VWS V14.00,2013-10-19 04:15:00,
2013-10-19 00:16:00,53.5,0.0,29.86,WSW,238,3.1,10.7,0,0.00,,---,0.10,VWS V14.00,2013-10-19 04:16:00,
2013-10-19 00:17:00,52.8,0.0,29.87,SSW,212,0.0,8.4,0,0.00,,---,0.00,VWS V14.00,2013-10-19 04:17:00,
2013-10-19 00:18:00,52.9,0.0,29.87,SSW,212,4.3,8.4,0,0.00,,---,0.00,VWS V14.00,2013-10-19 04:18:00,
2013-10-19 00:19:00,52.9,0.0,29.87,SW,235,6.9,8.4,0,0.00,,---,0.00,VWS V14.00,2013-10-19 04:19:00,
2013-10-19 00:20:00,52.8,0.0,29.87,WSW,243,5.0,9.8,0,0.00,,---,0.00,VWS V14.00,2013-10-19 04:20:00,
2013-10-19 00:21:00,53.4,0.0,29.86,SW,219,4.7,10.2,0,0.00,,---,0.10,VWS V14.00,2013-10-19 04:21:00,
2013-10-19 00:22:00,52.7,0.0,29.87,SW,228,5.0,9.8,0,0.00,,---,0.00,VWS V14.00,2013-10-19 04:22:00,
2013-10-19 00:23:00,52.6,0.0,29.87,SSW,212,4.2,9.8,0,0.00,,---,0.00,VWS V14.00,2013-10-19 04:23:00,
2013-10-19 00:24:00,52.5,0.0,29.87,SSW,201,3.4,9.8,0,0.00,,---,0.00,VWS V14.00,2013-10-19 04:24:00,
2013-10-19 00:25:00,52.4,0.0,29.87,SSW,205,3.2,9.5,0,0.00,,---,0.00,VWS V14.00,2013-10-19 04:25:00,
2013-10-19 00:26:00,53.3,0.0,29.86,SW,225,4.7,9.8,0,0.00,,---,0.10,VWS V14.00,2013-10-19 04:26:00,
2013-10-19 00:27:00,52.4,0.0,29.88,WNW,290,0.0,9.5,0,0.00,,---,0.00,VWS V14.00,2013-10-19 04:27:00,
2013-10-19 00:28:00,52.4,0.0,29.88,SSW,212,0.0,9.5,0,0.00,,---,0.00,VWS V14.00,2013-10-19 04:28:00,
2013-10-19 00:29:00,52.5,0.0,29.87,SW,235,6.4,9.5,0,0.00,,---,0.00,VWS V14.00,2013-10-19 04:29:00,
2013-10-19 00:30:00,52.4,0.0,29.87,SW,236,3.5,7.5,0,0.00,,---,0.00,VWS V14.00,2013-10-19 04:30:00,
2013-10-19 00:31:00,53.2,0.0,29.87,SW,226,5.7,9.4,0,0.00,,---,0.10,VWS V14.00,2013-10-19 04:31:00,
2013-10-19 00:32:00,52.4,0.0,29.87,West,274,0.0,7.5,0,0.00,,---,0.00,VWS V14.00,2013-10-19 04:32:00,
2013-10-19 00:33:00,52.4,0.0,29.88,WSW,248,5.6,7.5,0,0.00,,---,0.00,VWS V14.00,2013-10-19 04:33:00,
2013-10-19 00:34:00,52.4,0.0,29.88,SSW,198,3.2,7.5,0,0.00,,---,0.00,VWS V14.00,2013-10-19 04:34:00,
2013-10-19 00:35:00,52.4,0.0,29.88,West,260,3.4,10.0,0,0.00,,---,0.00,VWS V14.00,2013-10-19 04:35:00,
2013-10-19 00:36:00,53.2,0.0,29.86,WSW,253,3.1,8.4,0,0.00,,---,0.10,VWS V14.00,2013-10-19 04:36:00,
2013-10-19 00:37:00,52.4,0.0,29.88,SW,221,0.0,10.0,0,0.00,,---,0.00,VWS V14.00,2013-10-19 04:37:00,
2013-10-19 00:38:00,52.4,0.0,29.88,SW,233,3.2,10.0,0,0.00,,---,0.00,VWS V14.00,2013-10-19 04:38:00,
2013-10-19 00:39:00,52.4,0.0,29.88,SSW,208,0.0,10.0,0,0.00,,---,0.00,VWS V14.00,2013-10-19 04:39:00,
2013-10-19 00:40:00,52.3,0.0,29.88,West,269,3.1,7.5,0,0.00,,---,0.00,VWS V14.00,2013-10-19 04:40:00,
2013-10-19 00:41:00,53.1,0.0,29.87,SW,217,4.7,8.1,0,0.00,,---,0.10,VWS V14.00,2013-10-19 04:41:00,
2013-10-19 00:42:00,52.2,0.0,29.88,West,259,5.0,7.5,0,0.00,,---,0.00,VWS V14.00,2013-10-19 04:42:00,
2013-10-19 00:43:00,52.1,0.0,29.88,West,273,0.0,7.5,0,0.00,,---,0.00,VWS V14.00,2013-10-19 04:43:00,
2013-10-19 00:44:00,52.1,0.0,29.88,West,260,3.2,7.5,0,0.00,,---,0.00,VWS V14.00,2013-10-19 04:44:00,
2013-10-19 00:45:00,52.1,0.0,29.88,West,271,3.5,7.5,0,0.00,,---,0.00,VWS V14.00,2013-10-19 04:45:00,
2013-10-19 00:46:00,53.1,0.0,29.87,SSW,212,5.0,11.1,0,0.00,,---,0.10,VWS V14.00,2013-10-19 04:46:00,
2013-10-19 00:47:00,52.0,0.0,29.88,WSW,239,2.1,7.5,0,0.00,,---,0.00,VWS V14.00,2013-10-19 04:47:00,
2013-10-19 00:48:00,51.9,0.0,29.88,SW,217,0.0,7.5,0,0.00,,---,0.00,VWS V14.00,2013-10-19 04:48:00,
2013-10-19 00:49:00,52.0,0.0,29.88,SW,233,4.3,7.5,0,0.00,,---,0.00,VWS V14.00,2013-10-19 04:49:00,
2013-10-19 00:50:00,52.0,0.0,29.88,West,260,2.7,8.3,0,0.00,,---,0.00,VWS V14.00,2013-10-19 04:50:00,
2013-10-19 00:51:00,52.0,0.0,29.88,WSW,239,0.0,8.3,0,0.00,,---,0.00,VWS V14.00,2013-10-19 04:51:00,
2013-10-19 00:52:00,52.0,0.0,29.88,West,281,5.0,8.3,0,0.00,,---,0.00,VWS V14.00,2013-10-19 04:52:00,
2013-10-19 00:53:00,52.0,0.0,29.88,West,274,0.0,8.3,0,0.00,,---,0.00,VWS V14.00,2013-10-19 04:53:00,
2013-10-19 00:54:00,52.0,0.0,29.88,West,274,0.0,8.3,0,0.00,,---,0.00,VWS V14.00,2013-10-19 04:54:00,
2013-10-19 00:55:00,52.0,0.0,29.88,West,274,0.0,5.5,0,0.00,,---,0.00,VWS V14.00,2013-10-19 04:55:00,
2013-10-19 00:56:00,52.1,0.0,29.88,West,274,0.0,5.5,0,0.00,,---,0.00,VWS V14.00,2013-10-19 04:56:00,
2013-10-19 00:57:00,52.0,0.0,29.88,SW,219,0.0,5.5,0,0.00,,---,0.00,VWS V14.00,2013-10-19 04:57:00,
2013-10-19 00:58:00,52.0,0.0,29.88,SW,219,0.0,5.5,0,0.00,,---,0.00,VWS V14.00,2013-10-19 04:58:00,
2013-10-19 00:59:00,51.9,0.0,29.88,SW,219,0.0,5.5,0,0.00,,---,0.00,VWS V14.00,2013-10-19 04:59:00,
2013-10-19 01:00:00,51.8,0.0,29.88,WSW,252,4.3,5.2,0,0.00,,---,0.00,VWS V14.00,2013-10-19 05:00:00,
2013-10-19 01:01:00,51.8,0.0,29.88,SW,217,1.9,5.2,0,0.00,,---,0.00,VWS V14.00,2013-10-19 05:01:00,
2013-10-19 01:02:00,51.6,0.0,29.88,SW,228,2.5,5.2,0,0.00,,---,0.00,VWS V14.00,2013-10-19 05:02:00,
2013-10-19 01:03:00,51.6,0.0,29.88,SW,229,3.1,5.2,0,0.00,,---,0.00,VWS V14.00,2013-10-19 05:03:00,
2013-10-19 01:04:00,51.6,0.0,29.88,SW,217,4.7,5.2,0,0.00,,---,0.00,VWS V14.00,2013-10-19 05:04:00,
2013-10-19 01:05:00,51.5,0.0,29.88,SW,215,2.9,6.1,0,0.00,,---,0.00,VWS V14.00,2013-10-19 05:05:00,
2013-10-19 01:06:00,51.4,0.0,29.88,SW,225,5.0,6.1,0,0.00,,---,0.00,VWS V14.00,2013-10-19 05:06:00,
2013-10-19 01:07:00,51.4,0.0,29.88,SW,235,4.1,6.1,0,0.00,,---,0.00,VWS V14.00,2013-10-19 05:07:00,
2013-10-19 01:08:00,51.4,0.0,29.88,South,172,3.2,6.1,0,0.00,,---,0.00,VWS V14.00,2013-10-19 05:08:00,
2013-10-19 01:09:00,51.4,0.0,29.88,SW,236,6.0,6.1,0,0.00,,---,0.00,VWS V14.00,2013-10-19 05:09:00,
2013-10-19 01:10:00,51.3,0.0,29.89,SW,217,5.1,7.3,0,0.00,,---,0.00,VWS V14.00,2013-10-19 05:10:00,
2013-10-19 01:11:00,51.1,0.0,29.89,SW,229,3.4,7.3,0,0.00,,---,0.00,VWS V14.00,2013-10-19 05:11:00,
2013-10-19 01:12:00,51.2,0.0,29.89,SW,219,5.7,7.3,0,0.00,,---,0.00,VWS V14.00,2013-10-19 05:12:00,
2013-10-19 01:13:00,51.2,0.0,29.89,SW,221,4.5,7.3,0,0.00,,---,0.00,VWS V14.00,2013-10-19 05:13:00,
2013-10-19 01:14:00,51.2,0.0,29.89,WSW,239,5.4,7.3,0,0.00,,---,0.00,VWS V14.00,2013-10-19 05:14:00,
2013-10-19 01:15:00,51.2,0.0,29.89,WSW,246,5.8,7.3,0,0.00,,---,0.00,VWS V14.00,2013-10-19 05:15:00,
2013-10-19 01:16:00,51.1,0.0,29.89,SW,224,5.0,8.6,0,0.00,,---,0.00,VWS V14.00,2013-10-19 05:16:00,
2013-10-19 01:17:00,51.1,0.0,29.89,West,269,3.4,8.6,0,0.00,,---,0.00,VWS V14.00,2013-10-19 05:17:00,
2013-10-19 01:18:00,51.1,0.0,29.89,SSW,210,0.0,8.6,0,0.00,,---,0.00,VWS V14.00,2013-10-19 05:18:00,
2013-10-19 01:19:00,51.1,0.0,29.89,SW,231,5.5,8.6,0,0.00,,---,0.00,VWS V14.00,2013-10-19 05:19:00,
2013-10-19 01:20:00,51.1,0.0,29.89,SW,225,0.0,8.6,0,0.00,,---,0.00,VWS V14.00,2013-10-19 05:20:00,
2013-10-19 01:21:00,51.1,0.0,29.89,SW,218,4.9,7.8,0,0.00,,---,0.00,VWS V14.00,2013-10-19 05:21:00,
2013-10-19 01:22:00,51.0,0.0,29.89,WSW,239,3.5,7.8,0,0.00,,---,0.00,VWS V14.00,2013-10-19 05:22:00,
2013-10-19 01:23:00,50.9,0.0,29.89,SW,222,5.5,7.8,0,0.00,,---,0.00,VWS V14.00,2013-10-19 05:23:00,
2013-10-19 01:24:00,50.9,0.0,29.89,SW,214,0.0,7.8,0,0.00,,---,0.00,VWS V14.00,2013-10-19 05:24:00,
2013-10-19 01:25:00,50.8,0.0,29.89,SW,228,5.9,7.6,0,0.00,,---,0.00,VWS V14.00,2013-10-19 05:25:00,
2013-10-19 01:26:00,50.8,0.0,29.89,SW,219,3.2,7.6,0,0.00,,---,0.00,VWS V14.00,2013-10-19 05:26:00,
2013-10-19 01:27:00,50.7,0.0,29.89,SW,235,0.0,7.6,0,0.00,,---,0.00,VWS V14.00,2013-10-19 05:27:00,
2013-10-19 01:28:00,50.7,0.0,29.89,SW,215,3.0,7.6,0,0.00,,---,0.00,VWS V14.00,2013-10-19 05:28:00,
2013-10-19 01:29:00,50.8,0.0,29.89,SW,215,0.0,7.6,0,0.00,,---,0.00,VWS V14.00,2013-10-19 05:29:00,
2013-10-19 01:30:00,50.8,0.0,29.89,SW,228,4.5,6.4,0,0.00,,---,0.00,VWS V14.00,2013-10-19 05:30:00,
2013-10-19 01:31:00,50.8,0.0,29.89,WSW,242,0.0,6.4,0,0.00,,---,0.00,VWS V14.00,2013-10-19 05:31:00,
2013-10-19 01:32:00,50.7,0.0,29.89,WSW,242,2.8,6.4,0,0.00,,---,0.00,VWS V14.00,2013-10-19 05:32:00,
2013-10-19 01:33:00,50.7,0.0,29.89,SW,221,4.7,6.4,0,0.00,,---,0.00,VWS V14.00,2013-10-19 05:33:00,
2013-10-19 01:34:00,50.7,0.0,29.89,SSW,212,4.8,6.4,0,0.00,,---,0.00,VWS V14.00,2013-10-19 05:34:00,
2013-10-19 01:35:00,50.6,0.0,29.89,SW,228,4.5,6.2,0,0.00,,---,0.00,VWS V14.00,2013-10-19 05:35:00,
2013-10-19 01:36:00,50.7,0.0,29.89,WSW,240,5.3,6.2,0,0.00,,---,0.00,VWS V14.00,2013-10-19 05:36:00,
2013-10-19 01:37:00,50.7,0.0,29.89,SW,228,0.0,6.2,0,0.00,,---,0.00,VWS V14.00,2013-10-19 05:37:00,
2013-10-19 01:38:00,50.7,0.0,29.89,SW,222,3.2,6.2,0,0.00,,---,0.00,VWS V14.00,2013-10-19 05:38:00,
2013-10-19 01:39:00,50.6,0.0,29.89,SSW,201,4.2,6.2,0,0.00,,---,0.00,VWS V14.00,2013-10-19 05:39:00,
2013-10-19 01:40:00,50.6,0.0,29.89,SSW,205,0.0,6.5,0,0.00,,---,0.00,VWS V14.00,2013-10-19 05:40:00,
2013-10-19 01:41:00,50.6,0.0,29.89,WSW,242,3.0,6.5,0,0.00,,---,0.00,VWS V14.00,2013-10-19 05:41:00,
2013-10-19 01:42:00,50.5,0.0,29.89,SSW,207,4.2,6.5,0,0.00,,---,0.00,VWS V14.00,2013-10-19 05:42:00,
2013-10-19 01:43:00,50.4,0.0,29.89,WSW,239,4.7,6.5,0,0.00,,---,0.00,VWS V14.00,2013-10-19 05:43:00,
2013-10-19 01:44:00,50.4,0.0,29.89,WSW,242,5.4,6.5,0,0.00,,---,0.00,VWS V14.00,2013-10-19 05:44:00,
2013-10-19 01:45:00,50.3,0.0,29.89,SSW,207,4.9,6.1,0,0.00,,---,0.00,VWS V14.00,2013-10-19 05:45:00,
2013-10-19 01:46:00,50.2,0.0,29.89,SSW,202,3.3,6.1,0,0.00,,---,0.00,VWS V14.00,2013-10-19 05:46:00,
2013-10-19 01:47:00,50.3,0.0,29.89,SW,225,4.3,6.1,0,0.00,,---,0.00,VWS V14.00,2013-10-19 05:47:00,
2013-10-19 01:48:00,50.3,0.0,29.89,SW,215,0.0,6.1,0,0.00,,---,0.00,VWS V14.00,2013-10-19 05:48:00,
2013-10-19 01:49:00,50.3,0.0,29.89,SW,214,4.2,6.1,0,0.00,,---,0.00,VWS V14.00,2013-10-19 05:49:00,
2013-10-19 01:50:00,50.2,0.0,29.89,SW,214,0.0,5.9,0,0.00,,---,0.00,VWS V14.00,2013-10-19 05:50:00,
2013-10-19 01:51:00,50.2,0.0,29.89,SW,214,0.0,5.9,0,0.00,,---,0.00,VWS V14.00,2013-10-19 05:51:00,
2013-10-19 01:52:00,50.1,0.0,29.89,SW,214,0.0,5.9,0,0.00,,---,0.00,VWS V14.00,2013-10-19 05:52:00,
2013-10-19 01:53:00,50.1,0.0,29.89,SSW,211,2.8,5.9,0,0.00,,---,0.00,VWS V14.00,2013-10-19 05:53:00,
2013-10-19 01:54:00,50.1,0.0,29.89,SW,219,4.3,5.9,0,0.00,,---,0.00,VWS V14.00,2013-10-19 05:54:00,
2013-10-19 01:55:00,50.1,0.0,29.89,SSW,210,4.3,5.3,0,0.00,,---,0.00,VWS V14.00,2013-10-19 05:55:00,
2013-10-19 01:56:00,50.1,0.0,29.89,SSW,194,3.4,5.3,0,0.00,,---,0.00,VWS V14.00,2013-10-19 05:56:00,
2013-10-19 01:57:00,50.0,0.0,29.89,SSW,202,0.0,5.3,0,0.00,,---,0.00,VWS V14.00,2013-10-19 05:57:00,
2013-10-19 01:58:00,49.8,0.0,29.89,SSW,204,0.0,5.3,0,0.00,,---,0.00,VWS V14.00,2013-10-19 05:58:00,
2013-10-19 01:59:00,49.9,0.0,29.89,SSW,210,2.8,5.3,0,0.00,,---,0.00,VWS V14.00,2013-10-19 05:59:00,
2013-10-19 02:00:00,49.8,0.0,29.90,SSW,197,3.4,6.8,0,0.00,,---,0.00,VWS V14.00,2013-10-19 06:00:00,
2013-10-19 02:01:00,49.8,0.0,29.90,SSW,208,3.2,6.8,0,0.00,,---,0.00,VWS V14.00,2013-10-19 06:01:00,
2013-10-19 02:02:00,49.7,0.0,29.89,SSE,158,2.5,6.8,0,0.00,,---,0.00,VWS V14.00,2013-10-19 06:02:00,
2013-10-19 02:03:00,49.7,0.0,29.90,SSE,158,0.0,6.8,0,0.00,,---,0.00,VWS V14.00,2013-10-19 06:03:00,
2013-10-19 02:04:00,49.7,0.0,29.89,SSE,158,0.0,6.8,0,0.00,,---,0.00,VWS V14.00,2013-10-19 06:04:00,
2013-10-19 02:05:00,49.5,0.0,29.89,SSE,158,0.0,4.7,0,0.00,,---,0.00,VWS V14.00,2013-10-19 06:05:00,
2013-10-19 02:06:00,49.4,0.0,29.89,SSE,158,0.0,4.7,0,0.00,,---,0.00,VWS V14.00,2013-10-19 06:06:00,
2013-10-19 02:07:00,49.4,0.0,29.89,SSE,158,0.0,4.7,0,0.00,,---,0.00,VWS V14.00,2013-10-19 06:07:00,
2013-10-19 02:08:00,49.3,0.0,29.89,SSE,158,0.0,4.7,0,0.00,,---,0.00,VWS V14.00,2013-10-19 06:08:00,
2013-10-19 02:09:00,49.2,0.0,29.89,SSE,158,0.0,4.7,0,0.00,,---,0.00,VWS V14.00,2013-10-19 06:09:00,
2013-10-19 02:10:00,49.2,0.0,29.89,SSE,158,0.0,0.0,0,0.00,,---,0.00,VWS V14.00,2013-10-19 06:10:00,
2013-10-19 02:11:00,49.2,0.0,29.89,SSE,158,0.0,0.0,0,0.00,,---,0.00,VWS V14.00,2013-10-19 06:11:00,
2013-10-19 02:12:00,49.0,0.0,29.89,SSE,158,0.0,0.0,0,0.00,,---,0.00,VWS V14.00,2013-10-19 06:12:00,
2013-10-19 02:13:00,48.8,0.0,29.89,SSE,158,0.0,0.0,0,0.00,,---,0.00,VWS V14.00,2013-10-19 06:13:00,
2013-10-19 02:14:00,48.6,0.0,29.89,SSE,158,0.0,0.0,0,0.00,,---,0.00,VWS V14.00,2013-10-19 06:14:00,
2013-10-19 02:15:00,48.4,0.0,29.90,SSE,158,0.0,0.0,0,0.00,,---,0.00,VWS V14.00,2013-10-19 06:15:00,
2013-10-19 02:16:00,48.4,0.0,29.90,SSE,158,0.0,0.0,0,0.00,,---,0.00,VWS V14.00,2013-10-19 06:16:00,
2013-10-19 02:17:00,48.4,0.0,29.90,SSE,158,0.0,0.0,0,0.00,,---,0.00,VWS V14.00,2013-10-19 06:17:00,
2013-10-19 02:18:00,48.4,0.0,29.90,SSE,158,0.0,0.0,0,0.00,,---,0.00,VWS V14.00,2013-10-19 06:18:00,
2013-10-19 02:19:00,48.5,0.0,29.90,SSE,158,0.0,0.0,0,0.00,,---,0.00,VWS V14.00,2013-10-19 06:19:00,
2013-10-19 02:20:00,48.7,0.0,29.90,SSE,158,0.0,0.0,0,0.00,,---,0.00,VWS V14.00,2013-10-19 06:20:00,
2013-10-19 02:21:00,48.8,0.0,29.90,WSW,257,0.0,0.0,0,0.00,,---,0.00,VWS V14.00,2013-10-19 06:21:00,
2013-10-19 02:22:00,48.8,0.0,29.90,WSW,257,0.0,0.0,0,0.00,,---,0.00,VWS V14.00,2013-10-19 06:22:00,
2013-10-19 02:23:00,48.9,0.0,29.90,WSW,257,0.0,0.0,0,0.00,,---,0.00,VWS V14.00,2013-10-19 06:23:00,
2013-10-19 02:24:00,48.7,0.0,29.90,SSW,210,2.4,0.0,0,0.00,,---,0.00,VWS V14.00,2013-10-19 06:24:00,
2013-10-19 02:25:00,48.7,0.0,29.90,SSW,210,0.0,3.4,0,0.00,,---,0.00,VWS V14.00,2013-10-19 06:25:00,
2013-10-19 02:26:00,48.6,0.0,29.90,SSW,210,0.0,3.4,0,0.00,,---,0.00,VWS V14.00,2013-10-19 06:26:00,
2013-10-19 02:27:00,48.4,0.0,29.90,SSW,210,0.0,3.4,0,0.00,,---,0.00,VWS V14.00,2013-10-19 06:27:00,
2013-10-19 02:28:00,48.3,0.0,29.90,SSW,210,0.0,3.4,0,0.00,,---,0.00,VWS V14.00,2013-10-19 06:28:00,
2013-10-19 02:29:00,48.3,0.0,29.90,SSW,210,0.0,3.4,0,0.00,,---,0.00,VWS V14.00,2013-10-19 06:29:00,
2013-10-19 02:30:00,48.3,0.0,29.91,SSW,210,0.0,0.0,0,0.00,,---,0.00,VWS V14.00,2013-10-19 06:30:00,
2013-10-19 02:31:00,48.2,0.0,29.90,SSW,210,0.0,0.0,0,0.00,,---,0.00,VWS V14.00,2013-10-19 06:31:00,
2013-10-19 02:32:00,48.3,0.0,29.90,SSW,210,0.0,0.0,0,0.00,,---,0.00,VWS V14.00,2013-10-19 06:32:00,
2013-10-19 02:33:00,48.2,0.0,29.90,SSW,210,0.0,0.0,0,0.00,,---,0.00,VWS V14.00,2013-10-19 06:33:00,
2013-10-19 02:34:00,48.2,0.0,29.90,SSW,210,0.0,0.0,0,0.00,,---,0.00,VWS V14.00,2013-10-19 06:34:00,
2013-10-19 02:35:00,48.2,0.0,29.90,SSW,210,0.0,0.0,0,0.00,,---,0.00,VWS V14.00,2013-10-19 06:35:00,
2013-10-19 02:36:00,48.0,0.0,29.90,SSW,210,0.0,0.0,0,0.00,,---,0.00,VWS V14.00,2013-10-19 06:36:00,
2013-10-19 02:37:00,47.9,0.0,29.90,SSW,210,0.0,0.0,0,0.00,,---,0.00,VWS V14.00,2013-10-19 06:37:00,
2013-10-19 02:38:00,47.9,0.0,29.90,SSW,210,0.0,0.0,0,0.00,,---,0.00,VWS V14.00,2013-10-19 06:38:00,
2013-10-19 02:39:00,47.8,0.0,29.90,SSW,210,0.0,0.0,0,0.00,,---,0.00,VWS V14.00,2013-10-19 06:39:00,
2013-10-19 02:40:00,47.7,0.0,29.90,SSW,210,0.0,0.0,0,0.00,,---,0.00,VWS V14.00,2013-10-19 06:40:00,
2013-10-19 02:41:00,47.7,0.0,29.90,SSW,210,0.0,0.0,0,0.00,,---,0.00,VWS V14.00,2013-10-19 06:41:00,
2013-10-19 02:42:00,47.6,0.0,29.90,SSW,210,0.0,0.0,0,0.00,,---,0.00,VWS V14.00,2013-10-19 06:42:00,
2013-10-19 02:43:00,47.4,0.0,29.90,SSW,210,0.0,0.0,0,0.00,,---,0.00,VWS V14.00,2013-10-19 06:43:00,
2013-10-19 02:44:00,47.4,0.0,29.90,SSW,210,0.0,0.0,0,0.00,,---,0.00,VWS V14.00,2013-10-19 06:44:00,
2013-10-19 02:45:00,47.4,0.0,29.90,SSW,210,0.0,0.0,0,0.00,,---,0.00,VWS V14.00,2013-10-19 06:45:00,
2013-10-19 02:46:00,47.3,0.0,29.90,SSW,210,0.0,0.0,0,0.00,,---,0.00,VWS V14.00,2013-10-19 06:46:00,
2013-10-19 02:47:00,47.2,0.0,29.90,SSW,210,0.0,0.0,0,0.00,,---,0.00,VWS V14.00,2013-10-19 06:47:00,
2013-10-19 02:48:00,47.1,0.0,29.90,SSW,210,0.0,0.0,0,0.00,,---,0.00,VWS V14.00,2013-10-19 06:48:00,
2013-10-19 02:49:00,47.2,0.0,29.90,SSW,210,0.0,0.0,0,0.00,,---,0.00,VWS V14.00,2013-10-19 06:49:00,
2013-10-19 02:50:00,47.3,0.0,29.90,SSW,210,0.0,0.0,0,0.00,,---,0.00,VWS V14.00,2013-10-19 06:50:00,
2013-10-19 02:51:00,47.4,0.0,29.90,SSW,210,0.0,0.0,0,0.00,,---,0.00,VWS V14.00,2013-10-19 06:51:00,
2013-10-19 02:52:00,47.4,0.0,29.90,SSW,210,0.0,0.0,0,0.00,,---,0.00,VWS V14.00,2013-10-19 06:52:00,
2013-10-19 02:53:00,47.5,0.0,29.90,SSW,210,0.0,0.0,0,0.00,,---,0.00,VWS V14.00,2013-10-19 06:53:00,
2013-10-19 02:54:00,47.5,0.0,29.90,SW,222,0.0,0.0,0,0.00,,---,0.00,VWS V14.00,2013-10-19 06:54:00,
2013-10-19 02:55:00,47.5,0.0,29.90,SW,222,0.0,3.2,0,0.00,,---,0.00,VWS V14.00,2013-10-19 06:55:00,
2013-10-19 02:56:00,47.5,0.0,29.90,SSW,198,0.0,3.2,0,0.00,,---,0.00,VWS V14.00,2013-10-19 06:56:00,
2013-10-19 02:57:00,47.7,0.0,29.90,South,188,2.4,3.2,0,0.00,,---,0.00,VWS V14.00,2013-10-19 06:57:00,
2013-10-19 02:58:00,47.8,0.0,29.90,SSW,208,4.2,4.2,0,0.00,,---,0.00,VWS V14.00,2013-10-19 06:58:00,
2013-10-19 02:59:00,47.8,0.0,29.90,SW,222,6.9,6.9,0,0.00,,---,0.00,VWS V14.00,2013-10-19 06:59:00,
2013-10-19 03:00:00,47.9,0.0,29.90,SSW,204,4.2,6.9,0,0.00,,---,0.00,VWS V14.00,2013-10-19 07:00:00,
2013-10-19 03:01:00,48.0,0.0,29.90,SSW,194,5.2,6.9,0,0.00,,---,0.00,VWS V14.00,2013-10-19 07:01:00,
2013-10-19 03:02:00,48.0,0.0,29.90,SW,229,4.3,6.9,0,0.00,,---,0.00,VWS V14.00,2013-10-19 07:02:00,
2013-10-19 03:03:00,47.9,0.0,29.90,SSW,208,4.2,6.9,0,0.00,,---,0.00,VWS V14.00,2013-10-19 07:03:00,
2013-10-19 03:04:00,47.9,0.0,29.90,SSW,195,4.5,6.9,0,0.00,,---,0.00,VWS V14.00,2013-10-19 07:04:00,
2013-10-19 03:05:00,47.9,0.0,29.90,SW,226,4.3,6.5,0,0.00,,---,0.00,VWS V14.00,2013-10-19 07:05:00,
2013-10-19 03:06:00,48.0,0.0,29.90,SSW,204,3.0,6.5,0,0.00,,---,0.00,VWS V14.00,2013-10-19 07:06:00,
2013-10-19 03:07:00,48.0,0.0,29.90,SSW,198,3.0,6.5,0,0.00,,---,0.00,VWS V14.00,2013-10-19 07:07:00,
2013-10-19 03:08:00,48.0,0.0,29.90,South,191,3.4,6.5,0,0.00,,---,0.00,VWS V14.00,2013-10-19 07:08:00,
2013-10-19 03:09:00,48.0,0.0,29.90,SSW,211,0.0,6.5,0,0.00,,---,0.00,VWS V14.00,2013-10-19 07:09:00,
2013-10-19 03:10:00,48.0,0.0,29.90,WSW,239,4.3,4.6,0,0.00,,---,0.00,VWS V14.00,2013-10-19 07:10:00,
2013-10-19 03:11:00,47.8,0.0,29.90,WSW,252,5.6,5.6,0,0.00,,---,0.00,VWS V14.00,2013-10-19 07:11:00,
2013-10-19 03:12:00,47.7,0.0,29.90,SSW,195,0.0,4.6,0,0.00,,---,0.00,VWS V14.00,2013-10-19 07:12:00,
2013-10-19 03:13:00,47.6,0.0,29.90,West,273,0.0,4.6,0,0.00,,---,0.00,VWS V14.00,2013-10-19 07:13:00,
2013-10-19 03:14:00,47.7,0.0,29.90,West,273,0.0,4.6,0,0.00,,---,0.00,VWS V14.00,2013-10-19 07:14:00,
2013-10-19 03:15:00,47.8,0.0,29.90,West,273,0.0,5.7,0,0.00,,---,0.00,VWS V14.00,2013-10-19 07:15:00,
2013-10-19 03:16:00,47.9,0.0,29.90,West,273,0.0,5.7,0,0.00,,---,0.00,VWS V14.00,2013-10-19 07:16:00,
2013-10-19 03:17:00,48.0,0.0,29.90,West,273,0.0,5.7,0,0.00,,---,0.00,VWS V14.00,2013-10-19 07:17:00,
2013-10-19 03:18:00,47.9,0.0,29.90,West,273,0.0,5.7,0,0.00,,---,0.00,VWS V14.00,2013-10-19 07:18:00,
2013-10-19 03:19:00,47.9,0.0,29.90,West,273,0.0,5.7,0,0.00,,---,0.00,VWS V14.00,2013-10-19 07:19:00,
2013-10-19 03:20:00,47.9,0.0,29.89,West,273,0.0,0.0,0,0.00,,---,0.00,VWS V14.00,2013-10-19 07:20:00,
2013-10-19 03:21:00,47.8,0.0,29.90,West,273,0.0,0.0,0,0.00,,---,0.00,VWS V14.00,2013-10-19 07:21:00,
2013-10-19 03:22:00,47.9,0.0,29.90,West,273,0.0,0.0,0,0.00,,---,0.00,VWS V14.00,2013-10-19 07:22:00,
2013-10-19 03:23:00,47.8,0.0,29.89,West,273,0.0,0.0,0,0.00,,---,0.00,VWS V14.00,2013-10-19 07:23:00,
2013-10-19 03:24:00,47.8,0.0,29.90,West,273,0.0,0.0,0,0.00,,---,0.00,VWS V14.00,2013-10-19 07:24:00,
2013-10-19 03:25:00,47.8,0.0,29.90,West,273,0.0,0.0,0,0.00,,---,0.00,VWS V14.00,2013-10-19 07:25:00,
2013-10-19 03:26:00,47.8,0.0,29.90,West,273,0.0,0.0,0,0.00,,---,0.00,VWS V14.00,2013-10-19 07:26:00,
2013-10-19 03:27:00,47.7,0.0,29.90,West,273,0.0,0.0,0,0.00,,---,0.00,VWS V14.00,2013-10-19 07:27:00,
2013-10-19 03:28:00,47.8,0.0,29.90,West,273,0.0,0.0,0,0.00,,---,0.00,VWS V14.00,2013-10-19 07:28:00,
2013-10-19 03:29:00,47.7,0.0,29.90,West,273,0.0,0.0,0,0.00,,---,0.00,VWS V14.00,2013-10-19 07:29:00,
2013-10-19 03:30:00,47.7,0.0,29.90,West,273,0.0,0.0,0,0.00,,---,0.00,VWS V14.00,2013-10-19 07:30:00,
2013-10-19 03:31:00,47.7,0.0,29.89,West,281,0.0,0.0,0,0.00,,---,0.00,VWS V14.00,2013-10-19 07:31:00,
2013-10-19 03:32:00,47.7,0.0,29.89,West,281,0.0,0.0,0,0.00,,---,0.00,VWS V14.00,2013-10-19 07:32:00,
2013-10-19 03:33:00,47.7,0.0,29.89,West,281,0.0,0.0,0,0.00,,---,0.00,VWS V14.00,2013-10-19 07:33:00,
2013-10-19 03:34:00,47.7,0.0,29.89,West,281,0.0,0.0,0,0.00,,---,0.00,VWS V14.00,2013-10-19 07:34:00,
2013-10-19 03:35:00,47.6,0.0,29.89,West,281,0.0,1.9,0,0.00,,---,0.00,VWS V14.00,2013-10-19 07:35:00,
2013-10-19 03:36:00,47.6,0.0,29.89,West,281,0.0,1.9,0,0.00,,---,0.00,VWS V14.00,2013-10-19 07:36:00,
2013-10-19 03:37:00,47.6,0.0,29.89,West,281,0.0,1.9,0,0.00,,---,0.00,VWS V14.00,2013-10-19 07:37:00,
2013-10-19 03:38:00,47.6,0.0,29.89,West,281,0.0,1.9,0,0.00,,---,0.00,VWS V14.00,2013-10-19 07:38:00,
2013-10-19 03:39:00,47.6,0.0,29.89,West,281,0.0,1.9,0,0.00,,---,0.00,VWS V14.00,2013-10-19 07:39:00,
2013-10-19 03:40:00,47.5,0.0,29.89,West,281,0.0,0.0,0,0.00,,---,0.00,VWS V14.00,2013-10-19 07:40:00,
2013-10-19 03:41:00,47.6,0.0,29.89,West,281,0.0,0.0,0,0.00,,---,0.00,VWS V14.00,2013-10-19 07:41:00,
2013-10-19 03:42:00,47.6,0.0,29.89,West,281,0.0,0.0,0,0.00,,---,0.00,VWS V14.00,2013-10-19 07:42:00,
2013-10-19 03:43:00,47.6,0.0,29.89,West,281,0.0,0.0,0,0.00,,---,0.00,VWS V14.00,2013-10-19 07:43:00,
2013-10-19 03:44:00,47.7,0.0,29.89,West,281,0.0,0.0,0,0.00,,---,0.00,VWS V14.00,2013-10-19 07:44:00,
2013-10-19 03:45:00,47.6,0.0,29.89,West,281,0.0,0.0,0,0.00,,---,0.00,VWS V14.00,2013-10-19 07:45:00,
2013-10-19 03:46:00,47.5,0.0,29.89,West,281,0.0,0.0,0,0.00,,---,0.00,VWS V14.00,2013-10-19 07:46:00,
2013-10-19 03:47:00,47.5,0.0,29.89,West,281,0.0,0.0,0,0.00,,---,0.00,VWS V14.00,2013-10-19 07:47:00,
2013-10-19 03:48:00,47.5,0.0,29.89,West,281,0.0,0.0,0,0.00,,---,0.00,VWS V14.00,2013-10-19 07:48:00,
2013-10-19 03:49:00,47.5,0.0,29.90,West,281,0.0,0.0,0,0.00,,---,0.00,VWS V14.00,2013-10-19 07:49:00,
2013-10-19 03:50:00,47.4,0.0,29.90,West,281,0.0,0.0,0,0.00,,---,0.00,VWS V14.00,2013-10-19 07:50:00,
2013-10-19 03:51:00,47.4,0.0,29.90,West,281,0.0,0.0,0,0.00,,---,0.00,VWS V14.00,2013-10-19 07:51:00,
2013-10-19 03:52:00,47.4,0.0,29.90,West,281,0.0,0.0,0,0.00,,---,0.00,VWS V14.00,2013-10-19 07:52:00,
2013-10-19 03:53:00,47.3,0.0,29.90,West,281,0.0,0.0,0,0.00,,---,0.00,VWS V14.00,2013-10-19 07:53:00,
2013-10-19 03:54:00,47.2,0.0,29.90,West,281,0.0,0.0,0,0.00,,---,0.00,VWS V14.00,2013-10-19 07:54:00,
2013-10-19 03:55:00,47.3,0.0,29.90,West,281,0.0,0.0,0,0.00,,---,0.00,VWS V14.00,2013-10-19 07:55:00,
2013-10-19 03:56:00,47.1,0.0,29.90,West,281,0.0,0.0,0,0.00,,---,0.00,VWS V14.00,2013-10-19 07:56:00,
2013-10-19 03:57:00,47.1,0.0,29.90,West,281,0.0,0.0,0,0.00,,---,0.00,VWS V14.00,2013-10-19 07:57:00,
2013-10-19 03:58:00,47.0,0.0,29.90,West,281,0.0,0.0,0,0.00,,---,0.00,VWS V14.00,2013-10-19 07:58:00,
2013-10-19 03:59:00,47.0,0.0,29.90,West,281,0.0,0.0,0,0.00,,---,0.00,VWS V14.00,2013-10-19 07:59:00,
2013-10-19 04:00:00,47.1,0.0,29.90,West,281,0.0,0.0,0,0.00,,---,0.00,VWS V14.00,2013-10-19 08:00:00,
2013-10-19 04:01:00,47.0,0.0,29.90,West,281,0.0,0.0,0,0.00,,---,0.00,VWS V14.00,2013-10-19 08:01:00,
2013-10-19 04:02:00,47.0,0.0,29.90,West,281,0.0,0.0,0,0.00,,---,0.00,VWS V14.00,2013-10-19 08:02:00,
2013-10-19 04:03:00,46.9,0.0,29.90,West,281,0.0,0.0,0,0.00,,---,0.00,VWS V14.00,2013-10-19 08:03:00,
2013-10-19 04:04:00,46.9,0.0,29.91,West,281,0.0,0.0,0,0.00,,---,0.00,VWS V14.00,2013-10-19 08:04:00,
2013-10-19 04:05:00,46.9,0.0,29.91,West,281,0.0,0.0,0,0.00,,---,0.00,VWS V14.00,2013-10-19 08:05:00,
2013-10-19 04:06:00,46.8,0.0,29.90,West,281,0.0,0.0,0,0.00,,---,0.00,VWS V14.00,2013-10-19 08:06:00,
2013-10-19 04:07:00,46.8,0.0,29.90,West,281,0.0,0.0,0,0.00,,---,0.00,VWS V14.00,2013-10-19 08:07:00,
2013-10-19 04:08:00,46.9,0.0,29.90,West,281,0.0,0.0,0,0.00,,---,0.00,VWS V14.00,2013-10-19 08:08:00,
2013-10-19 04:09:00,46.7,0.0,29.90,West,281,0.0,0.0,0,0.00,,---,0.00,VWS V14.00,2013-10-19 08:09:00,
2013-10-19 04:10:00,46.7,0.0,29.90,West,281,0.0,0.0,0,0.00,,---,0.00,VWS V14.00,2013-10-19 08:10:00,
2013-10-19 04:11:00,46.7,0.0,29.90,West,281,0.0,0.0,0,0.00,,---,0.00,VWS V14.00,2013-10-19 08:11:00,
2013-10-19 04:12:00,46.6,0.0,29.90,West,281,0.0,0.0,0,0.00,,---,0.00,VWS V14.00,2013-10-19 08:12:00,
2013-10-19 04:13:00,46.5,0.0,29.90,West,281,0.0,0.0,0,0.00,,---,0.00,VWS V14.00,2013-10-19 08:13:00,
2013-10-19 04:14:00,46.4,0.0,29.91,West,281,0.0,0.0,0,0.00,,---,0.00,VWS V14.00,2013-10-19 08:14:00,
2013-10-19 04:15:00,46.4,0.0,29.91,West,281,0.0,0.0,0,0.00,,---,0.00,VWS V14.00,2013-10-19 08:15:00,
2013-10-19 04:16:00,46.4,0.0,29.91,West,281,0.0,0.0,0,0.00,,---,0.00,VWS V14.00,2013-10-19 08:16:00,
2013-10-19 04:17:00,46.4,0.0,29.91,West,281,0.0,0.0,0,0.00,,---,0.00,VWS V14.00,2013-10-19 08:17:00,
2013-10-19 04:18:00,46.4,0.0,29.91,West,281,0.0,0.0,0,0.00,,---,0.00,VWS V14.00,2013-10-19 08:18:00,
2013-10-19 04:19:00,46.4,0.0,29.91,West,281,0.0,0.0,0,0.00,,---,0.00,VWS V14.00,2013-10-19 08:19:00,
2013-10-19 04:20:00,46.4,0.0,29.91,West,281,0.0,0.0,0,0.00,,---,0.00,VWS V14.00,2013-10-19 08:20:00,
2013-10-19 04:21:00,46.4,0.0,29.91,West,281,0.0,0.0,0,0.00,,---,0.00,VWS V14.00,2013-10-19 08:21:00,
2013-10-19 04:22:00,46.4,0.0,29.91,West,281,0.0,0.0,0,0.00,,---,0.00,VWS V14.00,2013-10-19 08:22:00,
2013-10-19 04:23:00,46.4,0.0,29.91,SSW,210,0.0,0.0,0,0.00,,---,0.00,VWS V14.00,2013-10-19 08:23:00,
2013-10-19 04:24:00,46.4,0.0,29.91,South,188,3.5,0.0,0,0.00,,---,0.00,VWS V14.00,2013-10-19 08:24:00,
2013-10-19 04:25:00,46.4,0.0,29.91,SSW,202,4.7,0.0,0,0.00,,---,0.00,VWS V14.00,2013-10-19 08:25:00,
2013-10-19 04:26:00,46.4,0.0,29.91,SW,228,6.1,7.6,0,0.00,,---,0.00,VWS V14.00,2013-10-19 08:26:00,
2013-10-19 04:27:00,46.5,0.0,29.91,SW,226,6.2,7.6,0,0.00,,---,0.00,VWS V14.00,2013-10-19 08:27:00,
2013-10-19 04:28:00,46.6,0.0,29.91,SW,219,5.6,7.6,0,0.00,,---,0.00,VWS V14.00,2013-10-19 08:28:00,
2013-10-19 04:29:00,46.6,0.0,29.91,SSW,212,5.2,7.6,0,0.00,,---,0.00,VWS V14.00,2013-10-19 08:29:00,
2013-10-19 04:30:00,46.6,0.0,29.91,SW,225,4.8,7.6,0,0.00,,---,0.00,VWS V14.00,2013-10-19 08:30:00,
2013-10-19 04:31:00,46.5,0.0,29.91,SW,218,5.3,8.5,0,0.00,,---,0.00,VWS V14.00,2013-10-19 08:31:00,
2013-10-19 04:32:00,46.4,0.0,29.91,SW,231,6.0,8.5,0,0.00,,---,0.00,VWS V14.00,2013-10-19 08:32:00,
2013-10-19 04:33:00,46.4,0.0,29.91,SW,225,3.5,8.5,0,0.00,,---,0.00,VWS V14.00,2013-10-19 08:33:00,
2013-10-19 04:34:00,46.3,0.0,29.91,SW,222,3.3,8.5,0,0.00,,---,0.00,VWS V14.00,2013-10-19 08:34:00,
2013-10-19 04:35:00,46.3,0.0,29.91,SSW,195,0.0,6.3,0,0.00,,---,0.00,VWS V14.00,2013-10-19 08:35:00,
2013-10-19 04:36:00,46.2,0.0,29.91,SSW,205,3.2,6.3,0,0.00,,---,0.00,VWS V14.00,2013-10-19 08:36:00,
2013-10-19 04:37:00,46.3,0.0,29.92,SSW,200,0.0,6.3,0,0.00,,---,0.00,VWS V14.00,2013-10-19 08:37:00,
2013-10-19 04:38:00,46.3,0.0,29.92,SSW,200,0.0,6.3,0,0.00,,---,0.00,VWS V14.00,2013-10-19 08:38:00,
2013-10-19 04:39:00,46.2,0.0,29.92,WSW,240,5.0,6.3,0,0.00,,---,0.00,VWS V14.00,2013-10-19 08:39:00,
2013-10-19 04:40:00,46.1,0.0,29.92,SW,226,4.2,5.6,0,0.00,,---,0.00,VWS V14.00,2013-10-19 08:40:00,
2013-10-19 04:41:00,46.0,0.0,29.92,WSW,238,5.5,5.6,0,0.00,,---,0.00,VWS V14.00,2013-10-19 08:41:00,
2013-10-19 04:42:00,46.0,0.0,29.92,SW,214,3.4,5.6,0,0.00,,---,0.00,VWS V14.00,2013-10-19 08:42:00,
2013-10-19 04:43:00,46.0,0.0,29.92,SW,219,4.8,5.6,0,0.00,,---,0.00,VWS V14.00,2013-10-19 08:43:00,
2013-10-19 04:44:00,45.9,0.0,29.92,SW,229,3.2,5.6,0,0.00,,---,0.00,VWS V14.00,2013-10-19 08:44:00,
2013-10-19 04:45:00,45.8,0.0,29.92,SW,228,5.9,6.8,0,0.00,,---,0.00,VWS V14.00,2013-10-19 08:45:00,
2013-10-19 04:46:00,45.8,0.0,29.92,West,266,0.0,6.8,0,0.00,,---,0.00,VWS V14.00,2013-10-19 08:46:00,
2013-10-19 04:47:00,45.8,0.0,29.92,WSW,253,0.0,6.8,0,0.00,,---,0.00,VWS V14.00,2013-10-19 08:47:00,
2013-10-19 04:48:00,45.8,0.0,29.92,SW,224,6.5,6.8,0,0.00,,---,0.00,VWS V14.00,2013-10-19 08:48:00,
2013-10-19 04:49:00,45.7,0.0,29.92,SW,232,5.6,6.8,0,0.00,,---,0.00,VWS V14.00,2013-10-19 08:49:00,
2013-10-19 04:50:00,45.8,0.0,29.92,SW,225,5.1,7.0,0,0.00,,---,0.00,VWS V14.00,2013-10-19 08:50:00,
2013-10-19 04:51:00,45.7,0.0,29.92,SW,233,5.1,7.0,0,0.00,,---,0.00,VWS V14.00,2013-10-19 08:51:00,
2013-10-19 04:52:00,45.7,0.0,29.92,SW,217,3.4,7.0,0,0.00,,---,0.00,VWS V14.00,2013-10-19 08:52:00,
2013-10-19 04:53:00,45.7,0.0,29.92,SW,231,4.3,7.0,0,0.00,,---,0.00,VWS V14.00,2013-10-19 08:53:00,
2013-10-19 04:54:00,45.7,0.0,29.92,SW,228,4.2,7.0,0,0.00,,---,0.00,VWS V14.00,2013-10-19 08:54:00,
2013-10-19 04:55:00,45.8,0.0,29.92,WSW,248,5.1,7.1,0,0.00,,---,0.00,VWS V14.00,2013-10-19 08:55:00,
2013-10-19 04:56:00,45.8,0.0,29.92,SW,236,2.7,7.1,0,0.00,,---,0.00,VWS V14.00,2013-10-19 08:56:00,
2013-10-19 04:57:00,45.8,0.0,29.92,SW,215,0.0,7.1,0,0.00,,---,0.00,VWS V14.00,2013-10-19 08:57:00,
2013-10-19 04:58:00,45.7,0.0,29.92,SW,236,3.1,7.1,0,0.00,,---,0.00,VWS V14.00,2013-10-19 08:58:00,
2013-10-19 04:59:00,45.7,0.0,29.92,SW,235,2.0,7.1,0,0.00,,---,0.00,VWS V14.00,2013-10-19 08:59:00,
2013-10-19 05:00:00,45.7,0.0,29.92,SW,232,0.0,6.9,0,0.00,,---,0.00,VWS V14.00,2013-10-19 09:00:00,
2013-10-19 05:01:00,45.7,0.0,29.92,SW,229,3.3,6.9,0,0.00,,---,0.00,VWS V14.00,2013-10-19 09:01:00,
2013-10-19 05:02:00,45.6,0.0,29.92,WSW,243,1.7,6.9,0,0.00,,---,0.00,VWS V14.00,2013-10-19 09:02:00,
2013-10-19 05:03:00,45.6,0.0,29.92,SW,235,5.2,6.9,0,0.00,,---,0.00,VWS V14.00,2013-10-19 09:03:00,
2013-10-19 05:04:00,45.6,0.0,29.92,WSW,253,5.6,6.9,0,0.00,,---,0.00,VWS V14.00,2013-10-19 09:04:00,
2013-10-19 05:05:00,45.6,0.0,29.92,SW,233,4.9,7.3,0,0.00,,---,0.00,VWS V14.00,2013-10-19 09:05:00,
2013-10-19 05:06:00,45.6,0.0,29.92,West,269,6.4,7.3,0,0.00,,---,0.00,VWS V14.00,2013-10-19 09:06:00,
2013-10-19 05:07:00,45.6,0.0,29.92,SW,231,1.4,7.3,0,0.00,,---,0.00,VWS V14.00,2013-10-19 09:07:00,
2013-10-19 05:08:00,45.7,0.0,29.92,WSW,246,6.2,7.3,0,0.00,,---,0.00,VWS V14.00,2013-10-19 09:08:00,
2013-10-19 05:09:00,45.7,0.0,29.92,SW,218,5.3,7.3,0,0.00,,---,0.00,VWS V14.00,2013-10-19 09:09:00,
2013-10-19 05:10:00,45.7,0.0,29.92,WSW,242,4.5,8.0,0,0.00,,---,0.00,VWS V14.00,2013-10-19 09:10:00,
2013-10-19 05:11:00,45.7,0.0,29.92,WSW,245,5.2,8.0,0,0.00,,---,0.00,VWS V14.00,2013-10-19 09:11:00,
2013-10-19 05:12:00,45.7,0.0,29.92,SSW,210,5.7,8.0,0,0.00,,---,0.00,VWS V14.00,2013-10-19 09:12:00,
2013-10-19 05:13:00,45.7,0.0,29.92,SW,219,4.2,8.0,0,0.00,,---,0.00,VWS V14.00,2013-10-19 09:13:00,
2013-10-19 05:14:00,45.7,0.0,29.92,SSW,198,4.3,8.0,0,0.00,,---,0.00,VWS V14.00,2013-10-19 09:14:00,
2013-10-19 05:15:00,45.8,0.0,29.93,SW,226,5.3,8.9,0,0.00,,---,0.00,VWS V14.00,2013-10-19 09:15:00,
2013-10-19 05:16:00,45.8,0.0,29.92,SSW,208,3.4,8.9,0,0.00,,---,0.00,VWS V14.00,2013-10-19 09:16:00,
2013-10-19 05:17:00,45.8,0.0,29.92,SSW,212,5.6,8.9,0,0.00,,---,0.00,VWS V14.00,2013-10-19 09:17:00,
2013-10-19 05:18:00,45.8,0.0,29.92,WSW,242,5.3,8.9,0,0.00,,---,0.00,VWS V14.00,2013-10-19 09:18:00,
2013-10-19 05:19:00,45.8,0.0,29.92,SW,232,4.7,8.9,0,0.00,,---,0.00,VWS V14.00,2013-10-19 09:19:00,
2013-10-19 05:20:00,45.7,0.0,29.92,WSW,243,4.6,7.7,0,0.00,,---,0.00,VWS V14.00,2013-10-19 09:20:00,
2013-10-19 05:21:00,45.7,0.0,29.92,SW,233,4.8,7.7,0,0.00,,---,0.00,VWS V14.00,2013-10-19 09:21:00,
2013-10-19 05:22:00,45.7,0.0,29.92,WSW,240,4.3,7.7,0,0.00,,---,0.00,VWS V14.00,2013-10-19 09:22:00,
2013-10-19 05:23:00,45.8,0.0,29.92,SW,214,0.0,7.7,0,0.00,,---,0.00,VWS V14.00,2013-10-19 09:23:00,
2013-10-19 05:24:00,45.8,0.0,29.93,SW,231,5.8,7.7,0,0.00,,---,0.00,VWS V14.00,2013-10-19 09:24:00,
2013-10-19 05:25:00,45.8,0.0,29.92,SW,221,2.7,7.0,0,0.00,,---,0.00,VWS V14.00,2013-10-19 09:25:00,
2013-10-19 05:26:00,45.9,0.0,29.93,SW,232,4.3,7.0,0,0.00,,---,0.00,VWS V14.00,2013-10-19 09:26:00,
2013-10-19 05:27:00,45.9,0.0,29.93,WSW,249,5.8,7.0,0,0.00,,---,0.00,VWS V14.00,2013-10-19 09:27:00,
2013-10-19 05:28:00,45.8,0.0,29.93,SSW,212,2.5,7.0,0,0.00,,---,0.00,VWS V14.00,2013-10-19 09:28:00,
2013-10-19 05:29:00,45.8,0.0,29.93,SW,235,6.2,7.0,0,0.00,,---,0.00,VWS V14.00,2013-10-19 09:29:00,
2013-10-19 05:30:00,45.9,0.0,29.92,SW,219,3.2,7.0,0,0.00,,---,0.00,VWS V14.00,2013-10-19 09:30:00,
2013-10-19 05:31:00,45.9,0.0,29.93,SW,221,6.5,6.5,0,0.00,,---,0.00,VWS V14.00,2013-10-19 09:31:00,
2013-10-19 05:32:00,45.9,0.0,29.93,WSW,240,4.2,6.5,0,0.00,,---,0.00,VWS V14.00,2013-10-19 09:32:00,
2013-10-19 05:33:00,45.9,0.0,29.93,SW,219,0.0,6.5,0,0.00,,---,0.00,VWS V14.00,2013-10-19 09:33:00,
2013-10-19 05:34:00,45.9,0.0,29.93,WSW,257,5.7,6.5,0,0.00,,---,0.00,VWS V14.00,2013-10-19 09:34:00,
2013-10-19 05:35:00,45.9,0.0,29.93,WSW,250,4.7,6.5,0,0.00,,---,0.00,VWS V14.00,2013-10-19 09:35:00,
2013-10-19 05:36:00,45.8,0.0,29.93,WSW,257,0.0,8.8,0,0.00,,---,0.00,VWS V14.00,2013-10-19 09:36:00,
2013-10-19 05:37:00,45.8,0.0,29.93,SSW,211,3.2,8.8,0,0.00,,---,0.00,VWS V14.00,2013-10-19 09:37:00,
2013-10-19 05:38:00,45.8,0.0,29.93,SSW,202,0.0,8.8,0,0.00,,---,0.00,VWS V14.00,2013-10-19 09:38:00,
2013-10-19 05:39:00,45.8,0.0,29.93,SSW,205,4.5,8.8,0,0.00,,---,0.00,VWS V14.00,2013-10-19 09:39:00,
2013-10-19 05:40:00,45.8,0.0,29.93,South,191,0.0,7.8,0,0.00,,---,0.00,VWS V14.00,2013-10-19 09:40:00,
2013-10-19 05:41:00,45.8,0.0,29.93,SW,228,5.0,7.8,0,0.00,,---,0.00,VWS V14.00,2013-10-19 09:41:00,
2013-10-19 05:42:00,45.7,0.0,29.93,WSW,248,2.7,7.8,0,0.00,,---,0.00,VWS V14.00,2013-10-19 09:42:00,
2013-10-19 05:43:00,45.6,0.0,29.93,WSW,248,0.0,7.8,0,0.00,,---,0.00,VWS V14.00,2013-10-19 09:43:00,
2013-10-19 05:44:00,45.7,0.0,29.93,WSW,248,0.0,7.8,0,0.00,,---,0.00,VWS V14.00,2013-10-19 09:44:00,
2013-10-19 05:45:00,45.7,0.0,29.93,WSW,248,0.0,5.3,0,0.00,,---,0.00,VWS V14.00,2013-10-19 09:45:00,
2013-10-19 05:46:00,45.8,0.0,29.93,WSW,248,0.0,5.3,0,0.00,,---,0.00,VWS V14.00,2013-10-19 09:46:00,
2013-10-19 05:47:00,45.7,0.0,29.93,WSW,248,0.0,5.3,0,0.00,,---,0.00,VWS V14.00,2013-10-19 09:47:00,
2013-10-19 05:48:00,45.6,0.0,29.93,WSW,248,0.0,5.3,0,0.00,,---,0.00,VWS V14.00,2013-10-19 09:48:00,
2013-10-19 05:49:00,45.5,0.0,29.93,WSW,248,3.0,5.3,0,0.00,,---,0.00,VWS V14.00,2013-10-19 09:49:00,
2013-10-19 05:50:00,45.6,0.0,29.93,WSW,248,0.0,3.0,0,0.00,,---,0.00,VWS V14.00,2013-10-19 09:50:00,
2013-10-19 05:51:00,45.5,0.0,29.93,WSW,248,0.0,3.0,0,0.00,,---,0.00,VWS V14.00,2013-10-19 09:51:00,
2013-10-19 05:52:00,45.5,0.0,29.93,WSW,248,0.0,3.0,0,0.00,,---,0.00,VWS V14.00,2013-10-19 09:52:00,
2013-10-19 05:53:00,45.6,0.0,29.93,WSW,248,0.0,3.0,0,0.00,,---,0.00,VWS V14.00,2013-10-19 09:53:00,
2013-10-19 05:54:00,45.6,0.0,29.93,WSW,248,0.0,3.0,0,0.00,,---,0.00,VWS V14.00,2013-10-19 09:54:00,
2013-10-19 05:55:00,45.6,0.0,29.93,WSW,248,0.0,0.0,0,0.00,,---,0.00,VWS V14.00,2013-10-19 09:55:00,
2013-10-19 05:56:00,45.4,0.0,29.93,WSW,248,0.0,0.0,0,0.00,,---,0.00,VWS V14.00,2013-10-19 09:56:00,
2013-10-19 05:57:00,45.5,0.0,29.93,WSW,248,0.0,0.0,0,0.00,,---,0.00,VWS V14.00,2013-10-19 09:57:00,
2013-10-19 05:58:00,45.4,0.0,29.93,WSW,248,0.0,0.0,0,0.00,,---,0.00,VWS V14.00,2013-10-19 09:58:00,
2013-10-19 05:59:00,45.4,0.0,29.93,WSW,248,0.0,0.0,0,0.00,,---,0.00,VWS V14.00,2013-10-19 09:59:00,
2013-10-19 06:00:00,45.4,0.0,29.93,WSW,248,0.0,0.0,0,0.00,,---,0.00,VWS V14.00,2013-10-19 10:00:00,
2013-10-19 06:01:00,45.4,0.0,29.93,WSW,248,0.0,0.0,0,0.00,,---,0.00,VWS V14.00,2013-10-19 10:01:00,
2013-10-19 06:02:00,45.5,0.0,29.93,WSW,248,0.0,0.0,0,0.00,,---,0.00,VWS V14.00,2013-10-19 10:02:00,
2013-10-19 06:03:00,45.4,0.0,29.93,WSW,248,0.0,0.0,0,0.00,,---,0.00,VWS V14.00,2013-10-19 10:03:00,
2013-10-19 06:04:00,45.4,0.0,29.93,WSW,248,0.0,0.0,0,0.00,,---,0.00,VWS V14.00,2013-10-19 10:04:00,
2013-10-19 06:05:00,45.3,0.0,29.93,WSW,248,0.0,0.0,0,0.00,,---,0.00,VWS V14.00,2013-10-19 10:05:00,
2013-10-19 06:06:00,45.2,0.0,29.93,WSW,248,0.0,0.0,0,0.00,,---,0.00,VWS V14.00,2013-10-19 10:06:00,
2013-10-19 06:07:00,45.2,0.0,29.93,WSW,248,0.0,0.0,0,0.00,,---,0.00,VWS V14.00,2013-10-19 10:07:00,
2013-10-19 06:08:00,45.1,0.0,29.93,WSW,248,0.0,0.0,0,0.00,,---,0.00,VWS V14.00,2013-10-19 10:08:00,
2013-10-19 06:09:00,45.1,0.0,29.93,WSW,248,0.0,0.0,0,0.00,,---,0.00,VWS V14.00,2013-10-19 10:09:00,
2013-10-19 06:10:00,45.1,0.0,29.93,WSW,248,0.0,0.0,0,0.00,,---,0.00,VWS V14.00,2013-10-19 10:10:00,
2013-10-19 06:11:00,45.0,0.0,29.93,WSW,248,0.0,0.0,0,0.00,,---,0.00,VWS V14.00,2013-10-19 10:11:00,
2013-10-19 06:12:00,45.0,0.0,29.93,WNW,284,0.0,0.0,0,0.00,,---,0.00,VWS V14.00,2013-10-19 10:12:00,
2013-10-19 06:13:00,45.1,0.0,29.93,WNW,284,0.0,0.0,0,0.00,,---,0.00,VWS V14.00,2013-10-19 10:13:00,
2013-10-19 06:14:00,45.2,0.0,29.93,WNW,284,0.0,0.0,0,0.00,,---,0.00,VWS V14.00,2013-10-19 10:14:00,
2013-10-19 06:15:00,45.3,0.0,29.93,WNW,290,0.0,5.2,0,0.00,,---,0.00,VWS V14.00,2013-10-19 10:15:00,
2013-10-19 06:16:00,45.2,0.0,29.93,WNW,290,0.0,5.2,0,0.00,,---,0.00,VWS V14.00,2013-10-19 10:16:00,
2013-10-19 06:17:00,45.1,0.0,29.93,WNW,290,0.0,5.2,0,0.00,,---,0.00,VWS V14.00,2013-10-19 10:17:00,
2013-10-19 06:18:00,45.1,0.0,29.93,WNW,290,0.0,5.2,0,0.00,,---,0.00,VWS V14.00,2013-10-19 10:18:00,
2013-10-19 06:19:00,45.1,0.0,29.93,WNW,290,0.0,5.2,0,0.00,,---,0.00,VWS V14.00,2013-10-19 10:19:00,
2013-10-19 06:20:00,45.0,0.0,29.93,WSW,248,0.0,3.4,0,0.00,,---,0.00,VWS V14.00,2013-10-19 10:20:00,
2013-10-19 06:21:00,45.0,0.0,29.93,WSW,248,0.0,3.4,0,0.00,,---,0.00,VWS V14.00,2013-10-19 10:21:00,
2013-10-19 06:22:00,45.0,0.0,29.93,WSW,248,0.0,3.4,0,0.00,,---,0.00,VWS V14.00,2013-10-19 10:22:00,
2013-10-19 06:23:00,45.0,0.0,29.93,WSW,248,0.0,3.4,0,0.00,,---,0.00,VWS V14.00,2013-10-19 10:23:00,
2013-10-19 06:24:00,45.1,0.0,29.93,WSW,248,0.0,3.4,0,0.00,,---,0.00,VWS V14.00,2013-10-19 10:24:00,
2013-10-19 06:25:00,45.1,0.0,29.93,SW,232,2.3,4.2,0,0.00,,---,0.00,VWS V14.00,2013-10-19 10:25:00,
2013-10-19 06:26:00,45.1,0.0,29.93,SW,232,0.0,4.2,0,0.00,,---,0.00,VWS V14.00,2013-10-19 10:26:00,
2013-10-19 06:27:00,45.1,0.0,29.93,SW,232,0.0,4.2,0,0.00,,---,0.00,VWS V14.00,2013-10-19 10:27:00,
2013-10-19 06:28:00,45.1,0.0,29.93,SW,232,0.0,4.2,0,0.00,,---,0.00,VWS V14.00,2013-10-19 10:28:00,
2013-10-19 06:29:00,45.1,0.0,29.93,SW,232,0.0,4.2,0,0.00,,---,0.00,VWS V14.00,2013-10-19 10:29:00,
2013-10-19 06:30:00,45.1,0.0,29.93,SW,232,0.0,4.8,0,0.00,,---,0.00,VWS V14.00,2013-10-19 10:30:00,
2013-10-19 06:31:00,45.2,0.0,29.93,SW,232,0.0,4.8,0,0.00,,---,0.00,VWS V14.00,2013-10-19 10:31:00,
2013-10-19 06:32:00,45.2,0.0,29.93,SW,232,0.0,4.8,0,0.00,,---,0.00,VWS V14.00,2013-10-19 10:32:00,
2013-10-19 06:33:00,45.2,0.0,29.93,SW,232,0.0,4.8,0,0.00,,---,0.00,VWS V14.00,2013-10-19 10:33:00,
2013-10-19 06:34:00,45.2,0.0,29.93,SW,232,0.0,4.8,0,0.00,,---,0.00,VWS V14.00,2013-10-19 10:34:00,
2013-10-19 06:35:00,45.2,0.0,29.93,SW,232,0.0,4.8,0,0.00,,---,0.00,VWS V14.00,2013-10-19 10:35:00,
2013-10-19 06:36:00,45.2,0.0,29.93,West,260,0.0,0.0,0,0.00,,---,0.00,VWS V14.00,2013-10-19 10:36:00,
2013-10-19 06:37:00,45.2,0.0,29.93,West,260,0.0,0.0,0,0.00,,---,0.00,VWS V14.00,2013-10-19 10:37:00,
2013-10-19 06:38:00,45.1,0.0,29.93,West,260,0.0,0.0,0,0.00,,---,0.00,VWS V14.00,2013-10-19 10:38:00,
2013-10-19 06:39:00,45.2,0.0,29.93,SW,226,0.0,0.0,0,0.00,,---,0.00,VWS V14.00,2013-10-19 10:39:00,
2013-10-19 06:40:00,45.2,0.0,29.93,SW,226,0.0,5.5,0,0.00,,---,0.00,VWS V14.00,2013-10-19 10:40:00,
2013-10-19 06:41:00,45.2,0.0,29.93,WNW,285,0.0,5.5,0,0.00,,---,0.00,VWS V14.00,2013-10-19 10:41:00,
2013-10-19 06:42:00,45.3,0.0,29.93,WNW,285,0.0,5.5,0,0.00,,---,0.00,VWS V14.00,2013-10-19 10:42:00,
2013-10-19 06:43:00,45.3,0.0,29.93,WNW,285,0.0,5.5,0,0.00,,---,0.00,VWS V14.00,2013-10-19 10:43:00,
2013-10-19 06:44:00,45.3,0.0,29.93,WNW,285,2.7,5.5,0,0.00,,---,0.00,VWS V14.00,2013-10-19 10:44:00,
2013-10-19 06:45:00,45.3,0.0,29.93,WNW,285,0.0,4.9,0,0.00,,---,0.00,VWS V14.00,2013-10-19 10:45:00,
2013-10-19 06:46:00,45.3,0.0,29.93,WNW,285,0.0,4.9,0,0.00,,---,0.00,VWS V14.00,2013-10-19 10:46:00,
2013-10-19 06:47:00,45.3,0.0,29.93,WNW,285,0.0,4.9,0,0.00,,---,0.00,VWS V14.00,2013-10-19 10:47:00,
2013-10-19 06:48:00,45.3,0.0,29.93,SW,229,3.4,4.9,0,0.00,,---,0.00,VWS V14.00,2013-10-19 10:48:00,
2013-10-19 06:49:00,45.4,0.0,29.93,SW,229,0.0,4.9,0,0.00,,---,0.00,VWS V14.00,2013-10-19 10:49:00,
2013-10-19 06:50:00,45.5,0.0,29.93,SW,229,0.0,3.4,0,0.00,,---,0.00,VWS V14.00,2013-10-19 10:50:00,
2013-10-19 06:51:00,45.6,0.0,29.93,West,264,0.0,3.4,0,0.00,,---,0.00,VWS V14.00,2013-10-19 10:51:00,
2013-10-19 06:52:00,45.5,0.0,29.93,West,264,0.0,3.4,0,0.00,,---,0.00,VWS V14.00,2013-10-19 10:52:00,
2013-10-19 06:53:00,45.5,0.0,29.93,WSW,239,0.0,3.4,0,0.00,,---,0.00,VWS V14.00,2013-10-19 10:53:00,
2013-10-19 06:54:00,45.6,0.0,29.93,South,187,0.0,3.4,0,0.00,,---,0.00,VWS V14.00,2013-10-19 10:54:00,
2013-10-19 06:55:00,45.6,0.0,29.93,South,187,0.0,5.8,0,0.00,,---,0.00,VWS V14.00,2013-10-19 10:55:00,
2013-10-19 06:56:00,45.7,0.0,29.93,South,187,0.0,5.8,0,0.00,,---,0.00,VWS V14.00,2013-10-19 10:56:00,
2013-10-19 06:57:00,45.8,0.0,29.93,West,274,0.0,5.8,0,0.00,,---,0.00,VWS V14.00,2013-10-19 10:57:00,
2013-10-19 06:58:00,45.8,0.0,29.93,West,274,3.3,5.8,0,0.00,,---,0.00,VWS V14.00,2013-10-19 10:58:00,
2013-10-19 06:59:00,45.9,0.0,29.93,SSW,208,0.0,5.8,0,0.00,,---,0.00,VWS V14.00,2013-10-19 10:59:00,
2013-10-19 07:00:00,46.0,0.0,29.93,SSW,208,0.0,4.3,0,0.00,,---,0.00,VWS V14.00,2013-10-19 11:00:00,
2013-10-19 07:01:00,46.0,0.0,29.93,WSW,246,0.0,4.3,0,0.00,,---,0.00,VWS V14.00,2013-10-19 11:01:00,
2013-10-19 07:02:00,46.1,0.0,29.93,WSW,246,0.0,4.3,0,0.00,,---,0.00,VWS V14.00,2013-10-19 11:02:00,
2013-10-19 07:03:00,46.1,0.0,29.93,WSW,246,0.0,4.3,0,0.00,,---,0.00,VWS V14.00,2013-10-19 11:03:00,
2013-10-19 07:04:00,46.2,0.0,29.93,WSW,248,4.8,4.8,0,0.00,,---,0.00,VWS V14.00,2013-10-19 11:04:00,
2013-10-19 07:05:00,46.2,0.0,29.93,SSW,197,4.3,6.3,0,0.00,,---,0.00,VWS V14.00,2013-10-19 11:05:00,
2013-10-19 07:06:00,46.2,0.0,29.93,WSW,243,5.5,6.3,0,0.00,,---,0.00,VWS V14.00,2013-10-19 11:06:00,
2013-10-19 07:07:00,46.3,0.0,29.93,WSW,243,4.8,6.3,0,0.00,,---,0.00,VWS V14.00,2013-10-19 11:07:00,
2013-10-19 07:08:00,46.4,0.0,29.93,SSW,204,4.8,6.3,0,0.00,,---,0.00,VWS V14.00,2013-10-19 11:08:00,
2013-10-19 07:09:00,46.4,0.0,29.93,SSW,208,0.0,6.3,0,0.00,,---,0.00,VWS V14.00,2013-10-19 11:09:00,
2013-10-19 07:10:00,46.6,0.0,29.93,SW,228,5.5,7.7,0,0.00,,---,0.00,VWS V14.00,2013-10-19 11:10:00,
2013-10-19 07:11:00,46.7,0.0,29.93,SSW,208,4.7,7.7,0,0.00,,---,0.00,VWS V14.00,2013-10-19 11:11:00,
2013-10-19 07:12:00,46.6,0.0,29.93,SSW,210,4.9,7.7,0,0.00,,---,0.00,VWS V14.00,2013-10-19 11:12:00,
2013-10-19 07:13:00,46.7,0.0,29.93,SSW,194,2.9,7.7,0,0.00,,---,0.00,VWS V14.00,2013-10-19 11:13:00,
2013-10-19 07:14:00,46.7,0.0,29.93,SW,215,3.4,7.7,0,0.00,,---,0.00,VWS V14.00,2013-10-19 11:14:00,
2013-10-19 07:15:00,46.8,0.0,29.93,WSW,256,0.0,7.0,0,0.00,,---,0.00,VWS V14.00,2013-10-19 11:15:00,
2013-10-19 07:16:00,46.9,0.0,29.93,SSW,195,0.0,7.0,0,0.00,,---,0.00,VWS V14.00,2013-10-19 11:16:00,
2013-10-19 07:17:00,47.0,0.0,29.93,SW,217,0.0,7.0,0,0.00,,---,0.00,VWS V14.00,2013-10-19 11:17:00,
2013-10-19 07:18:00,47.1,0.0,29.93,SW,217,0.0,7.0,0,0.00,,---,0.00,VWS V14.00,2013-10-19 11:18:00,
2013-10-19 07:19:00,47.2,0.0,29.93,SW,217,0.0,7.0,0,0.00,,---,0.00,VWS V14.00,2013-10-19 11:19:00,
2013-10-19 07:20:00,47.3,0.0,29.93,SSW,211,3.1,4.1,0,0.00,,---,0.00,VWS V14.00,2013-10-19 11:20:00,
2013-10-19 07:21:00,47.4,0.0,29.93,WSW,248,6.7,6.7,0,0.00,,---,0.00,VWS V14.00,2013-10-19 11:21:00,
2013-10-19 07:22:00,47.5,0.0,29.93,WSW,246,3.3,4.1,0,0.00,,---,0.00,VWS V14.00,2013-10-19 11:22:00,
2013-10-19 07:23:00,47.5,0.0,29.93,WSW,243,6.8,6.8,0,0.00,,---,0.00,VWS V14.00,2013-10-19 11:23:00,
2013-10-19 07:24:00,47.7,0.0,29.93,SW,233,4.3,4.3,0,0.00,,---,0.00,VWS V14.00,2013-10-19 11:24:00,
2013-10-19 07:25:00,47.7,0.0,29.93,WSW,239,5.2,9.3,0,0.00,,---,0.00,VWS V14.00,2013-10-19 11:25:00,
2013-10-19 07:26:00,47.8,0.0,29.93,WSW,240,3.2,9.3,0,0.00,,---,0.00,VWS V14.00,2013-10-19 11:26:00,
2013-10-19 07:27:00,47.9,0.0,29.93,SW,218,0.0,9.3,0,0.00,,---,0.00,VWS V14.00,2013-10-19 11:27:00,
2013-10-19 07:28:00,47.9,0.0,29.93,SW,224,2.7,9.3,0,0.00,,---,0.00,VWS V14.00,2013-10-19 11:28:00,
2013-10-19 07:29:00,48.0,0.0,29.93,SW,214,3.0,9.3,0,0.00,,---,0.00,VWS V14.00,2013-10-19 11:29:00,
2013-10-19 07:30:00,48.2,0.0,29.93,SSW,201,4.2,7.1,0,0.00,,---,0.00,VWS V14.00,2013-10-19 11:30:00,
2013-10-19 07:31:00,48.4,0.0,29.93,SW,231,4.2,7.1,0,0.00,,---,0.00,VWS V14.00,2013-10-19 11:31:00,
2013-10-19 07:32:00,48.5,0.0,29.94,WSW,242,4.1,7.1,0,0.00,,---,0.00,VWS V14.00,2013-10-19 11:32:00,
2013-10-19 07:33:00,48.7,0.0,29.93,SW,217,6.3,7.1,0,0.00,,---,0.00,VWS V14.00,2013-10-19 11:33:00,
2013-10-19 07:34:00,49.0,0.0,29.93,SW,229,5.4,7.1,0,0.00,,---,0.00,VWS V14.00,2013-10-19 11:34:00,
2013-10-19 07:35:00,49.1,0.0,29.94,WSW,238,5.2,7.1,0,0.00,,---,0.00,VWS V14.00,2013-10-19 11:35:00,
2013-10-19 07:36:00,49.2,0.0,29.94,SSW,207,5.3,9.6,0,0.00,,---,0.00,VWS V14.00,2013-10-19 11:36:00,
2013-10-19 07:37:00,49.4,0.0,29.94,WSW,238,3.4,9.6,0,0.00,,---,0.00,VWS V14.00,2013-10-19 11:37:00,
2013-10-19 07:38:00,49.6,0.0,29.94,SW,222,6.2,9.6,0,0.00,,---,0.00,VWS V14.00,2013-10-19 11:38:00,
2013-10-19 07:39:00,49.6,0.0,29.93,WSW,257,3.4,9.6,0,0.00,,---,0.00,VWS V14.00,2013-10-19 11:39:00,
2013-10-19 07:40:00,49.7,0.0,29.93,WSW,243,3.1,9.6,0,0.00,,---,0.00,VWS V14.00,2013-10-19 11:40:00,
2013-10-19 07:41:00,49.8,0.0,29.93,WSW,239,5.0,8.8,0,0.00,,---,0.00,VWS V14.00,2013-10-19 11:41:00,
2013-10-19 07:42:00,50.0,0.0,29.93,WSW,239,0.0,8.8,0,0.00,,---,0.00,VWS V14.00,2013-10-19 11:42:00,
2013-10-19 07:43:00,50.1,0.0,29.93,West,263,0.0,8.8,0,0.00,,---,0.00,VWS V14.00,2013-10-19 11:43:00,
2013-10-19 07:44:00,50.3,0.0,29.93,WSW,248,0.0,8.8,0,0.00,,---,0.00,VWS V14.00,2013-10-19 11:44:00,
2013-10-19 07:45:00,50.4,0.0,29.93,WSW,248,0.0,5.8,0,0.00,,---,0.00,VWS V14.00,2013-10-19 11:45:00,
2013-10-19 07:46:00,50.4,0.0,29.93,WSW,238,4.5,5.8,0,0.00,,---,0.00,VWS V14.00,2013-10-19 11:46:00,
2013-10-19 07:47:00,50.5,0.0,29.93,West,259,3.5,5.8,0,0.00,,---,0.00,VWS V14.00,2013-10-19 11:47:00,
2013-10-19 07:48:00,50.6,0.0,29.93,WSW,238,0.0,5.8,0,0.00,,---,0.00,VWS V14.00,2013-10-19 11:48:00,
2013-10-19 07:49:00,50.7,0.0,29.93,WSW,238,0.0,5.8,0,0.00,,---,0.00,VWS V14.00,2013-10-19 11:49:00,
2013-10-19 07:50:00,50.9,0.0,29.93,WSW,238,0.0,7.5,0,0.00,,---,0.00,VWS V14.00,2013-10-19 11:50:00,
2013-10-19 07:51:00,51.1,0.0,29.93,WNW,294,0.0,7.5,0,0.00,,---,0.00,VWS V14.00,2013-10-19 11:51:00,
2013-10-19 07:52:00,51.2,0.0,29.93,WNW,294,0.0,7.5,0,0.00,,---,0.00,VWS V14.00,2013-10-19 11:52:00,
2013-10-19 07:53:00,51.2,0.0,29.94,West,263,0.0,7.5,0,0.00,,---,0.00,VWS V14.00,2013-10-19 11:53:00,
2013-10-19 07:54:00,51.1,0.0,29.94,SW,215,0.0,7.5,0,0.00,,---,0.00,VWS V14.00,2013-10-19 11:54:00,
2013-10-19 07:55:00,51.2,0.0,29.94,WSW,239,0.0,5.2,0,0.00,,---,0.00,VWS V14.00,2013-10-19 11:55:00,
2013-10-19 07:56:00,51.1,0.0,29.94,West,264,0.0,5.2,0,0.00,,---,0.00,VWS V14.00,2013-10-19 11:56:00,
2013-10-19 07:57:00,51.3,0.0,29.94,SW,214,3.3,5.2,0,0.00,,---,0.00,VWS V14.00,2013-10-19 11:57:00,
2013-10-19 07:58:00,51.2,0.0,29.94,WSW,250,3.5,5.2,0,0.00,,---,0.00,VWS V14.00,2013-10-19 11:58:00,
2013-10-19 07:59:00,51.6,0.0,29.94,SW,225,4.3,5.2,0,0.00,,---,0.00,VWS V14.00,2013-10-19 11:59:00,
2013-10-19 08:00:00,51.8,0.0,29.94,WSW,239,0.0,5.9,0,0.00,,---,0.00,VWS V14.00,2013-10-19 12:00:00,
2013-10-19 08:01:00,52.0,0.0,29.94,WSW,239,0.0,5.9,0,0.00,,---,0.00,VWS V14.00,2013-10-19 12:01:00,
2013-10-19 08:02:00,52.4,0.0,29.94,WSW,239,0.0,5.9,0,0.00,,---,0.00,VWS V14.00,2013-10-19 12:02:00,
2013-10-19 08:03:00,52.7,0.0,29.94,South,184,2.7,5.9,0,0.00,,---,0.00,VWS V14.00,2013-10-19 12:03:00,
2013-10-19 08:04:00,52.9,0.0,29.94,West,278,2.7,5.9,0,0.00,,---,0.00,VWS V14.00,2013-10-19 12:04:00,
2013-10-19 08:05:00,52.9,0.0,29.94,SW,222,4.8,7.8,0,0.00,,---,0.00,VWS V14.00,2013-10-19 12:05:00,
2013-10-19 08:06:00,53.0,0.0,29.94,SW,224,4.3,7.8,0,0.00,,---,0.00,VWS V14.00,2013-10-19 12:06:00,
2013-10-19 08:07:00,53.2,0.0,29.94,SW,226,5.2,7.8,0,0.00,,---,0.00,VWS V14.00,2013-10-19 12:07:00,
2013-10-19 08:08:00,53.0,0.0,29.94,SW,219,4.4,7.8,0,0.00,,---,0.00,VWS V14.00,2013-10-19 12:08:00,
2013-10-19 08:09:00,53.2,0.0,29.94,SW,229,4.2,7.8,0,0.00,,---,0.00,VWS V14.00,2013-10-19 12:09:00,
2013-10-19 08:10:00,53.4,0.0,29.94,SW,232,5.1,8.6,0,0.00,,---,0.00,VWS V14.00,2013-10-19 12:10:00,
2013-10-19 08:11:00,53.4,0.0,29.94,SW,215,3.4,8.6,0,0.00,,---,0.00,VWS V14.00,2013-10-19 12:11:00,
2013-10-19 08:12:00,53.5,0.0,29.94,SW,224,5.8,8.6,0,0.00,,---,0.00,VWS V14.00,2013-10-19 12:12:00,
2013-10-19 08:13:00,53.7,0.0,29.94,SW,232,4.3,8.6,0,0.00,,---,0.00,VWS V14.00,2013-10-19 12:13:00,
2013-10-19 08:14:00,53.9,0.0,29.94,SSW,211,4.2,8.6,0,0.00,,---,0.00,VWS V14.00,2013-10-19 12:14:00,
2013-10-19 08:15:00,53.9,0.0,29.94,SSW,202,3.2,6.7,0,0.00,,---,0.00,VWS V14.00,2013-10-19 12:15:00,
2013-10-19 08:16:00,54.0,0.0,29.94,South,188,0.0,6.7,0,0.00,,---,0.00,VWS V14.00,2013-10-19 12:16:00,
2013-10-19 08:17:00,54.2,0.0,29.94,WSW,250,2.1,6.7,0,0.00,,---,0.00,VWS V14.00,2013-10-19 12:17:00,
2013-10-19 08:18:00,54.1,0.0,29.94,SW,224,0.0,6.7,0,0.00,,---,0.00,VWS V14.00,2013-10-19 12:18:00,
2013-10-19 08:19:00,54.3,0.0,29.94,SW,219,0.0,6.7,0,0.00,,---,0.00,VWS V14.00,2013-10-19 12:19:00,
2013-10-19 08:20:00,54.8,0.0,29.94,SW,219,0.0,3.2,0,0.00,,---,0.00,VWS V14.00,2013-10-19 12:20:00,
2013-10-19 08:21:00,55.1,0.0,29.94,SW,219,0.0,3.2,0,0.00,,---,0.00,VWS V14.00,2013-10-19 12:21:00,
2013-10-19 08:22:00,55.2,0.0,29.94,West,266,4.5,4.5,0,0.00,,---,0.00,VWS V14.00,2013-10-19 12:22:00,
2013-10-19 08:23:00,54.8,0.0,29.94,WNW,302,0.0,3.2,0,0.00,,---,0.00,VWS V14.00,2013-10-19 12:23:00,
2013-10-19 08:24:00,54.6,0.0,29.94,WSW,242,3.2,3.2,0,0.00,,---,0.00,VWS V14.00,2013-10-19 12:24:00,
2013-10-19 08:25:00,54.9,0.0,29.94,West,260,5.3,8.6,0,0.00,,---,0.00,VWS V14.00,2013-10-19 12:25:00,
2013-10-19 08:26:00,54.8,0.0,29.94,NW,305,3.0,8.6,0,0.00,,---,0.00,VWS V14.00,2013-10-19 12:26:00,
2013-10-19 08:27:00,54.9,0.0,29.94,West,280,4.4,8.6,0,0.00,,---,0.00,VWS V14.00,2013-10-19 12:27:00,
2013-10-19 08:28:00,55.3,0.0,29.94,SW,222,0.0,8.6,0,0.00,,---,0.00,VWS V14.00,2013-10-19 12:28:00,
2013-10-19 08:29:00,55.2,0.0,29.94,SW,217,0.0,8.6,0,0.00,,---,0.00,VWS V14.00,2013-10-19 12:29:00,
2013-10-19 08:30:00,55.5,0.0,29.94,SW,232,3.2,5.7,0,0.00,,---,0.00,VWS V14.00,2013-10-19 12:30:00,
2013-10-19 08:31:00,55.6,0.0,29.94,SW,232,0.0,5.7,0,0.00,,---,0.00,VWS V14.00,2013-10-19 12:31:00,
2013-10-19 08:32:00,55.5,0.0,29.94,WSW,257,3.4,5.7,0,0.00,,---,0.00,VWS V14.00,2013-10-19 12:32:00,
2013-10-19 08:33:00,55.2,0.0,29.93,WNW,297,5.2,5.7,0,0.00,,---,0.00,VWS V14.00,2013-10-19 12:33:00,
2013-10-19 08:34:00,55.7,0.0,29.94,West,267,0.0,5.7,0,0.00,,---,0.00,VWS V14.00,2013-10-19 12:34:00,
2013-10-19 08:35:00,56.0,0.0,29.93,SSW,212,0.0,6.6,0,0.00,,---,0.00,VWS V14.00,2013-10-19 12:35:00,
2013-10-19 08:36:00,56.2,0.0,29.94,NW,305,3.3,6.6,0,0.00,,---,0.00,VWS V14.00,2013-10-19 12:36:00,
2013-10-19 08:37:00,56.6,0.0,29.94,SSW,200,0.0,6.6,0,0.00,,---,0.00,VWS V14.00,2013-10-19 12:37:00,
2013-10-19 08:38:00,56.4,0.0,29.94,SSW,200,0.0,6.6,0,0.00,,---,0.00,VWS V14.00,2013-10-19 12:38:00,
2013-10-19 08:39:00,56.9,0.0,29.94,SSW,200,0.0,6.6,0,0.00,,---,0.00,VWS V14.00,2013-10-19 12:39:00,
2013-10-19 08:40:00,56.9,0.0,29.94,SW,235,2.7,6.6,0,0.00,,---,0.00,VWS V14.00,2013-10-19 12:40:00,
2013-10-19 08:41:00,56.4,0.0,29.94,SW,214,0.0,4.7,0,0.00,,---,0.00,VWS V14.00,2013-10-19 12:41:00,
2013-10-19 08:42:00,56.2,0.0,29.94,SW,214,0.0,4.7,0,0.00,,---,0.00,VWS V14.00,2013-10-19 12:42:00,
2013-10-19 08:43:00,56.0,0.0,29.94,WSW,245,2.9,4.7,0,0.00,,---,0.00,VWS V14.00,2013-10-19 12:43:00,
2013-10-19 08:44:00,56.2,0.0,29.94,WSW,245,0.0,4.7,0,0.00,,---,0.00,VWS V14.00,2013-10-19 12:44:00,
2013-10-19 08:45:00,56.4,0.0,29.94,WSW,245,0.0,4.7,0,0.00,,---,0.00,VWS V14.00,2013-10-19 12:45:00,
2013-10-19 08:46:00,56.5,0.0,29.94,SW,231,0.0,3.4,0,0.00,,---,0.00,VWS V14.00,2013-10-19 12:46:00,
2013-10-19 08:47:00,56.6,0.0,29.94,SW,231,0.0,3.4,0,0.00,,---,0.00,VWS V14.00,2013-10-19 12:47:00,
2013-10-19 08:48:00,57.1,0.0,29.94,WNW,300,0.0,3.4,0,0.00,,---,0.00,VWS V14.00,2013-10-19 12:48:00,
2013-10-19 08:49:00,57.2,0.0,29.94,WNW,300,0.0,3.4,0,0.00,,---,0.00,VWS V14.00,2013-10-19 12:49:00,
2013-10-19 08:50:00,57.3,0.0,29.94,WNW,300,0.0,5.3,0,0.00,,---,0.00,VWS V14.00,2013-10-19 12:50:00,
2013-10-19 08:51:00,57.3,0.0,29.94,West,267,3.3,5.3,0,0.00,,---,0.00,VWS V14.00,2013-10-19 12:51:00,
2013-10-19 08:52:00,57.2,0.0,29.94,WSW,240,0.0,5.3,0,0.00,,---,0.00,VWS V14.00,2013-10-19 12:52:00,
2013-10-19 08:53:00,57.7,0.0,29.94,SW,218,0.0,5.3,0,0.00,,---,0.00,VWS V14.00,2013-10-19 12:53:00,
2013-10-19 08:54:00,57.4,0.0,29.94,SW,218,2.4,5.3,0,0.00,,---,0.00,VWS V14.00,2013-10-19 12:54:00,
2013-10-19 08:55:00,57.9,0.0,29.94,SW,221,5.0,6.3,0,0.00,,---,0.00,VWS V14.00,2013-10-19 12:55:00,
2013-10-19 08:56:00,57.9,0.0,29.94,WSW,246,0.0,6.3,0,0.00,,---,0.00,VWS V14.00,2013-10-19 12:56:00,
2013-10-19 08:57:00,58.4,0.0,29.94,West,273,2.4,6.3,0,0.00,,---,0.00,VWS V14.00,2013-10-19 12:57:00,
2013-10-19 08:58:00,58.8,0.0,29.94,SW,224,4.7,6.3,0,0.00,,---,0.00,VWS V14.00,2013-10-19 12:58:00,
2013-10-19 08:59:00,58.7,0.0,29.94,SW,214,2.8,6.3,0,0.00,,---,0.00,VWS V14.00,2013-10-19 12:59:00,
2013-10-19 09:00:00,58.7,0.0,29.94,SSW,198,2.7,6.0,0,0.00,,---,0.00,VWS V14.00,2013-10-19 13:00:00,
2013-10-19 09:01:00,58.7,0.0,29.94,SSW,198,0.0,6.0,0,0.00,,---,0.00,VWS V14.00,2013-10-19 13:01:00,
2013-10-19 09:02:00,58.7,0.0,29.94,WSW,240,4.2,6.0,0,0.00,,---,0.00,VWS V14.00,2013-10-19 13:02:00,
2013-10-19 09:03:00,58.9,0.0,29.94,SW,224,5.0,6.0,0,0.00,,---,0.00,VWS V14.00,2013-10-19 13:03:00,
2013-10-19 09:04:00,59.0,0.0,29.94,SSW,210,3.4,6.0,0,0.00,,---,0.00,VWS V14.00,2013-10-19 13:04:00,
2013-10-19 09:05:00,58.9,0.0,29.94,WSW,255,0.0,6.1,0,0.00,,---,0.00,VWS V14.00,2013-10-19 13:05:00,
2013-10-19 09:06:00,58.9,0.0,29.94,WSW,242,0.0,6.1,0,0.00,,---,0.00,VWS V14.00,2013-10-19 13:06:00,
2013-10-19 09:07:00,58.8,0.0,29.94,SW,225,0.0,6.1,0,0.00,,---,0.00,VWS V14.00,2013-10-19 13:07:00,
2013-10-19 09:08:00,59.2,0.0,29.94,SW,225,0.0,6.1,0,0.00,,---,0.00,VWS V14.00,2013-10-19 13:08:00,
2013-10-19 09:09:00,59.5,0.0,29.94,SW,225,0.0,6.1,0,0.00,,---,0.00,VWS V14.00,2013-10-19 13:09:00,
2013-10-19 09:10:00,60.2,0.0,29.94,SW,225,0.0,2.9,0,0.00,,---,0.00,VWS V14.00,2013-10-19 13:10:00,
2013-10-19 09:11:00,60.5,0.0,29.94,SW,225,0.0,2.9,0,0.00,,---,0.00,VWS V14.00,2013-10-19 13:11:00,
2013-10-19 09:12:00,60.5,0.0,29.94,WSW,246,2.9,2.9,0,0.00,,---,0.00,VWS V14.00,2013-10-19 13:12:00,
2013-10-19 09:13:00,60.6,0.0,29.94,SW,229,7.6,7.6,0,0.00,,---,0.00,VWS V14.00,2013-10-19 13:13:00,
2013-10-19 09:14:00,60.8,0.0,29.94,West,262,6.2,6.2,0,0.00,,---,0.00,VWS V14.00,2013-10-19 13:14:00,
2013-10-19 09:15:00,60.6,0.0,29.94,SSW,207,5.7,8.4,0,0.00,,---,0.00,VWS V14.00,2013-10-19 13:15:00,
2013-10-19 09:16:00,60.6,0.0,29.94,SSW,212,7.5,8.4,0,0.00,,---,0.00,VWS V14.00,2013-10-19 13:16:00,
2013-10-19 09:17:00,60.6,0.0,29.93,SW,236,5.8,8.4,0,0.00,,---,0.00,VWS V14.00,2013-10-19 13:17:00,
2013-10-19 09:18:00,60.8,0.0,29.93,SW,222,4.2,8.4,0,0.00,,---,0.00,VWS V14.00,2013-10-19 13:18:00,
2013-10-19 09:19:00,61.1,0.0,29.93,SW,215,4.9,8.4,0,0.00,,---,0.00,VWS V14.00,2013-10-19 13:19:00,
2013-10-19 09:20:00,61.1,0.0,29.93,SW,236,5.8,8.7,0,0.00,,---,0.00,VWS V14.00,2013-10-19 13:20:00,
2013-10-19 09:21:00,61.1,0.0,29.93,West,263,0.0,8.7,0,0.00,,---,0.00,VWS V14.00,2013-10-19 13:21:00,
2013-10-19 09:22:00,61.2,0.0,29.93,West,266,3.2,8.7,0,0.00,,---,0.00,VWS V14.00,2013-10-19 13:22:00,
2013-10-19 09:23:00,61.6,0.0,29.93,West,262,0.0,8.7,0,0.00,,---,0.00,VWS V14.00,2013-10-19 13:23:00,
2013-10-19 09:24:00,61.5,0.0,29.93,SW,225,6.6,8.7,0,0.00,,---,0.00,VWS V14.00,2013-10-19 13:24:00,
2013-10-19 09:25:00,61.7,0.0,29.93,SW,228,0.0,7.7,0,0.00,,---,0.00,VWS V14.00,2013-10-19 13:25:00,
2013-10-19 09:26:00,62.0,0.0,29.93,SW,228,3.4,7.7,0,0.00,,---,0.00,VWS V14.00,2013-10-19 13:26:00,
2013-10-19 09:27:00,62.0,0.0,29.93,SSW,211,4.8,7.7,0,0.00,,---,0.00,VWS V14.00,2013-10-19 13:27:00,
2013-10-19 09:28:00,62.2,0.0,29.93,SW,218,4.8,7.7,0,0.00,,---,0.00,VWS V14.00,2013-10-19 13:28:00,
2013-10-19 09:29:00,62.5,0.0,29.93,SW,236,5.0,7.7,0,0.00,,---,0.00,VWS V14.00,2013-10-19 13:29:00,
2013-10-19 09:30:00,62.5,0.0,29.93,SW,217,0.0,5.7,0,0.00,,---,0.00,VWS V14.00,2013-10-19 13:30:00,
2013-10-19 09:31:00,62.6,0.0,29.93,South,169,2.9,5.7,0,0.00,,---,0.00,VWS V14.00,2013-10-19 13:31:00,
2013-10-19 09:32:00,62.6,0.0,29.93,WSW,256,2.3,5.7,0,0.00,,---,0.00,VWS V14.00,2013-10-19 13:32:00,
2013-10-19 09:33:00,62.2,0.0,29.93,SW,233,5.5,5.7,0,0.00,,---,0.00,VWS V14.00,2013-10-19 13:33:00,
2013-10-19 09:34:00,62.4,0.0,29.94,SW,224,3.5,5.7,0,0.00,,---,0.00,VWS V14.00,2013-10-19 13:34:00,
2013-10-19 09:35:00,62.6,0.0,29.94,SW,235,6.2,6.8,0,0.00,,---,0.00,VWS V14.00,2013-10-19 13:35:00,
2013-10-19 09:36:00,62.7,0.0,29.94,SSW,212,0.0,6.8,0,0.00,,---,0.00,VWS V14.00,2013-10-19 13:36:00,
2013-10-19 09:37:00,63.3,0.0,29.93,SSW,212,0.0,6.8,0,0.00,,---,0.00,VWS V14.00,2013-10-19 13:37:00,
2013-10-19 09:38:00,63.8,0.0,29.93,SSW,208,3.0,6.8,0,0.00,,---,0.00,VWS V14.00,2013-10-19 13:38:00,
2013-10-19 09:39:00,64.3,0.0,29.93,SW,218,5.0,6.8,0,0.00,,---,0.00,VWS V14.00,2013-10-19 13:39:00,
2013-10-19 09:40:00,63.7,0.0,29.93,WSW,239,2.2,8.0,0,0.00,,---,0.00,VWS V14.00,2013-10-19 13:40:00,
2013-10-19 09:41:00,63.7,0.0,29.93,SW,233,7.0,8.0,0,0.00,,---,0.00,VWS V14.00,2013-10-19 13:41:00,
2013-10-19 09:42:00,63.7,0.0,29.93,SW,233,4.8,8.0,0,0.00,,---,0.00,VWS V14.00,2013-10-19 13:42:00,
2013-10-19 09:43:00,63.9,0.0,29.93,SW,225,7.1,8.0,0,0.00,,---,0.00,VWS V14.00,2013-10-19 13:43:00,
2013-10-19 09:44:00,63.3,0.0,29.93,WSW,242,4.8,8.0,0,0.00,,---,0.00,VWS V14.00,2013-10-19 13:44:00,
2013-10-19 09:45:00,63.6,0.0,29.93,WSW,239,6.7,8.0,0,0.00,,---,0.00,VWS V14.00,2013-10-19 13:45:00,
2013-10-19 09:46:00,64.1,0.0,29.93,SW,231,6.5,9.4,0,0.00,,---,0.00,VWS V14.00,2013-10-19 13:46:00,
2013-10-19 09:47:00,64.1,0.0,29.93,SSW,197,1.7,9.4,0,0.00,,---,0.00,VWS V14.00,2013-10-19 13:47:00,
2013-10-19 09:48:00,63.5,0.0,29.93,SW,219,4.5,9.4,0,0.00,,---,0.00,VWS V14.00,2013-10-19 13:48:00,
2013-10-19 09:49:00,63.6,0.0,29.93,WSW,243,7.2,9.4,0,0.00,,---,0.00,VWS V14.00,2013-10-19 13:49:00,
2013-10-19 09:50:00,64.0,0.0,29.93,SW,229,5.1,7.5,0,0.00,,---,0.00,VWS V14.00,2013-10-19 13:50:00,
2013-10-19 09:51:00,64.3,0.0,29.93,SW,217,3.4,7.5,0,0.00,,---,0.00,VWS V14.00,2013-10-19 13:51:00,
2013-10-19 09:52:00,64.8,0.0,29.93,SSW,200,3.4,7.5,0,0.00,,---,0.00,VWS V14.00,2013-10-19 13:52:00,
2013-10-19 09:53:00,64.6,0.0,29.93,SSW,204,4.3,7.5,0,0.00,,---,0.00,VWS V14.00,2013-10-19 13:53:00,
2013-10-19 09:54:00,64.3,0.0,29.93,South,191,0.0,7.5,0,0.00,,---,0.00,VWS V14.00,2013-10-19 13:54:00,
2013-10-19 09:55:00,64.8,0.0,29.93,South,191,0.0,6.1,0,0.00,,---,0.00,VWS V14.00,2013-10-19 13:55:00,
2013-10-19 09:56:00,64.7,0.0,29.93,SW,219,6.5,6.5,0,0.00,,---,0.00,VWS V14.00,2013-10-19 13:56:00,
2013-10-19 09:57:00,64.8,0.0,29.93,South,174,0.0,6.1,0,0.00,,---,0.00,VWS V14.00,2013-10-19 13:57:00,
2013-10-19 09:58:00,65.1,0.0,29.93,South,174,0.0,6.1,0,0.00,,---,0.00,VWS V14.00,2013-10-19 13:58:00,
2013-10-19 09:59:00,65.4,0.0,29.93,South,174,2.5,6.1,0,0.00,,---,0.00,VWS V14.00,2013-10-19 13:59:00,
2013-10-19 10:00:00,65.4,0.0,29.93,SW,215,8.7,9.5,0,0.00,,---,0.00,VWS V14.00,2013-10-19 14:00:00,
2013-10-19 10:01:00,65.2,0.0,29.93,South,176,4.5,9.5,0,0.00,,---,0.00,VWS V14.00,2013-10-19 14:01:00,
2013-10-19 10:02:00,65.3,0.0,29.93,South,169,0.0,9.5,0,0.00,,---,0.00,VWS V14.00,2013-10-19 14:02:00,
2013-10-19 10:03:00,65.2,0.0,29.93,South,191,5.2,9.5,0,0.00,,---,0.00,VWS V14.00,2013-10-19 14:03:00,
2013-10-19 10:04:00,65.2,0.0,29.93,SW,217,0.0,9.5,0,0.00,,---,0.00,VWS V14.00,2013-10-19 14:04:00,
2013-10-19 10:05:00,65.2,0.0,29.93,SW,226,7.0,9.9,0,0.00,,---,0.00,VWS V14.00,2013-10-19 14:05:00,
2013-10-19 10:06:00,65.0,0.0,29.93,SSW,204,6.4,9.9,0,0.00,,---,0.00,VWS V14.00,2013-10-19 14:06:00,
2013-10-19 10:07:00,64.9,0.0,29.93,SW,214,6.9,9.9,0,0.00,,---,0.00,VWS V14.00,2013-10-19 14:07:00,
2013-10-19 10:08:00,65.0,0.0,29.93,South,181,0.0,9.9,0,0.00,,---,0.00,VWS V14.00,2013-10-19 14:08:00,
2013-10-19 10:09:00,65.4,0.0,29.93,South,176,3.4,9.9,0,0.00,,---,0.00,VWS V14.00,2013-10-19 14:09:00,
2013-10-19 10:10:00,65.4,0.0,29.93,South,177,0.0,9.8,0,0.00,,---,0.00,VWS V14.00,2013-10-19 14:10:00,
2013-10-19 10:11:00,65.3,0.0,29.93,South,187,3.3,9.8,0,0.00,,---,0.00,VWS V14.00,2013-10-19 14:11:00,
2013-10-19 10:12:00,65.7,0.0,29.93,SSW,208,5.1,9.8,0,0.00,,---,0.00,VWS V14.00,2013-10-19 14:12:00,
2013-10-19 10:13:00,65.2,0.0,29.93,SSW,201,4.7,9.8,0,0.00,,---,0.00,VWS V14.00,2013-10-19 14:13:00,
2013-10-19 10:14:00,65.2,0.0,29.93,SW,219,9.1,9.8,0,0.00,,---,0.00,VWS V14.00,2013-10-19 14:14:00,
2013-10-19 10:15:00,65.0,0.0,29.93,SSW,211,5.8,9.2,0,0.00,,---,0.00,VWS V14.00,2013-10-19 14:15:00,
2013-10-19 10:16:00,65.4,0.0,29.93,SSW,198,4.7,9.2,0,0.00,,---,0.00,VWS V14.00,2013-10-19 14:16:00,
2013-10-19 10:17:00,65.9,0.0,29.93,SW,222,5.8,9.2,0,0.00,,---,0.00,VWS V14.00,2013-10-19 14:17:00,
2013-10-19 10:18:00,65.8,0.0,29.93,SSW,198,3.4,9.2,0,0.00,,---,0.00,VWS V14.00,2013-10-19 14:18:00,
2013-10-19 10:19:00,66.2,0.0,29.93,SSE,167,2.9,9.2,0,0.00,,---,0.00,VWS V14.00,2013-10-19 14:19:00,
2013-10-19 10:20:00,66.8,0.0,29.93,SSW,198,3.1,7.4,0,0.00,,---,0.00,VWS V14.00,2013-10-19 14:20:00,
2013-10-19 10:21:00,67.0,0.0,29.93,SSW,197,2.9,7.4,0,0.00,,---,0.00,VWS V14.00,2013-10-19 14:21:00,
2013-10-19 10:22:00,66.4,0.0,29.93,SSW,202,5.3,7.4,0,0.00,,---,0.00,VWS V14.00,2013-10-19 14:22:00,
2013-10-19 10:23:00,65.7,0.0,29.93,SSW,207,4.2,7.4,0,0.00,,---,0.00,VWS V14.00,2013-10-19 14:23:00,
2013-10-19 10:24:00,65.2,0.0,29.92,SW,221,9.3,9.3,0,0.00,,---,0.00,VWS V14.00,2013-10-19 14:24:00,
2013-10-19 10:25:00,65.0,0.0,29.92,SSE,165,4.7,9.8,0,0.00,,---,0.00,VWS V14.00,2013-10-19 14:25:00,
2013-10-19 10:26:00,65.2,0.0,29.92,SW,215,0.0,9.8,0,0.00,,---,0.00,VWS V14.00,2013-10-19 14:26:00,
2013-10-19 10:27:00,65.7,0.0,29.92,SW,222,8.1,9.8,0,0.00,,---,0.00,VWS V14.00,2013-10-19 14:27:00,
2013-10-19 10:28:00,65.6,0.0,29.92,SW,224,7.0,9.8,0,0.00,,---,0.00,VWS V14.00,2013-10-19 14:28:00,
2013-10-19 10:29:00,65.3,0.0,29.92,SW,232,0.0,9.8,0,0.00,,---,0.00,VWS V14.00,2013-10-19 14:29:00,
2013-10-19 10:30:00,66.1,0.0,29.92,SW,232,3.5,8.9,0,0.00,,---,0.00,VWS V14.00,2013-10-19 14:30:00,
2013-10-19 10:31:00,66.7,0.0,29.92,WSW,238,6.5,8.9,0,0.00,,---,0.00,VWS V14.00,2013-10-19 14:31:00,
2013-10-19 10:32:00,66.3,0.0,29.92,SSW,210,5.2,8.9,0,0.00,,---,0.00,VWS V14.00,2013-10-19 14:32:00,
2013-10-19 10:33:00,67.0,0.0,29.92,South,191,3.2,8.9,0,0.00,,---,0.00,VWS V14.00,2013-10-19 14:33:00,
2013-10-19 10:34:00,67.0,0.0,29.92,South,191,0.0,8.9,0,0.00,,---,0.00,VWS V14.00,2013-10-19 14:34:00,
2013-10-19 10:35:00,66.9,0.0,29.92,SW,224,4.5,9.3,0,0.00,,---,0.00,VWS V14.00,2013-10-19 14:35:00,
2013-10-19 10:36:00,66.7,0.0,29.92,South,183,4.6,9.3,0,0.00,,---,0.00,VWS V14.00,2013-10-19 14:36:00,
2013-10-19 10:37:00,66.8,0.0,29.92,South,188,0.0,9.3,0,0.00,,---,0.00,VWS V14.00,2013-10-19 14:37:00,
2013-10-19 10:38:00,67.2,0.0,29.92,SW,219,5.5,9.3,0,0.00,,---,0.00,VWS V14.00,2013-10-19 14:38:00,
2013-10-19 10:39:00,67.2,0.0,29.92,SW,222,4.4,9.3,0,0.00,,---,0.00,VWS V14.00,2013-10-19 14:39:00,
2013-10-19 10:40:00,67.1,0.0,29.92,SW,228,3.2,7.5,0,0.00,,---,0.00,VWS V14.00,2013-10-19 14:40:00,
2013-10-19 10:41:00,67.7,0.0,29.92,SW,214,6.2,7.5,0,0.00,,---,0.00,VWS V14.00,2013-10-19 14:41:00,
2013-10-19 10:42:00,67.2,0.0,29.92,SSW,208,0.0,7.5,0,0.00,,---,0.00,VWS V14.00,2013-10-19 14:42:00,
2013-10-19 10:43:00,67.2,0.0,29.92,SW,219,3.0,7.5,0,0.00,,---,0.00,VWS V14.00,2013-10-19 14:43:00,
2013-10-19 10:44:00,67.7,0.0,29.92,SSW,205,4.6,7.5,0,0.00,,---,0.00,VWS V14.00,2013-10-19 14:44:00,
2013-10-19 10:45:00,67.0,0.0,29.92,WSW,239,3.2,7.1,0,0.00,,---,0.00,VWS V14.00,2013-10-19 14:45:00,
2013-10-19 10:46:00,67.0,0.0,29.92,SSW,201,6.2,7.1,0,0.00,,---,0.00,VWS V14.00,2013-10-19 14:46:00,
2013-10-19 10:47:00,67.1,0.0,29.92,South,176,2.5,7.1,0,0.00,,---,0.00,VWS V14.00,2013-10-19 14:47:00,
2013-10-19 10:48:00,67.4,0.0,29.92,South,176,0.0,7.1,0,0.00,,---,0.00,VWS V14.00,2013-10-19 14:48:00,
2013-10-19 10:49:00,68.3,0.0,29.92,SSW,210,3.5,7.1,0,0.00,,---,0.00,VWS V14.00,2013-10-19 14:49:00,
2013-10-19 10:50:00,68.5,0.0,29.92,SSW,210,0.0,7.1,0,0.00,,---,0.00,VWS V14.00,2013-10-19 14:50:00,
2013-10-19 10:51:00,68.2,0.0,29.92,South,169,6.3,6.6,0,0.00,,---,0.00,VWS V14.00,2013-10-19 14:51:00,
2013-10-19 10:52:00,68.0,0.0,29.92,SSE,162,0.0,6.6,0,0.00,,---,0.00,VWS V14.00,2013-10-19 14:52:00,
2013-10-19 10:53:00,68.2,0.0,29.92,SW,217,6.2,6.6,0,0.00,,---,0.00,VWS V14.00,2013-10-19 14:53:00,
2013-10-19 10:54:00,67.9,0.0,29.92,SW,222,5.1,6.6,0,0.00,,---,0.00,VWS V14.00,2013-10-19 14:54:00,
2013-10-19 10:55:00,67.7,0.0,29.92,South,180,4.7,8.4,0,0.00,,---,0.00,VWS V14.00,2013-10-19 14:55:00,
2013-10-19 10:56:00,68.1,0.0,29.92,SW,226,5.9,8.4,0,0.00,,---,0.00,VWS V14.00,2013-10-19 14:56:00,
2013-10-19 10:57:00,68.2,0.0,29.92,South,190,4.4,8.4,0,0.00,,---,0.00,VWS V14.00,2013-10-19 14:57:00,
2013-10-19 10:58:00,67.9,0.0,29.92,SSW,208,3.2,8.4,0,0.00,,---,0.00,VWS V14.00,2013-10-19 14:58:00,
2013-10-19 10:59:00,67.4,0.0,29.92,South,180,3.0,8.4,0,0.00,,---,0.00,VWS V14.00,2013-10-19 14:59:00,
2013-10-19 11:00:00,67.8,0.0,29.92,South,173,3.2,9.9,0,0.00,,---,0.00,VWS V14.00,2013-10-19 15:00:00,
2013-10-19 11:01:00,67.9,0.0,29.92,SSW,210,4.6,9.9,0,0.00,,---,0.00,VWS V14.00,2013-10-19 15:01:00,
2013-10-19 11:02:00,67.7,0.0,29.92,SSW,204,5.1,9.9,0,0.00,,---,0.00,VWS V14.00,2013-10-19 15:02:00,
2013-10-19 11:03:00,67.6,0.0,29.92,SSE,158,2.4,9.9,0,0.00,,---,0.00,VWS V14.00,2013-10-19 15:03:00,
2013-10-19 11:04:00,67.5,0.0,29.92,South,174,6.1,9.9,0,0.00,,---,0.00,VWS V14.00,2013-10-19 15:04:00,
2013-10-19 11:05:00,67.9,0.0,29.92,WSW,249,2.5,8.6,0,0.00,,---,0.00,VWS V14.00,2013-10-19 15:05:00,
2013-10-19 11:06:00,68.5,0.0,29.91,SW,224,2.9,8.6,0,0.00,,---,0.00,VWS V14.00,2013-10-19 15:06:00,
2013-10-19 11:07:00,68.6,0.0,29.91,South,172,4.4,8.6,0,0.00,,---,0.00,VWS V14.00,2013-10-19 15:07:00,
2013-10-19 11:08:00,69.7,0.0,29.91,SW,222,0.0,8.6,0,0.00,,---,0.00,VWS V14.00,2013-10-19 15:08:00,
2013-10-19 11:09:00,69.4,0.0,29.91,South,180,0.0,8.6,0,0.00,,---,0.00,VWS V14.00,2013-10-19 15:09:00,
2013-10-19 11:10:00,69.4,0.0,29.91,South,180,0.0,7.5,0,0.00,,---,0.00,VWS V14.00,2013-10-19 15:10:00,
2013-10-19 11:11:00,68.9,0.0,29.91,South,172,3.5,7.5,0,0.00,,---,0.00,VWS V14.00,2013-10-19 15:11:00,
2013-10-19 11:12:00,68.3,0.0,29.91,SSW,201,6.0,7.5,0,0.00,,---,0.00,VWS V14.00,2013-10-19 15:12:00,
2013-10-19 11:13:00,68.8,0.0,29.91,South,191,3.5,7.5,0,0.00,,---,0.00,VWS V14.00,2013-10-19 15:13:00,
2013-10-19 11:14:00,69.2,0.0,29.91,SSW,205,0.0,7.5,0,0.00,,---,0.00,VWS V14.00,2013-10-19 15:14:00,
2013-10-19 11:15:00,68.4,0.0,29.91,South,187,2.3,8.6,0,0.00,,---,0.00,VWS V14.00,2013-10-19 15:15:00,
2013-10-19 11:16:00,67.5,0.0,29.91,SSE,156,0.0,8.6,0,0.00,,---,0.00,VWS V14.00,2013-10-19 15:16:00,
2013-10-19 11:17:00,67.8,0.0,29.91,SSE,156,0.0,8.6,0,0.00,,---,0.00,VWS V14.00,2013-10-19 15:17:00,
2013-10-19 11:18:00,67.9,0.0,29.91,South,172,0.0,8.6,0,0.00,,---,0.00,VWS V14.00,2013-10-19 15:18:00,
2013-10-19 11:19:00,69.1,0.0,29.90,South,172,0.0,8.6,0,0.00,,---,0.00,VWS V14.00,2013-10-19 15:19:00,
2013-10-19 11:20:00,69.5,0.0,29.90,SSE,167,0.0,3.5,0,0.00,,---,0.00,VWS V14.00,2013-10-19 15:20:00,
2013-10-19 11:21:00,69.4,0.0,29.90,SSE,167,0.0,3.5,0,0.00,,---,0.00,VWS V14.00,2013-10-19 15:21:00,
2013-10-19 11:22:00,69.3,0.0,29.90,SSE,167,0.0,3.5,0,0.00,,---,0.00,VWS V14.00,2013-10-19 15:22:00,
2013-10-19 11:23:00,69.6,0.0,29.90,SSE,167,0.0,3.5,0,0.00,,---,0.00,VWS V14.00,2013-10-19 15:23:00,
2013-10-19 11:24:00,69.9,0.0,29.90,SSE,167,0.0,3.5,0,0.00,,---,0.00,VWS V14.00,2013-10-19 15:24:00,
2013-10-19 11:25:00,69.8,0.0,29.90,South,176,3.5,4.2,0,0.00,,---,0.00,VWS V14.00,2013-10-19 15:25:00,
2013-10-19 11:26:00,68.5,0.0,29.90,SSE,163,4.2,4.2,0,0.00,,---,0.00,VWS V14.00,2013-10-19 15:26:00,
2013-10-19 11:27:00,68.3,0.0,29.90,SSE,148,0.0,4.2,0,0.00,,---,0.00,VWS V14.00,2013-10-19 15:27:00,
2013-10-19 11:28:00,68.4,0.0,29.90,SSE,148,0.0,4.2,0,0.00,,---,0.00,VWS V14.00,2013-10-19 15:28:00,
2013-10-19 11:29:00,68.3,0.0,29.90,SSE,148,0.0,4.2,0,0.00,,---,0.00,VWS V14.00,2013-10-19 15:29:00,
2013-10-19 11:30:00,68.8,0.0,29.90,South,170,0.0,5.1,0,0.00,,---,0.00,VWS V14.00,2013-10-19 15:30:00,
2013-10-19 11:31:00,68.6,0.0,29.90,SSW,200,3.1,5.1,0,0.00,,---,0.00,VWS V14.00,2013-10-19 15:31:00,
2013-10-19 11:32:00,68.0,0.0,29.90,SSW,211,2.2,5.1,0,0.00,,---,0.00,VWS V14.00,2013-10-19 15:32:00,
2013-10-19 11:33:00,67.3,0.0,29.90,SSW,211,0.0,5.1,0,0.00,,---,0.00,VWS V14.00,2013-10-19 15:33:00,
2013-10-19 11:34:00,67.1,0.0,29.90,SE,146,0.0,5.1,0,0.00,,---,0.00,VWS V14.00,2013-10-19 15:34:00,
2013-10-19 11:35:00,67.1,0.0,29.90,South,173,3.4,5.2,0,0.00,,---,0.00,VWS V14.00,2013-10-19 15:35:00,
2013-10-19 11:36:00,67.1,0.0,29.90,SSE,160,4.5,5.2,0,0.00,,---,0.00,VWS V14.00,2013-10-19 15:36:00,
2013-10-19 11:37:00,66.9,0.0,29.90,SSE,149,0.0,5.2,0,0.00,,---,0.00,VWS V14.00,2013-10-19 15:37:00,
2013-10-19 11:38:00,67.1,0.0,29.90,SSW,194,0.0,5.2,0,0.00,,---,0.00,VWS V14.00,2013-10-19 15:38:00,
2013-10-19 11:39:00,67.4,0.0,29.90,SSW,200,2.3,5.2,0,0.00,,---,0.00,VWS V14.00,2013-10-19 15:39:00,
2013-10-19 11:40:00,67.7,0.0,29.90,SSE,163,7.3,7.3,0,0.00,,---,0.00,VWS V14.00,2013-10-19 15:40:00,
2013-10-19 11:41:00,67.8,0.0,29.90,South,187,3.0,6.3,0,0.00,,---,0.00,VWS V14.00,2013-10-19 15:41:00,
2013-10-19 11:42:00,67.8,0.0,29.90,SSE,156,9.3,9.3,0,0.00,,---,0.00,VWS V14.00,2013-10-19 15:42:00,
2013-10-19 11:43:00,65.7,0.0,29.90,South,172,4.6,6.3,0,0.00,,---,0.00,VWS V14.00,2013-10-19 15:43:00,
2013-10-19 11:44:00,65.4,0.0,29.90,SSE,149,3.2,6.3,0,0.00,,---,0.00,VWS V14.00,2013-10-19 15:44:00,
2013-10-19 11:45:00,65.3,0.0,29.90,SSE,153,7.7,9.7,0,0.00,,---,0.00,VWS V14.00,2013-10-19 15:45:00,
2013-10-19 11:46:00,65.3,0.0,29.90,SE,134,5.7,9.7,0,0.00,,---,0.00,VWS V14.00,2013-10-19 15:46:00,
2013-10-19 11:47:00,65.4,0.0,29.90,South,169,3.4,9.7,0,0.00,,---,0.00,VWS V14.00,2013-10-19 15:47:00,
2013-10-19 11:48:00,65.6,0.0,29.89,SSE,160,7.2,9.7,0,0.00,,---,0.00,VWS V14.00,2013-10-19 15:48:00,
2013-10-19 11:49:00,65.5,0.0,29.89,ESE,121,4.8,9.7,0,0.00,,---,0.00,VWS V14.00,2013-10-19 15:49:00,
2013-10-19 11:50:00,65.9,0.0,29.89,ESE,104,0.0,9.7,0,0.00,,---,0.00,VWS V14.00,2013-10-19 15:50:00,
2013-10-19 11:51:00,66.3,0.0,29.89,ESE,104,0.0,10.1,0,0.00,,---,0.00,VWS V14.00,2013-10-19 15:51:00,
2013-10-19 11:52:00,67.0,0.0,29.89,ESE,104,0.0,10.1,0,0.00,,---,0.00,VWS V14.00,2013-10-19 15:52:00,
2013-10-19 11:53:00,66.6,0.0,29.89,SSE,158,4.4,10.1,0,0.00,,---,0.00,VWS V14.00,2013-10-19 15:53:00,
2013-10-19 11:54:00,66.4,0.0,29.89,South,177,0.0,10.1,0,0.00,,---,0.00,VWS V14.00,2013-10-19 15:54:00,
2013-10-19 11:55:00,66.4,0.0,29.89,SSE,163,3.4,10.1,0,0.00,,---,0.00,VWS V14.00,2013-10-19 15:55:00,
2013-10-19 11:56:00,66.1,0.0,29.89,SE,146,0.0,5.3,0,0.00,,---,0.00,VWS V14.00,2013-10-19 15:56:00,
2013-10-19 11:57:00,66.7,0.0,29.89,SE,136,3.4,5.3,0,0.00,,---,0.00,VWS V14.00,2013-10-19 15:57:00,
2013-10-19 11:58:00,66.2,0.0,29.89,South,177,0.0,5.3,0,0.00,,---,0.00,VWS V14.00,2013-10-19 15:58:00,
2013-10-19 11:59:00,67.0,0.0,29.89,South,177,0.0,5.3,0,0.00,,---,0.00,VWS V14.00,2013-10-19 15:59:00,
2013-10-19 12:00:00,67.8,0.0,29.89,SSW,210,5.5,7.1,0,0.00,,---,0.00,VWS V14.00,2013-10-19 16:00:00,
2013-10-19 12:01:00,69.0,0.0,29.88,South,174,6.8,7.1,0,0.00,,---,0.00,VWS V14.00,2013-10-19 16:01:00,
2013-10-19 12:02:00,68.0,0.0,29.88,SW,215,0.0,7.1,0,0.00,,---,0.00,VWS V14.00,2013-10-19 16:02:00,
2013-10-19 12:03:00,67.8,0.0,29.88,SSE,167,6.0,7.1,0,0.00,,---,0.00,VWS V14.00,2013-10-19 16:03:00,
2013-10-19 12:04:00,66.7,0.0,29.88,SSE,149,0.0,7.1,0,0.00,,---,0.00,VWS V14.00,2013-10-19 16:04:00,
2013-10-19 12:05:00,66.7,0.0,29.88,South,173,5.7,9.0,0,0.00,,---,0.00,VWS V14.00,2013-10-19 16:05:00,
2013-10-19 12:06:00,66.9,0.0,29.88,SW,226,4.5,9.0,0,0.00,,---,0.00,VWS V14.00,2013-10-19 16:06:00,
2013-10-19 12:07:00,67.3,0.0,29.88,SSE,152,0.0,9.0,0,0.00,,---,0.00,VWS V14.00,2013-10-19 16:07:00,
2013-10-19 12:08:00,67.8,0.0,29.88,SSE,158,0.0,9.0,0,0.00,,---,0.00,VWS V14.00,2013-10-19 16:08:00,
2013-10-19 12:09:00,68.4,0.0,29.88,SSE,153,0.0,9.0,0,0.00,,---,0.00,VWS V14.00,2013-10-19 16:09:00,
2013-10-19 12:10:00,68.7,0.0,29.88,ESE,120,0.0,8.3,0,0.00,,---,0.00,VWS V14.00,2013-10-19 16:10:00,
2013-10-19 12:11:00,69.4,0.0,29.88,SSE,167,0.0,8.3,0,0.00,,---,0.00,VWS V14.00,2013-10-19 16:11:00,
2013-10-19 12:12:00,69.4,0.0,29.88,SE,135,3.3,8.3,0,0.00,,---,0.00,VWS V14.00,2013-10-19 16:12:00,
2013-10-19 12:13:00,69.4,0.0,29.88,South,177,0.0,8.3,0,0.00,,---,0.00,VWS V14.00,2013-10-19 16:13:00,
2013-10-19 12:14:00,68.5,0.0,29.88,South,174,0.0,8.3,0,0.00,,---,0.00,VWS V14.00,2013-10-19 16:14:00,
2013-10-19 12:15:00,68.1,0.0,29.88,SSW,200,1.9,5.9,0,0.00,,---,0.00,VWS V14.00,2013-10-19 16:15:00,
2013-10-19 12:16:00,68.2,0.0,29.88,South,186,0.0,5.9,0,0.00,,---,0.00,VWS V14.00,2013-10-19 16:16:00,
2013-10-19 12:17:00,68.1,0.0,29.88,SSE,155,1.9,5.9,0,0.00,,---,0.00,VWS V14.00,2013-10-19 16:17:00,
2013-10-19 12:18:00,68.5,0.0,29.88,SSE,155,0.0,5.9,0,0.00,,---,0.00,VWS V14.00,2013-10-19 16:18:00,
2013-10-19 12:19:00,68.4,0.0,29.87,SSE,155,0.0,5.9,0,0.00,,---,0.00,VWS V14.00,2013-10-19 16:19:00,
2013-10-19 12:20:00,68.7,0.0,29.87,SSE,155,0.0,5.7,0,0.00,,---,0.00,VWS V14.00,2013-10-19 16:20:00,
2013-10-19 12:21:00,69.6,0.0,29.87,SSE,155,0.0,5.7,0,0.00,,---,0.00,VWS V14.00,2013-10-19 16:21:00,
2013-10-19 12:22:00,70.7,0.0,29.87,SSW,197,3.2,5.7,0,0.00,,---,0.00,VWS V14.00,2013-10-19 16:22:00,
2013-10-19 12:23:00,70.6,0.0,29.87,South,169,3.0,5.7,0,0.00,,---,0.00,VWS V14.00,2013-10-19 16:23:00,
2013-10-19 12:24:00,71.0,0.0,29.87,South,180,0.0,5.7,0,0.00,,---,0.00,VWS V14.00,2013-10-19 16:24:00,
2013-10-19 12:25:00,71.0,0.0,29.87,South,180,3.0,5.8,0,0.00,,---,0.00,VWS V14.00,2013-10-19 16:25:00,
2013-10-19 12:26:00,70.8,0.0,29.87,South,190,3.4,5.8,0,0.00,,---,0.00,VWS V14.00,2013-10-19 16:26:00,
2013-10-19 12:27:00,70.6,0.0,29.87,WSW,238,4.3,5.8,0,0.00,,---,0.00,VWS V14.00,2013-10-19 16:27:00,
2013-10-19 12:28:00,70.7,0.0,29.87,SW,226,6.6,6.6,0,0.00,,---,0.00,VWS V14.00,2013-10-19 16:28:00,
2013-10-19 12:29:00,69.8,0.0,29.87,SSW,194,0.0,5.8,0,0.00,,---,0.00,VWS V14.00,2013-10-19 16:29:00,
2013-10-19 12:30:00,69.6,0.0,29.87,SW,233,6.0,8.8,0,0.00,,---,0.00,VWS V14.00,2013-10-19 16:30:00,
2013-10-19 12:31:00,69.7,0.0,29.87,SW,233,3.5,8.8,0,0.00,,---,0.00,VWS V14.00,2013-10-19 16:31:00,
2013-10-19 12:32:00,70.3,0.0,29.87,SW,228,5.4,8.8,0,0.00,,---,0.00,VWS V14.00,2013-10-19 16:32:00,
2013-10-19 12:33:00,69.7,0.0,29.87,WSW,246,5.0,8.8,0,0.00,,---,0.00,VWS V14.00,2013-10-19 16:33:00,
2013-10-19 12:34:00,69.3,0.0,29.87,SW,214,4.7,8.8,0,0.00,,---,0.00,VWS V14.00,2013-10-19 16:34:00,
2013-10-19 12:35:00,69.4,0.0,29.87,WSW,239,5.8,8.1,0,0.00,,---,0.00,VWS V14.00,2013-10-19 16:35:00,
2013-10-19 12:36:00,69.6,0.0,29.87,SW,226,4.8,8.1,0,0.00,,---,0.00,VWS V14.00,2013-10-19 16:36:00,
2013-10-19 12:37:00,69.8,0.0,29.87,South,172,0.0,8.1,0,0.00,,---,0.00,VWS V14.00,2013-10-19 16:37:00,
2013-10-19 12:38:00,70.2,0.0,29.87,SSE,150,2.6,8.1,0,0.00,,---,0.00,VWS V14.00,2013-10-19 16:38:00,
2013-10-19 12:39:00,70.1,0.0,29.87,SSE,150,0.0,8.1,0,0.00,,---,0.00,VWS V14.00,2013-10-19 16:39:00,
2013-10-19 12:40:00,69.3,0.0,29.87,SSE,163,0.0,7.2,0,0.00,,---,0.00,VWS V14.00,2013-10-19 16:40:00,
2013-10-19 12:41:00,68.8,0.0,29.87,SSE,163,0.0,7.2,0,0.00,,---,0.00,VWS V14.00,2013-10-19 16:41:00,
2013-10-19 12:42:00,69.6,0.0,29.86,SSE,163,0.0,7.2,0,0.00,,---,0.00,VWS V14.00,2013-10-19 16:42:00,
2013-10-19 12:43:00,69.5,0.0,29.86,SSE,163,0.0,7.2,0,0.00,,---,0.00,VWS V14.00,2013-10-19 16:43:00,
2013-10-19 12:44:00,69.9,0.0,29.86,SSE,163,0.0,7.2,0,0.00,,---,0.00,VWS V14.00,2013-10-19 16:44:00,
2013-10-19 12:45:00,69.7,0.0,29.86,SW,221,3.5,5.3,0,0.00,,---,0.00,VWS V14.00,2013-10-19 16:45:00,
2013-10-19 12:46:00,69.8,0.0,29.86,SW,221,0.0,5.3,0,0.00,,---,0.00,VWS V14.00,2013-10-19 16:46:00,
2013-10-19 12:47:00,69.8,0.0,29.86,South,181,3.4,5.3,0,0.00,,---,0.00,VWS V14.00,2013-10-19 16:47:00,
2013-10-19 12:48:00,69.6,0.0,29.86,SSE,167,0.0,5.3,0,0.00,,---,0.00,VWS V14.00,2013-10-19 16:48:00,
2013-10-19 12:49:00,69.8,0.0,29.86,SSE,166,2.5,5.3,0,0.00,,---,0.00,VWS V14.00,2013-10-19 16:49:00,
2013-10-19 12:50:00,69.2,0.0,29.86,South,172,0.0,9.5,0,0.00,,---,0.00,VWS V14.00,2013-10-19 16:50:00,
2013-10-19 12:51:00,70.1,0.0,29.86,SSE,162,2.6,9.5,0,0.00,,---,0.00,VWS V14.00,2013-10-19 16:51:00,
2013-10-19 12:52:00,70.1,0.0,29.86,SSE,162,0.0,9.5,0,0.00,,---,0.00,VWS V14.00,2013-10-19 16:52:00,
2013-10-19 12:53:00,70.1,0.0,29.86,SSW,212,6.5,9.5,0,0.00,,---,0.00,VWS V14.00,2013-10-19 16:53:00,
2013-10-19 12:54:00,70.1,0.0,29.86,South,186,0.0,9.5,0,0.00,,---,0.00,VWS V14.00,2013-10-19 16:54:00,
2013-10-19 12:55:00,70.7,0.0,29.86,SSE,166,0.0,9.5,0,0.00,,---,0.00,VWS V14.00,2013-10-19 16:55:00,
2013-10-19 12:56:00,70.2,0.0,29.85,SE,146,0.0,7.1,0,0.00,,---,0.00,VWS V14.00,2013-10-19 16:56:00,
2013-10-19 12:57:00,69.1,0.0,29.85,SE,146,0.0,7.1,0,0.00,,---,0.00,VWS V14.00,2013-10-19 16:57:00,
2013-10-19 12:58:00,67.6,0.0,29.85,SSE,166,7.5,7.5,0,0.00,,---,0.00,VWS V14.00,2013-10-19 16:58:00,
2013-10-19 12:59:00,66.8,0.0,29.86,South,184,6.6,7.1,0,0.00,,---,0.00,VWS V14.00,2013-10-19 16:59:00,
2013-10-19 13:00:00,65.9,0.0,29.85,SSE,159,7.9,7.9,0,0.00,,---,0.00,VWS V14.00,2013-10-19 17:00:00,
2013-10-19 13:01:00,66.2,0.0,29.86,South,173,0.0,12.1,0,0.00,,---,0.00,VWS V14.00,2013-10-19 17:01:00,
2013-10-19 13:02:00,66.1,0.0,29.85,South,174,0.0,12.1,0,0.00,,---,0.00,VWS V14.00,2013-10-19 17:02:00,
2013-10-19 13:03:00,65.6,0.0,29.85,SE,146,10.6,12.1,0,0.00,,---,0.00,VWS V14.00,2013-10-19 17:03:00,
2013-10-19 13:04:00,64.8,0.0,29.85,SSE,152,9.9,12.1,0,0.00,,---,0.00,VWS V14.00,2013-10-19 17:04:00,
2013-10-19 13:05:00,64.7,0.0,29.85,SE,139,8.9,12.6,0,0.00,,---,0.00,VWS V14.00,2013-10-19 17:05:00,
2013-10-19 13:06:00,64.2,0.0,29.85,SSE,159,11.7,12.6,0,0.00,,---,0.00,VWS V14.00,2013-10-19 17:06:00,
2013-10-19 13:07:00,64.2,0.0,29.85,SSE,155,8.0,12.6,0,0.00,,---,0.00,VWS V14.00,2013-10-19 17:07:00,
2013-10-19 13:08:00,64.4,0.0,29.85,SE,139,9.9,12.6,0,0.00,,---,0.00,VWS V14.00,2013-10-19 17:08:00,
2013-10-19 13:09:00,64.2,0.0,29.85,SSE,163,5.9,12.6,0,0.00,,---,0.00,VWS V14.00,2013-10-19 17:09:00,
2013-10-19 13:10:00,64.8,0.0,29.85,SSE,160,5.2,13.9,0,0.00,,---,0.00,VWS V14.00,2013-10-19 17:10:00,
2013-10-19 13:11:00,65.0,0.0,29.85,South,172,6.5,13.9,0,0.00,,---,0.00,VWS V14.00,2013-10-19 17:11:00,
2013-10-19 13:12:00,65.2,0.0,29.85,SSE,167,6.7,13.9,0,0.00,,---,0.00,VWS V14.00,2013-10-19 17:12:00,
2013-10-19 13:13:00,65.2,0.0,29.85,South,172,6.6,13.9,0,0.00,,---,0.00,VWS V14.00,2013-10-19 17:13:00,
2013-10-19 13:14:00,65.0,0.0,29.85,SSE,149,10.1,13.9,0,0.00,,---,0.00,VWS V14.00,2013-10-19 17:14:00,
2013-10-19 13:15:00,64.8,0.0,29.85,SSE,165,6.8,11.8,0,0.00,,---,0.00,VWS V14.00,2013-10-19 17:15:00,
2013-10-19 13:16:00,64.7,0.0,29.85,South,176,7.1,11.8,0,0.00,,---,0.00,VWS V14.00,2013-10-19 17:16:00,
2013-10-19 13:17:00,65.0,0.0,29.85,South,187,5.2,11.8,0,0.00,,---,0.00,VWS V14.00,2013-10-19 17:17:00,
2013-10-19 13:18:00,65.2,0.0,29.85,SSE,159,6.5,11.8,0,0.00,,---,0.00,VWS V14.00,2013-10-19 17:18:00,
2013-10-19 13:19:00,65.3,0.0,29.85,SSW,198,6.2,11.8,0,0.00,,---,0.00,VWS V14.00,2013-10-19 17:19:00,
2013-10-19 13:20:00,65.2,0.0,29.85,South,183,7.1,12.7,0,0.00,,---,0.00,VWS V14.00,2013-10-19 17:20:00,
2013-10-19 13:21:00,65.0,0.0,29.85,SSW,194,6.3,12.7,0,0.00,,---,0.00,VWS V14.00,2013-10-19 17:21:00,
2013-10-19 13:22:00,65.2,0.0,29.85,SSE,165,6.0,12.7,0,0.00,,---,0.00,VWS V14.00,2013-10-19 17:22:00,
2013-10-19 13:23:00,65.1,0.0,29.85,SE,134,5.5,12.7,0,0.00,,---,0.00,VWS V14.00,2013-10-19 17:23:00,
2013-10-19 13:24:00,64.9,0.0,29.85,SE,129,6.2,12.7,0,0.00,,---,0.00,VWS V14.00,2013-10-19 17:24:00,
2013-10-19 13:25:00,65.1,0.0,29.85,SSW,204,7.6,11.5,0,0.00,,---,0.00,VWS V14.00,2013-10-19 17:25:00,
2013-10-19 13:26:00,64.8,0.0,29.85,SSE,166,6.6,11.5,0,0.00,,---,0.00,VWS V14.00,2013-10-19 17:26:00,
2013-10-19 13:27:00,64.5,0.0,29.84,SSW,193,7.8,11.5,0,0.00,,---,0.00,VWS V14.00,2013-10-19 17:27:00,
2013-10-19 13:28:00,64.6,0.0,29.84,South,169,5.8,11.5,0,0.00,,---,0.00,VWS V14.00,2013-10-19 17:28:00,
2013-10-19 13:29:00,64.7,0.0,29.84,SSE,160,8.8,11.5,0,0.00,,---,0.00,VWS V14.00,2013-10-19 17:29:00,
2013-10-19 13:30:00,64.9,0.0,29.84,SSW,205,4.5,12.7,0,0.00,,---,0.00,VWS V14.00,2013-10-19 17:30:00,
2013-10-19 13:31:00,64.6,0.0,29.85,South,183,5.0,12.7,0,0.00,,---,0.00,VWS V14.00,2013-10-19 17:31:00,
2013-10-19 13:32:00,65.1,0.0,29.85,South,170,6.6,12.7,0,0.00,,---,0.00,VWS V14.00,2013-10-19 17:32:00,
2013-10-19 13:33:00,64.9,0.0,29.85,South,183,3.5,12.7,0,0.00,,---,0.00,VWS V14.00,2013-10-19 17:33:00,
2013-10-19 13:34:00,65.4,0.0,29.85,SSW,195,7.5,12.7,0,0.00,,---,0.00,VWS V14.00,2013-10-19 17:34:00,
2013-10-19 13:35:00,66.1,0.0,29.85,WSW,242,4.4,9.6,0,0.00,,---,0.00,VWS V14.00,2013-10-19 17:35:00,
2013-10-19 13:36:00,67.0,0.0,29.85,SSE,155,3.2,9.6,0,0.00,,---,0.00,VWS V14.00,2013-10-19 17:36:00,
2013-10-19 13:37:00,66.8,0.0,29.85,South,187,5.2,9.6,0,0.00,,---,0.00,VWS V14.00,2013-10-19 17:37:00,
2013-10-19 13:38:00,65.9,0.0,29.85,South,169,3.0,9.6,0,0.00,,---,0.00,VWS V14.00,2013-10-19 17:38:00,
2013-10-19 13:39:00,65.4,0.0,29.85,SSE,162,4.8,9.6,0,0.00,,---,0.00,VWS V14.00,2013-10-19 17:39:00,
2013-10-19 13:40:00,64.8,0.0,29.85,South,173,5.3,8.1,0,0.00,,---,0.00,VWS V14.00,2013-10-19 17:40:00,
2013-10-19 13:41:00,64.9,0.0,29.85,SSE,158,5.2,8.1,0,0.00,,---,0.00,VWS V14.00,2013-10-19 17:41:00,
2013-10-19 13:42:00,64.8,0.0,29.85,SE,136,6.3,8.1,0,0.00,,---,0.00,VWS V14.00,2013-10-19 17:42:00,
2013-10-19 13:43:00,64.7,0.0,29.85,South,190,4.3,8.1,0,0.00,,---,0.00,VWS V14.00,2013-10-19 17:43:00,
2013-10-19 13:44:00,64.6,0.0,29.85,SE,146,6.7,8.1,0,0.00,,---,0.00,VWS V14.00,2013-10-19 17:44:00,
2013-10-19 13:45:00,64.0,0.0,29.85,SSW,207,4.7,10.9,0,0.00,,---,0.00,VWS V14.00,2013-10-19 17:45:00,
2013-10-19 13:46:00,64.0,0.0,29.85,South,176,6.4,10.9,0,0.00,,---,0.00,VWS V14.00,2013-10-19 17:46:00,
2013-10-19 13:47:00,64.1,0.0,29.85,South,190,8.0,10.9,0,0.00,,---,0.00,VWS V14.00,2013-10-19 17:47:00,
2013-10-19 13:48:00,64.2,0.0,29.85,SSE,149,6.3,10.9,0,0.00,,---,0.00,VWS V14.00,2013-10-19 17:48:00,
2013-10-19 13:49:00,64.3,0.0,29.85,SSE,166,6.0,10.9,0,0.00,,---,0.00,VWS V14.00,2013-10-19 17:49:00,
2013-10-19 13:50:00,64.6,0.0,29.85,South,180,6.6,11.3,0,0.00,,---,0.00,VWS V14.00,2013-10-19 17:50:00,
2013-10-19 13:51:00,64.6,0.0,29.85,South,170,7.2,11.3,0,0.00,,---,0.00,VWS V14.00,2013-10-19 17:51:00,
2013-10-19 13:52:00,64.4,0.0,29.85,SSE,160,6.9,11.3,0,0.00,,---,0.00,VWS V14.00,2013-10-19 17:52:00,
2013-10-19 13:53:00,64.7,0.0,29.85,SSW,193,6.8,11.3,0,0.00,,---,0.00,VWS V14.00,2013-10-19 17:53:00,
2013-10-19 13:54:00,64.8,0.0,29.85,SSE,160,5.0,11.3,0,0.00,,---,0.00,VWS V14.00,2013-10-19 17:54:00,
2013-10-19 13:55:00,64.8,0.0,29.85,SSW,210,5.8,10.3,0,0.00,,---,0.00,VWS V14.00,2013-10-19 17:55:00,
2013-10-19 13:56:00,64.8,0.0,29.86,South,184,7.9,10.3,0,0.00,,---,0.00,VWS V14.00,2013-10-19 17:56:00,
2013-10-19 13:57:00,64.6,0.0,29.86,SSW,202,4.3,10.3,0,0.00,,---,0.00,VWS V14.00,2013-10-19 17:57:00,
2013-10-19 13:58:00,64.5,0.0,29.85,SSE,162,6.8,10.3,0,0.00,,---,0.00,VWS V14.00,2013-10-19 17:58:00,
2013-10-19 13:59:00,64.3,0.0,29.85,South,169,3.5,10.3,0,0.00,,---,0.00,VWS V14.00,2013-10-19 17:59:00,
2013-10-19 14:00:00,64.1,0.0,29.85,SSE,153,6.8,10.3,0,0.00,,---,0.00,VWS V14.00,2013-10-19 18:00:00,
2013-10-19 14:01:00,63.9,0.0,29.85,SSE,165,4.7,10.6,0,0.00,,---,0.00,VWS V14.00,2013-10-19 18:01:00,
2013-10-19 14:02:00,63.9,0.0,29.85,South,170,7.9,10.6,0,0.00,,---,0.00,VWS V14.00,2013-10-19 18:02:00,
2013-10-19 14:03:00,63.7,0.0,29.84,South,169,8.7,10.6,0,0.00,,---,0.00,VWS V14.00,2013-10-19 18:03:00,
2013-10-19 14:04:00,63.5,0.0,29.84,South,177,6.7,10.6,0,0.00,,---,0.00,VWS V14.00,2013-10-19 18:04:00,
2013-10-19 14:05:00,63.4,0.0,29.84,SSW,197,7.6,11.6,0,0.00,,---,0.00,VWS V14.00,2013-10-19 18:05:00,
2013-10-19 14:06:00,63.5,0.0,29.84,SSE,166,7.7,11.6,0,0.00,,---,0.00,VWS V14.00,2013-10-19 18:06:00,
2013-10-19 14:07:00,63.7,0.0,29.84,SSW,207,5.8,11.6,0,0.00,,---,0.00,VWS V14.00,2013-10-19 18:07:00,
2013-10-19 14:08:00,63.7,0.0,29.84,SSE,162,5.7,11.6,0,0.00,,---,0.00,VWS V14.00,2013-10-19 18:08:00,
2013-10-19 14:09:00,63.5,0.0,29.84,South,184,7.8,11.6,0,0.00,,---,0.00,VWS V14.00,2013-10-19 18:09:00,
2013-10-19 14:10:00,63.6,0.0,29.84,ESE,112,7.1,12.6,0,0.00,,---,0.00,VWS V14.00,2013-10-19 18:10:00,
2013-10-19 14:11:00,63.8,0.0,29.84,South,184,4.8,12.6,0,0.00,,---,0.00,VWS V14.00,2013-10-19 18:11:00,
2013-10-19 14:12:00,63.9,0.0,29.84,SSE,162,5.0,12.6,0,0.00,,---,0.00,VWS V14.00,2013-10-19 18:12:00,
2013-10-19 14:13:00,63.8,0.0,29.84,South,190,5.7,12.6,0,0.00,,---,0.00,VWS V14.00,2013-10-19 18:13:00,
2013-10-19 14:14:00,63.8,0.0,29.84,SSE,163,5.0,12.6,0,0.00,,---,0.00,VWS V14.00,2013-10-19 18:14:00,
2013-10-19 14:15:00,63.6,0.0,29.84,SSE,167,6.8,12.8,0,0.00,,---,0.00,VWS V14.00,2013-10-19 18:15:00,
2013-10-19 14:16:00,63.5,0.0,29.84,SSW,198,7.8,12.8,0,0.00,,---,0.00,VWS V14.00,2013-10-19 18:16:00,
2013-10-19 14:17:00,63.5,0.0,29.84,South,174,7.8,12.8,0,0.00,,---,0.00,VWS V14.00,2013-10-19 18:17:00,
2013-10-19 14:18:00,63.7,0.0,29.84,SSE,156,8.1,12.8,0,0.00,,---,0.00,VWS V14.00,2013-10-19 18:18:00,
2013-10-19 14:19:00,63.5,0.0,29.84,SSW,205,4.5,12.8,0,0.00,,---,0.00,VWS V14.00,2013-10-19 18:19:00,
2013-10-19 14:20:00,63.3,0.0,29.84,South,187,7.0,15.0,0,0.00,,---,0.00,VWS V14.00,2013-10-19 18:20:00,
2013-10-19 14:21:00,63.1,0.0,29.84,South,184,0.0,15.0,0,0.00,,---,0.00,VWS V14.00,2013-10-19 18:21:00,
2013-10-19 14:22:00,63.1,0.0,29.84,SSW,201,7.2,15.0,0,0.00,,---,0.00,VWS V14.00,2013-10-19 18:22:00,
2013-10-19 14:23:00,63.1,0.0,29.84,SSE,153,7.8,15.0,0,0.00,,---,0.00,VWS V14.00,2013-10-19 18:23:00,
2013-10-19 14:24:00,63.1,0.0,29.84,South,176,5.3,15.0,0,0.00,,---,0.00,VWS V14.00,2013-10-19 18:24:00,
2013-10-19 14:25:00,63.1,0.0,29.84,SSW,195,7.3,11.8,0,0.00,,---,0.00,VWS V14.00,2013-10-19 18:25:00,
2013-10-19 14:26:00,62.9,0.0,29.84,South,179,6.2,11.8,0,0.00,,---,0.00,VWS V14.00,2013-10-19 18:26:00,
2013-10-19 14:27:00,62.6,0.0,29.84,SSE,149,9.6,11.8,0,0.00,,---,0.00,VWS V14.00,2013-10-19 18:27:00,
2013-10-19 14:28:00,62.5,0.0,29.84,South,170,6.0,11.8,0,0.00,,---,0.00,VWS V14.00,2013-10-19 18:28:00,
2013-10-19 14:29:00,62.5,0.0,29.84,South,179,9.6,11.8,0,0.00,,---,0.00,VWS V14.00,2013-10-19 18:29:00,
2013-10-19 14:30:00,62.5,0.0,29.84,SSW,212,6.3,12.6,0,0.00,,---,0.00,VWS V14.00,2013-10-19 18:30:00,
2013-10-19 14:31:00,62.5,0.0,29.84,SSE,148,7.1,12.6,0,0.00,,---,0.00,VWS V14.00,2013-10-19 18:31:00,
2013-10-19 14:32:00,62.4,0.0,29.84,SSW,194,7.1,12.6,0,0.00,,---,0.00,VWS V14.00,2013-10-19 18:32:00,
2013-10-19 14:33:00,62.3,0.0,29.84,South,177,6.1,12.6,0,0.00,,---,0.00,VWS V14.00,2013-10-19 18:33:00,
2013-10-19 14:34:00,62.2,0.0,29.84,South,186,7.5,12.6,0,0.00,,---,0.00,VWS V14.00,2013-10-19 18:34:00,
2013-10-19 14:35:00,62.1,0.0,29.84,SSE,156,7.1,12.2,0,0.00,,---,0.00,VWS V14.00,2013-10-19 18:35:00,
2013-10-19 14:36:00,61.9,0.0,29.84,SSE,163,7.7,12.2,0,0.00,,---,0.00,VWS V14.00,2013-10-19 18:36:00,
2013-10-19 14:37:00,62.0,0.0,29.84,South,187,6.9,12.2,0,0.00,,---,0.00,VWS V14.00,2013-10-19 18:37:00,
2013-10-19 14:38:00,61.9,0.0,29.84,SSE,162,7.2,12.2,0,0.00,,---,0.00,VWS V14.00,2013-10-19 18:38:00,
2013-10-19 14:39:00,61.9,0.0,29.84,SSW,197,5.2,12.2,0,0.00,,---,0.00,VWS V14.00,2013-10-19 18:39:00,
2013-10-19 14:40:00,61.8,0.0,29.84,South,184,6.0,12.7,0,0.00,,---,0.00,VWS V14.00,2013-10-19 18:40:00,
2013-10-19 14:41:00,61.7,0.0,29.84,SSW,208,5.6,12.7,0,0.00,,---,0.00,VWS V14.00,2013-10-19 18:41:00,
2013-10-19 14:42:00,61.5,0.0,29.84,South,183,8.6,12.7,0,0.00,,---,0.00,VWS V14.00,2013-10-19 18:42:00,
2013-10-19 14:43:00,61.8,0.0,29.84,SSW,205,6.0,12.7,0,0.00,,---,0.00,VWS V14.00,2013-10-19 18:43:00,
2013-10-19 14:44:00,61.7,0.0,29.84,South,179,5.3,12.7,0,0.00,,---,0.00,VWS V14.00,2013-10-19 18:44:00,
2013-10-19 14:45:00,61.7,0.0,29.84,SSW,210,6.2,11.7,0,0.00,,---,0.00,VWS V14.00,2013-10-19 18:45:00,
2013-10-19 14:46:00,61.6,0.0,29.84,South,187,3.5,11.7,0,0.00,,---,0.00,VWS V14.00,2013-10-19 18:46:00,
2013-10-19 14:47:00,61.6,0.0,29.84,South,176,6.5,11.7,0,0.00,,---,0.00,VWS V14.00,2013-10-19 18:47:00,
2013-10-19 14:48:00,61.5,0.0,29.84,South,184,7.6,11.7,0,0.00,,---,0.00,VWS V14.00,2013-10-19 18:48:00,
2013-10-19 14:49:00,61.4,0.0,29.84,South,177,9.4,11.7,0,0.00,,---,0.00,VWS V14.00,2013-10-19 18:49:00,
2013-10-19 14:50:00,61.3,0.0,29.84,SE,142,9.7,11.4,0,0.00,,---,0.00,VWS V14.00,2013-10-19 18:50:00,
2013-10-19 14:51:00,61.2,0.0,29.84,SSE,167,6.3,11.4,0,0.00,,---,0.00,VWS V14.00,2013-10-19 18:51:00,
2013-10-19 14:52:00,61.2,0.0,29.84,SSE,152,5.8,11.4,0,0.00,,---,0.00,VWS V14.00,2013-10-19 18:52:00,
2013-10-19 14:53:00,61.4,0.0,29.84,South,186,6.3,11.4,0,0.00,,---,0.00,VWS V14.00,2013-10-19 18:53:00,
2013-10-19 14:54:00,61.3,0.0,29.83,South,179,7.0,11.4,0,0.00,,---,0.00,VWS V14.00,2013-10-19 18:54:00,
2013-10-19 14:55:00,61.4,0.0,29.83,SSE,159,9.6,9.9,0,0.00,,---,0.00,VWS V14.00,2013-10-19 18:55:00,
2013-10-19 14:56:00,61.3,0.0,29.83,South,177,5.8,9.9,0,0.00,,---,0.00,VWS V14.00,2013-10-19 18:56:00,
2013-10-19 14:57:00,61.4,0.0,29.83,SW,218,7.3,9.9,0,0.00,,---,0.00,VWS V14.00,2013-10-19 18:57:00,
2013-10-19 14:58:00,61.3,0.0,29.83,SSE,156,5.9,9.9,0,0.00,,---,0.00,VWS V14.00,2013-10-19 18:58:00,
2013-10-19 14:59:00,61.2,0.0,29.83,South,172,7.3,9.9,0,0.00,,---,0.00,VWS V14.00,2013-10-19 18:59:00,
2013-10-19 15:00:00,61.2,0.0,29.83,SE,145,8.5,10.3,0,0.00,,---,0.00,VWS V14.00,2013-10-19 19:00:00,
2013-10-19 15:01:00,61.1,0.0,29.83,SE,138,10.4,10.4,0,0.00,,---,0.00,VWS V14.00,2013-10-19 19:01:00,
2013-10-19 15:02:00,60.9,0.0,29.83,SE,145,10.4,10.4,0,0.00,,---,0.00,VWS V14.00,2013-10-19 19:02:00,
2013-10-19 15:03:00,60.8,0.0,29.83,SSW,205,7.9,10.3,0,0.00,,---,0.00,VWS V14.00,2013-10-19 19:03:00,
2013-10-19 15:04:00,60.7,0.0,29.83,South,172,12.9,12.9,0,0.00,,---,0.00,VWS V14.00,2013-10-19 19:04:00,
2013-10-19 15:05:00,60.6,0.0,29.83,South,184,8.6,10.3,0,0.00,,---,0.00,VWS V14.00,2013-10-19 19:05:00,
2013-10-19 15:06:00,60.5,0.0,29.83,SSE,150,8.8,14.7,0,0.00,,---,0.00,VWS V14.00,2013-10-19 19:06:00,
2013-10-19 15:07:00,60.5,0.0,29.83,SSW,210,6.6,14.7,0,0.00,,---,0.00,VWS V14.00,2013-10-19 19:07:00,
2013-10-19 15:08:00,60.5,0.0,29.83,South,176,7.1,14.7,0,0.00,,---,0.00,VWS V14.00,2013-10-19 19:08:00,
2013-10-19 15:09:00,60.4,0.0,29.83,South,179,9.3,14.7,0,0.00,,---,0.00,VWS V14.00,2013-10-19 19:09:00,
2013-10-19 15:10:00,60.3,0.0,29.83,SSE,156,12.4,15.3,0,0.00,,---,0.00,VWS V14.00,2013-10-19 19:10:00,
2013-10-19 15:11:00,60.3,0.0,29.83,SE,135,7.8,15.3,0,0.00,,---,0.00,VWS V14.00,2013-10-19 19:11:00,
2013-10-19 15:12:00,60.2,0.0,29.83,SSW,198,6.0,15.3,0,0.00,,---,0.00,VWS V14.00,2013-10-19 19:12:00,
2013-10-19 15:13:00,60.1,0.0,29.83,SSW,205,12.8,15.3,0,0.00,,---,0.00,VWS V14.00,2013-10-19 19:13:00,
2013-10-19 15:14:00,60.1,0.0,29.83,South,187,7.8,15.3,0,0.00,,---,0.00,VWS V14.00,2013-10-19 19:14:00,
2013-10-19 15:15:00,60.1,0.0,29.83,SSE,153,12.6,15.1,0,0.00,,---,0.00,VWS V14.00,2013-10-19 19:15:00,
2013-10-19 15:16:00,60.1,0.0,29.83,South,170,9.1,15.1,0,0.00,,---,0.00,VWS V14.00,2013-10-19 19:16:00,
2013-10-19 15:17:00,60.1,0.0,29.83,SSE,149,6.5,15.1,0,0.00,,---,0.00,VWS V14.00,2013-10-19 19:17:00,
2013-10-19 15:18:00,60.0,0.0,29.83,South,169,7.1,15.1,0,0.00,,---,0.00,VWS V14.00,2013-10-19 19:18:00,
2013-10-19 15:19:00,59.9,0.0,29.83,SSE,158,8.2,15.1,0,0.00,,---,0.00,VWS V14.00,2013-10-19 19:19:00,
2013-10-19 15:20:00,60.0,0.0,29.83,SSE,166,7.6,15.0,0,0.00,,---,0.00,VWS V14.00,2013-10-19 19:20:00,
2013-10-19 15:21:00,59.9,0.0,29.83,South,173,9.4,15.0,0,0.00,,---,0.00,VWS V14.00,2013-10-19 19:21:00,
2013-10-19 15:22:00,59.9,0.0,29.83,SSE,158,8.7,15.0,0,0.00,,---,0.00,VWS V14.00,2013-10-19 19:22:00,
2013-10-19 15:23:00,59.8,0.0,29.83,SSW,202,7.0,15.0,0,0.00,,---,0.00,VWS V14.00,2013-10-19 19:23:00,
2013-10-19 15:24:00,60.0,0.0,29.83,SE,129,9.1,15.0,0,0.00,,---,0.00,VWS V14.00,2013-10-19 19:24:00,
2013-10-19 15:25:00,60.0,0.0,29.83,SSE,165,7.2,11.7,0,0.00,,---,0.00,VWS V14.00,2013-10-19 19:25:00,
2013-10-19 15:26:00,60.0,0.0,29.83,South,190,7.0,11.7,0,0.00,,---,0.00,VWS V14.00,2013-10-19 19:26:00,
2013-10-19 15:27:00,60.1,0.0,29.83,South,191,8.1,11.7,0,0.00,,---,0.00,VWS V14.00,2013-10-19 19:27:00,
2013-10-19 15:28:00,60.1,0.0,29.83,South,177,9.6,11.7,0,0.00,,---,0.00,VWS V14.00,2013-10-19 19:28:00,
2013-10-19 15:29:00,60.1,0.0,29.83,South,176,11.2,11.7,0,0.00,,---,0.00,VWS V14.00,2013-10-19 19:29:00,
2013-10-19 15:30:00,60.1,0.0,29.84,South,184,9.4,11.6,0,0.00,,---,0.00,VWS V14.00,2013-10-19 19:30:00,
2013-10-19 15:31:00,60.1,0.0,29.84,South,176,8.1,11.6,0,0.00,,---,0.00,VWS V14.00,2013-10-19 19:31:00,
2013-10-19 15:32:00,60.0,0.0,29.83,South,181,6.0,11.6,0,0.00,,---,0.00,VWS V14.00,2013-10-19 19:32:00,
2013-10-19 15:33:00,59.9,0.0,29.83,SSE,162,8.5,11.6,0,0.00,,---,0.00,VWS V14.00,2013-10-19 19:33:00,
2013-10-19 15:34:00,59.9,0.0,29.83,SSE,160,12.4,12.4,0,0.00,,---,0.00,VWS V14.00,2013-10-19 19:34:00,
2013-10-19 15:35:00,59.8,0.0,29.83,South,169,9.8,14.0,0,0.00,,---,0.00,VWS V14.00,2013-10-19 19:35:00,
2013-10-19 15:36:00,59.8,0.0,29.83,South,184,9.0,14.0,0,0.00,,---,0.00,VWS V14.00,2013-10-19 19:36:00,
2013-10-19 15:37:00,59.8,0.0,29.83,South,181,12.2,14.0,0,0.00,,---,0.00,VWS V14.00,2013-10-19 19:37:00,
2013-10-19 15:38:00,59.8,0.0,29.83,South,190,9.1,14.0,0,0.00,,---,0.00,VWS V14.00,2013-10-19 19:38:00,
2013-10-19 15:39:00,59.8,0.0,29.82,SSW,195,8.1,14.0,0,0.00,,---,0.00,VWS V14.00,2013-10-19 19:39:00,
2013-10-19 15:40:00,59.9,0.0,29.82,SSW,197,6.0,12.2,0,0.00,,---,0.00,VWS V14.00,2013-10-19 19:40:00,
2013-10-19 15:41:00,59.9,0.0,29.82,South,170,7.3,12.2,0,0.00,,---,0.00,VWS V14.00,2013-10-19 19:41:00,
2013-10-19 15:42:00,60.0,0.0,29.82,South,188,6.9,12.2,0,0.00,,---,0.00,VWS V14.00,2013-10-19 19:42:00,
2013-10-19 15:43:00,59.9,0.0,29.82,South,180,11.3,12.2,0,0.00,,---,0.00,VWS V14.00,2013-10-19 19:43:00,
2013-10-19 15:44:00,59.9,0.0,29.82,South,169,10.6,12.2,0,0.00,,---,0.00,VWS V14.00,2013-10-19 19:44:00,
2013-10-19 15:45:00,59.8,0.0,29.82,SSW,195,6.9,13.0,0,0.00,,---,0.00,VWS V14.00,2013-10-19 19:45:00,
2013-10-19 15:46:00,59.8,0.0,29.82,SSE,158,9.9,13.0,0,0.00,,---,0.00,VWS V14.00,2013-10-19 19:46:00,
2013-10-19 15:47:00,59.8,0.0,29.82,SSW,195,7.8,13.0,0,0.00,,---,0.00,VWS V14.00,2013-10-19 19:47:00,
2013-10-19 15:48:00,59.6,0.0,29.82,South,187,7.0,13.0,0,0.00,,---,0.00,VWS V14.00,2013-10-19 19:48:00,
2013-10-19 15:49:00,59.6,0.0,29.82,South,174,7.3,13.0,0,0.00,,---,0.00,VWS V14.00,2013-10-19 19:49:00,
2013-10-19 15:50:00,59.6,0.0,29.82,South,181,6.3,11.7,0,0.00,,---,0.00,VWS V14.00,2013-10-19 19:50:00,
2013-10-19 15:51:00,59.6,0.0,29.82,South,180,7.6,11.7,0,0.00,,---,0.00,VWS V14.00,2013-10-19 19:51:00,
2013-10-19 15:52:00,59.5,0.0,29.82,SSW,193,7.8,11.7,0,0.00,,---,0.00,VWS V14.00,2013-10-19 19:52:00,
2013-10-19 15:53:00,59.5,0.0,29.82,SSE,160,10.4,11.7,0,0.00,,---,0.00,VWS V14.00,2013-10-19 19:53:00,
2013-10-19 15:54:00,59.5,0.0,29.82,SSE,166,5.7,11.7,0,0.00,,---,0.00,VWS V14.00,2013-10-19 19:54:00,
2013-10-19 15:55:00,59.5,0.0,29.82,SW,214,9.5,12.3,0,0.00,,---,0.00,VWS V14.00,2013-10-19 19:55:00,
2013-10-19 15:56:00,59.5,0.0,29.82,SSW,202,7.9,12.3,0,0.00,,---,0.00,VWS V14.00,2013-10-19 19:56:00,
2013-10-19 15:57:00,59.5,0.0,29.82,South,183,6.7,12.3,0,0.00,,---,0.00,VWS V14.00,2013-10-19 19:57:00,
2013-10-19 15:58:00,59.4,0.0,29.82,SSW,202,8.8,12.3,0,0.00,,---,0.00,VWS V14.00,2013-10-19 19:58:00,
2013-10-19 15:59:00,59.4,0.0,29.82,South,176,9.9,12.3,0,0.00,,---,0.00,VWS V14.00,2013-10-19 19:59:00,
2013-10-19 16:00:00,59.5,0.0,29.82,South,183,9.2,12.1,0,0.00,,---,0.00,VWS V14.00,2013-10-19 20:00:00,
2013-10-19 16:01:00,59.5,0.0,29.82,SSW,200,8.4,12.1,0,0.00,,---,0.00,VWS V14.00,2013-10-19 20:01:00,
2013-10-19 16:02:00,59.4,0.0,29.83,South,183,8.5,12.1,0,0.00,,---,0.00,VWS V14.00,2013-10-19 20:02:00,
2013-10-19 16:03:00,59.4,0.0,29.83,SSW,200,6.3,12.1,0,0.00,,---,0.00,VWS V14.00,2013-10-19 20:03:00,
2013-10-19 16:04:00,59.4,0.0,29.82,South,181,8.8,12.1,0,0.00,,---,0.00,VWS V14.00,2013-10-19 20:04:00,
2013-10-19 16:05:00,59.4,0.0,29.82,SSW,193,8.6,12.1,0,0.00,,---,0.00,VWS V14.00,2013-10-19 20:05:00,
2013-10-19 16:06:00,59.4,0.0,29.82,SSW,194,7.5,12.2,0,0.00,,---,0.00,VWS V14.00,2013-10-19 20:06:00,
2013-10-19 16:07:00,59.4,0.0,29.82,SSW,193,6.4,12.2,0,0.00,,---,0.00,VWS V14.00,2013-10-19 20:07:00,
2013-10-19 16:08:00,59.4,0.0,29.82,SSE,158,7.8,12.2,0,0.00,,---,0.00,VWS V14.00,2013-10-19 20:08:00,
2013-10-19 16:09:00,59.3,0.0,29.82,South,173,5.3,12.2,0,0.00,,---,0.00,VWS V14.00,2013-10-19 20:09:00,
2013-10-19 16:10:00,59.3,0.0,29.82,SSW,200,5.2,12.2,0,0.00,,---,0.00,VWS V14.00,2013-10-19 20:10:00,
2013-10-19 16:11:00,59.3,0.0,29.82,South,191,8.3,11.2,0,0.00,,---,0.00,VWS V14.00,2013-10-19 20:11:00,
2013-10-19 16:12:00,59.3,0.0,29.82,SSW,200,6.9,11.2,0,0.00,,---,0.00,VWS V14.00,2013-10-19 20:12:00,
2013-10-19 16:13:00,59.3,0.0,29.82,SSE,163,6.8,11.2,0,0.00,,---,0.00,VWS V14.00,2013-10-19 20:13:00,
2013-10-19 16:14:00,59.2,0.0,29.82,South,179,8.8,11.2,0,0.00,,---,0.00,VWS V14.00,2013-10-19 20:14:00,
2013-10-19 16:15:00,59.3,0.0,29.82,South,177,5.9,11.2,0,0.00,,---,0.00,VWS V14.00,2013-10-19 20:15:00,
2013-10-19 16:16:00,59.3,0.0,29.83,SSE,162,7.2,11.2,0,0.00,,---,0.00,VWS V14.00,2013-10-19 20:16:00,
2013-10-19 16:17:00,59.3,0.0,29.83,South,184,8.7,11.2,0,0.00,,---,0.00,VWS V14.00,2013-10-19 20:17:00,
2013-10-19 16:18:00,59.3,0.0,29.83,SSW,205,6.5,11.2,0,0.00,,---,0.00,VWS V14.00,2013-10-19 20:18:00,
2013-10-19 16:19:00,59.3,0.0,29.83,South,190,7.5,11.2,0,0.00,,---,0.00,VWS V14.00,2013-10-19 20:19:00,
2013-10-19 16:20:00,59.3,0.0,29.82,South,179,6.6,12.8,0,0.00,,---,0.00,VWS V14.00,2013-10-19 20:20:00,
2013-10-19 16:21:00,59.3,0.0,29.82,SW,221,9.5,12.8,0,0.00,,---,0.00,VWS V14.00,2013-10-19 20:21:00,
2013-10-19 16:22:00,59.3,0.0,29.82,SSE,162,5.9,12.8,0,0.00,,---,0.00,VWS V14.00,2013-10-19 20:22:00,
2013-10-19 16:23:00,59.3,0.0,29.82,South,181,8.4,12.8,0,0.00,,---,0.00,VWS V14.00,2013-10-19 20:23:00,
2013-10-19 16:24:00,59.3,0.0,29.82,SSW,207,7.6,12.8,0,0.00,,---,0.00,VWS V14.00,2013-10-19 20:24:00,
2013-10-19 16:25:00,59.3,0.0,29.82,SW,222,7.1,11.2,0,0.00,,---,0.00,VWS V14.00,2013-10-19 20:25:00,
2013-10-19 16:26:00,59.3,0.0,29.82,SSE,159,6.8,11.2,0,0.00,,---,0.00,VWS V14.00,2013-10-19 20:26:00,
2013-10-19 16:27:00,59.2,0.0,29.82,SSE,159,8.1,11.2,0,0.00,,---,0.00,VWS V14.00,2013-10-19 20:27:00,
2013-10-19 16:28:00,59.2,0.0,29.82,SSW,198,6.7,11.2,0,0.00,,---,0.00,VWS V14.00,2013-10-19 20:28:00,
2013-10-19 16:29:00,59.2,0.0,29.82,SSW,198,7.2,11.2,0,0.00,,---,0.00,VWS V14.00,2013-10-19 20:29:00,
2013-10-19 16:30:00,59.2,0.0,29.82,South,176,7.1,11.3,0,0.00,,---,0.00,VWS V14.00,2013-10-19 20:30:00,
2013-10-19 16:31:00,59.2,0.0,29.82,South,172,9.1,11.3,0,0.00,,---,0.00,VWS V14.00,2013-10-19 20:31:00,
2013-10-19 16:32:00,59.2,0.0,29.82,South,188,7.2,11.3,0,0.00,,---,0.00,VWS V14.00,2013-10-19 20:32:00,
2013-10-19 16:33:00,59.1,0.0,29.82,South,186,5.9,11.3,0,0.00,,---,0.00,VWS V14.00,2013-10-19 20:33:00,
2013-10-19 16:34:00,59.1,0.0,29.82,SSE,158,6.2,11.3,0,0.00,,---,0.00,VWS V14.00,2013-10-19 20:34:00,
2013-10-19 16:35:00,59.1,0.0,29.82,South,190,5.2,11.0,0,0.00,,---,0.00,VWS V14.00,2013-10-19 20:35:00,
2013-10-19 16:36:00,59.1,0.0,29.82,SSW,210,6.0,11.0,0,0.00,,---,0.00,VWS V14.00,2013-10-19 20:36:00,
2013-10-19 16:37:00,59.1,0.0,29.82,SSE,153,5.3,11.0,0,0.00,,---,0.00,VWS V14.00,2013-10-19 20:37:00,
2013-10-19 16:38:00,59.1,0.0,29.82,SE,143,8.3,11.0,0,0.00,,---,0.00,VWS V14.00,2013-10-19 20:38:00,
2013-10-19 16:39:00,59.1,0.0,29.82,South,176,5.0,11.0,0,0.00,,---,0.00,VWS V14.00,2013-10-19 20:39:00,
2013-10-19 16:40:00,59.0,0.0,29.82,South,179,5.3,11.2,0,0.00,,---,0.00,VWS V14.00,2013-10-19 20:40:00,
2013-10-19 16:41:00,59.1,0.0,29.82,South,180,5.7,11.2,0,0.00,,---,0.00,VWS V14.00,2013-10-19 20:41:00,
2013-10-19 16:42:00,59.1,0.0,29.82,SSW,212,6.5,11.2,0,0.00,,---,0.00,VWS V14.00,2013-10-19 20:42:00,
2013-10-19 16:43:00,59.1,0.0,29.82,South,183,4.8,11.2,0,0.00,,---,0.00,VWS V14.00,2013-10-19 20:43:00,
2013-10-19 16:44:00,59.1,0.0,29.82,SSE,158,4.4,11.2,0,0.00,,---,0.00,VWS V14.00,2013-10-19 20:44:00,
2013-10-19 16:45:00,59.2,0.0,29.82,South,177,5.5,9.3,0,0.00,,---,0.00,VWS V14.00,2013-10-19 20:45:00,
2013-10-19 16:46:00,59.3,0.0,29.82,SSW,193,7.3,9.3,0,0.00,,---,0.00,VWS V14.00,2013-10-19 20:46:00,
2013-10-19 16:47:00,59.3,0.0,29.82,South,181,7.0,9.3,0,0.00,,---,0.00,VWS V14.00,2013-10-19 20:47:00,
2013-10-19 16:48:00,59.4,0.0,29.82,South,172,5.2,9.3,0,0.00,,---,0.00,VWS V14.00,2013-10-19 20:48:00,
2013-10-19 16:49:00,59.4,0.0,29.82,South,183,5.2,9.3,0,0.00,,---,0.00,VWS V14.00,2013-10-19 20:49:00,
2013-10-19 16:50:00,59.5,0.0,29.81,SSW,195,5.0,8.0,0,0.00,,---,0.00,VWS V14.00,2013-10-19 20:50:00,
2013-10-19 16:51:00,59.7,0.0,29.81,SSW,193,4.9,8.0,0,0.00,,---,0.00,VWS V14.00,2013-10-19 20:51:00,
2013-10-19 16:52:00,59.8,0.0,29.82,South,172,6.1,8.0,0,0.00,,---,0.00,VWS V14.00,2013-10-19 20:52:00,
2013-10-19 16:53:00,59.9,0.0,29.82,South,190,4.3,8.0,0,0.00,,---,0.00,VWS V14.00,2013-10-19 20:53:00,
2013-10-19 16:54:00,59.9,0.0,29.82,South,190,4.8,8.0,0,0.00,,---,0.00,VWS V14.00,2013-10-19 20:54:00,
2013-10-19 16:55:00,60.0,0.0,29.82,SSE,166,5.7,9.8,0,0.00,,---,0.00,VWS V14.00,2013-10-19 20:55:00,
2013-10-19 16:56:00,60.0,0.0,29.81,South,187,5.5,9.8,0,0.00,,---,0.00,VWS V14.00,2013-10-19 20:56:00,
2013-10-19 16:57:00,59.9,0.0,29.81,SSW,201,8.4,9.8,0,0.00,,---,0.00,VWS V14.00,2013-10-19 20:57:00,
2013-10-19 16:58:00,60.0,0.0,29.81,South,186,6.5,9.8,0,0.00,,---,0.00,VWS V14.00,2013-10-19 20:58:00,
2013-10-19 16:59:00,60.0,0.0,29.81,SW,215,6.0,9.8,0,0.00,,---,0.00,VWS V14.00,2013-10-19 20:59:00,
2013-10-19 17:00:00,60.0,0.0,29.81,SSW,205,6.7,8.9,0,0.00,,---,0.00,VWS V14.00,2013-10-19 21:00:00,
2013-10-19 17:01:00,59.9,0.0,29.81,SSW,201,5.5,8.9,0,0.00,,---,0.00,VWS V14.00,2013-10-19 21:01:00,
2013-10-19 17:02:00,59.9,0.0,29.81,South,191,6.2,8.9,0,0.00,,---,0.00,VWS V14.00,2013-10-19 21:02:00,
2013-10-19 17:03:00,60.0,0.0,29.81,SSW,195,7.7,8.9,0,0.00,,---,0.00,VWS V14.00,2013-10-19 21:03:00,
2013-10-19 17:04:00,59.9,0.0,29.81,South,180,5.5,8.9,0,0.00,,---,0.00,VWS V14.00,2013-10-19 21:04:00,
2013-10-19 17:05:00,59.9,0.0,29.81,South,181,5.8,10.3,0,0.00,,---,0.00,VWS V14.00,2013-10-19 21:05:00,
2013-10-19 17:06:00,60.0,0.0,29.81,South,176,6.3,10.3,0,0.00,,---,0.00,VWS V14.00,2013-10-19 21:06:00,
2013-10-19 17:07:00,60.2,0.0,29.82,SSW,193,4.5,10.3,0,0.00,,---,0.00,VWS V14.00,2013-10-19 21:07:00,
2013-10-19 17:08:00,60.1,0.0,29.82,SSW,204,5.3,10.3,0,0.00,,---,0.00,VWS V14.00,2013-10-19 21:08:00,
2013-10-19 17:09:00,60.1,0.0,29.82,SW,224,4.3,10.3,0,0.00,,---,0.00,VWS V14.00,2013-10-19 21:09:00,
2013-10-19 17:10:00,60.0,0.0,29.82,SSW,211,5.0,10.3,0,0.00,,---,0.00,VWS V14.00,2013-10-19 21:10:00,
2013-10-19 17:11:00,60.4,0.0,29.82,SSW,210,5.0,11.7,0,0.00,,---,0.00,VWS V14.00,2013-10-19 21:11:00,
2013-10-19 17:12:00,60.9,0.0,29.81,South,188,4.9,11.7,0,0.00,,---,0.00,VWS V14.00,2013-10-19 21:12:00,
2013-10-19 17:13:00,60.5,0.0,29.81,South,173,6.6,11.7,0,0.00,,---,0.00,VWS V14.00,2013-10-19 21:13:00,
2013-10-19 17:14:00,60.3,0.0,29.81,SSW,200,4.5,11.7,0,0.00,,---,0.00,VWS V14.00,2013-10-19 21:14:00,
2013-10-19 17:15:00,60.2,0.0,29.81,SSW,202,4.6,11.7,0,0.00,,---,0.00,VWS V14.00,2013-10-19 21:15:00,
2013-10-19 17:16:00,60.2,0.0,29.80,South,186,4.8,9.2,0,0.00,,---,0.00,VWS V14.00,2013-10-19 21:16:00,
2013-10-19 17:17:00,60.1,0.0,29.80,South,186,5.6,9.2,0,0.00,,---,0.00,VWS V14.00,2013-10-19 21:17:00,
2013-10-19 17:18:00,60.4,0.0,29.80,SW,217,4.7,9.2,0,0.00,,---,0.00,VWS V14.00,2013-10-19 21:18:00,
2013-10-19 17:19:00,60.2,0.0,29.80,South,180,5.0,9.2,0,0.00,,---,0.00,VWS V14.00,2013-10-19 21:19:00,
2013-10-19 17:20:00,60.4,0.0,29.81,South,173,4.3,6.7,0,0.00,,---,0.00,VWS V14.00,2013-10-19 21:20:00,
2013-10-19 17:21:00,60.6,0.0,29.81,SSW,198,4.3,6.7,0,0.00,,---,0.00,VWS V14.00,2013-10-19 21:21:00,
2013-10-19 17:22:00,60.5,0.0,29.81,South,183,4.2,6.7,0,0.00,,---,0.00,VWS V14.00,2013-10-19 21:22:00,
2013-10-19 17:23:00,60.7,0.0,29.81,South,183,5.7,6.7,0,0.00,,---,0.00,VWS V14.00,2013-10-19 21:23:00,
2013-10-19 17:24:00,60.8,0.0,29.81,South,190,4.6,6.7,0,0.00,,---,0.00,VWS V14.00,2013-10-19 21:24:00,
2013-10-19 17:25:00,60.8,0.0,29.81,South,186,5.8,7.4,0,0.00,,---,0.00,VWS V14.00,2013-10-19 21:25:00,
2013-10-19 17:26:00,61.1,0.0,29.81,South,176,6.3,7.4,0,0.00,,---,0.00,VWS V14.00,2013-10-19 21:26:00,
2013-10-19 17:27:00,61.5,0.0,29.81,SSW,208,6.3,7.4,0,0.00,,---,0.00,VWS V14.00,2013-10-19 21:27:00,
2013-10-19 17:28:00,61.0,0.0,29.80,South,177,4.5,7.4,0,0.00,,---,0.00,VWS V14.00,2013-10-19 21:28:00,
2013-10-19 17:29:00,60.4,0.0,29.80,SSW,198,6.5,7.4,0,0.00,,---,0.00,VWS V14.00,2013-10-19 21:29:00,
2013-10-19 17:30:00,60.4,0.0,29.81,SSW,204,5.1,8.9,0,0.00,,---,0.00,VWS V14.00,2013-10-19 21:30:00,
2013-10-19 17:31:00,60.2,0.0,29.81,SW,224,5.3,8.9,0,0.00,,---,0.00,VWS V14.00,2013-10-19 21:31:00,
2013-10-19 17:32:00,60.1,0.0,29.81,SSW,212,5.4,8.9,0,0.00,,---,0.00,VWS V14.00,2013-10-19 21:32:00,
2013-10-19 17:33:00,60.2,0.0,29.82,South,188,6.4,8.9,0,0.00,,---,0.00,VWS V14.00,2013-10-19 21:33:00,
2013-10-19 17:34:00,60.0,0.0,29.82,South,187,5.5,8.9,0,0.00,,---,0.00,VWS V14.00,2013-10-19 21:34:00,
2013-10-19 17:35:00,60.1,0.0,29.82,South,187,6.3,10.3,0,0.00,,---,0.00,VWS V14.00,2013-10-19 21:35:00,
2013-10-19 17:36:00,60.1,0.0,29.82,SSW,198,5.1,10.3,0,0.00,,---,0.00,VWS V14.00,2013-10-19 21:36:00,
2013-10-19 17:37:00,59.9,0.0,29.82,SSW,201,6.2,10.3,0,0.00,,---,0.00,VWS V14.00,2013-10-19 21:37:00,
2013-10-19 17:38:00,59.8,0.0,29.81,SSW,207,6.3,10.3,0,0.00,,---,0.00,VWS V14.00,2013-10-19 21:38:00,
2013-10-19 17:39:00,59.9,0.0,29.81,South,190,4.7,10.3,0,0.00,,---,0.00,VWS V14.00,2013-10-19 21:39:00,
2013-10-19 17:40:00,59.7,0.0,29.81,South,187,4.2,7.9,0,0.00,,---,0.00,VWS V14.00,2013-10-19 21:40:00,
2013-10-19 17:41:00,59.7,0.0,29.80,SSW,194,8.7,8.7,0,0.00,,---,0.00,VWS V14.00,2013-10-19 21:41:00,
2013-10-19 17:42:00,59.6,0.0,29.80,SSW,195,4.7,7.9,0,0.00,,---,0.00,VWS V14.00,2013-10-19 21:42:00,
2013-10-19 17:43:00,59.5,0.0,29.80,South,188,4.5,7.9,0,0.00,,---,0.00,VWS V14.00,2013-10-19 21:43:00,
2013-10-19 17:44:00,59.6,0.0,29.80,SSW,198,4.3,7.9,0,0.00,,---,0.00,VWS V14.00,2013-10-19 21:44:00,
2013-10-19 17:45:00,59.5,0.0,29.80,SSW,212,5.1,9.4,0,0.00,,---,0.00,VWS V14.00,2013-10-19 21:45:00,
2013-10-19 17:46:00,59.5,0.0,29.79,SSW,201,3.4,9.4,0,0.00,,---,0.00,VWS V14.00,2013-10-19 21:46:00,
2013-10-19 17:47:00,59.5,0.0,29.79,SSE,166,4.3,9.4,0,0.00,,---,0.00,VWS V14.00,2013-10-19 21:47:00,
2013-10-19 17:48:00,59.5,0.0,29.79,South,177,5.5,9.4,0,0.00,,---,0.00,VWS V14.00,2013-10-19 21:48:00,
2013-10-19 17:49:00,59.5,0.0,29.79,South,184,4.3,9.4,0,0.00,,---,0.00,VWS V14.00,2013-10-19 21:49:00,
2013-10-19 17:50:00,59.4,0.0,29.80,SSW,194,4.5,7.3,0,0.00,,---,0.00,VWS V14.00,2013-10-19 21:50:00,
2013-10-19 17:51:00,59.5,0.0,29.80,South,177,5.2,7.3,0,0.00,,---,0.00,VWS V14.00,2013-10-19 21:51:00,
2013-10-19 17:52:00,59.5,0.0,29.80,South,187,4.1,7.3,0,0.00,,---,0.00,VWS V14.00,2013-10-19 21:52:00,
2013-10-19 17:53:00,59.6,0.0,29.80,South,188,7.0,7.3,0,0.00,,---,0.00,VWS V14.00,2013-10-19 21:53:00,
2013-10-19 17:54:00,59.5,0.0,29.80,South,173,4.2,7.3,0,0.00,,---,0.00,VWS V14.00,2013-10-19 21:54:00,
2013-10-19 17:55:00,59.5,0.0,29.80,South,180,4.3,8.0,0,0.00,,---,0.00,VWS V14.00,2013-10-19 21:55:00,
2013-10-19 17:56:00,59.5,0.0,29.80,SSW,194,3.2,8.0,0,0.00,,---,0.00,VWS V14.00,2013-10-19 21:56:00,
2013-10-19 17:57:00,59.4,0.0,29.80,SSW,195,4.2,8.0,0,0.00,,---,0.00,VWS V14.00,2013-10-19 21:57:00,
2013-10-19 17:58:00,59.5,0.0,29.80,SSW,207,5.2,8.0,0,0.00,,---,0.00,VWS V14.00,2013-10-19 21:58:00,
2013-10-19 17:59:00,59.5,0.0,29.80,SSW,201,4.8,8.0,0,0.00,,---,0.00,VWS V14.00,2013-10-19 21:59:00,
2013-10-19 18:00:00,59.5,0.0,29.80,SSW,193,4.8,7.5,0,0.00,,---,0.00,VWS V14.00,2013-10-19 22:00:00,
2013-10-19 18:01:00,59.5,0.0,29.80,SSW,202,4.8,7.5,0,0.00,,---,0.00,VWS V14.00,2013-10-19 22:01:00,
2013-10-19 18:02:00,59.4,0.0,29.80,South,177,5.0,7.5,0,0.00,,---,0.00,VWS V14.00,2013-10-19 22:02:00,
2013-10-19 18:03:00,59.4,0.0,29.80,South,183,5.6,7.5,0,0.00,,---,0.00,VWS V14.00,2013-10-19 22:03:00,
2013-10-19 18:04:00,59.4,0.0,29.80,SSW,193,5.5,7.5,0,0.00,,---,0.00,VWS V14.00,2013-10-19 22:04:00,
2013-10-19 18:05:00,59.4,0.0,29.80,SSW,200,3.3,7.6,0,0.00,,---,0.00,VWS V14.00,2013-10-19 22:05:00,
2013-10-19 18:06:00,59.4,0.0,29.80,SW,218,5.1,7.6,0,0.00,,---,0.00,VWS V14.00,2013-10-19 22:06:00,
2013-10-19 18:07:00,59.3,0.0,29.80,South,188,3.5,7.6,0,0.00,,---,0.00,VWS V14.00,2013-10-19 22:07:00,
2013-10-19 18:08:00,59.3,0.0,29.80,South,180,3.5,7.6,0,0.00,,---,0.00,VWS V14.00,2013-10-19 22:08:00,
2013-10-19 18:09:00,59.3,0.0,29.80,South,180,5.3,7.6,0,0.00,,---,0.00,VWS V14.00,2013-10-19 22:09:00,
2013-10-19 18:10:00,59.3,0.0,29.80,SW,215,4.5,7.2,0,0.00,,---,0.00,VWS V14.00,2013-10-19 22:10:00,
2013-10-19 18:11:00,59.3,0.0,29.80,South,187,4.7,7.2,0,0.00,,---,0.00,VWS V14.00,2013-10-19 22:11:00,
2013-10-19 18:12:00,59.3,0.0,29.80,SSW,207,5.3,7.2,0,0.00,,---,0.00,VWS V14.00,2013-10-19 22:12:00,
2013-10-19 18:13:00,59.4,0.0,29.80,South,188,4.2,7.2,0,0.00,,---,0.00,VWS V14.00,2013-10-19 22:13:00,
2013-10-19 18:14:00,59.3,0.0,29.80,South,181,4.3,7.2,0,0.00,,---,0.00,VWS V14.00,2013-10-19 22:14:00,
2013-10-19 18:15:00,59.3,0.0,29.80,South,183,3.5,7.2,0,0.00,,---,0.00,VWS V14.00,2013-10-19 22:15:00,
2013-10-19 18:16:00,59.3,0.0,29.80,SSW,198,3.2,8.2,0,0.00,,---,0.00,VWS V14.00,2013-10-19 22:16:00,
2013-10-19 18:17:00,59.3,0.0,29.80,SSE,162,3.4,8.2,0,0.00,,---,0.00,VWS V14.00,2013-10-19 22:17:00,
2013-10-19 18:18:00,59.2,0.0,29.79,South,191,4.3,8.2,0,0.00,,---,0.00,VWS V14.00,2013-10-19 22:18:00,
2013-10-19 18:19:00,59.2,0.0,29.79,SW,217,6.0,8.2,0,0.00,,---,0.00,VWS V14.00,2013-10-19 22:19:00,
2013-10-19 18:20:00,59.2,0.0,29.79,South,170,4.6,9.1,0,0.00,,---,0.00,VWS V14.00,2013-10-19 22:20:00,
2013-10-19 18:21:00,59.2,0.0,29.79,South,180,4.5,9.1,0,0.00,,---,0.00,VWS V14.00,2013-10-19 22:21:00,
2013-10-19 18:22:00,59.2,0.0,29.79,SSE,165,5.6,9.1,0,0.00,,---,0.00,VWS V14.00,2013-10-19 22:22:00,
2013-10-19 18:23:00,59.2,0.0,29.79,SSW,197,4.8,9.1,0,0.00,,---,0.00,VWS V14.00,2013-10-19 22:23:00,
2013-10-19 18:24:00,59.1,0.0,29.79,SSW,201,3.4,9.1,0,0.00,,---,0.00,VWS V14.00,2013-10-19 22:24:00,
2013-10-19 18:25:00,59.2,0.0,29.79,SSW,205,3.4,7.8,0,0.00,,---,0.00,VWS V14.00,2013-10-19 22:25:00,
2013-10-19 18:26:00,59.1,0.0,29.79,SSW,198,3.4,7.8,0,0.00,,---,0.00,VWS V14.00,2013-10-19 22:26:00,
2013-10-19 18:27:00,59.1,0.0,29.79,SE,134,3.2,7.8,0,0.00,,---,0.00,VWS V14.00,2013-10-19 22:27:00,
2013-10-19 18:28:00,59.1,0.0,29.79,SSE,167,3.3,7.8,0,0.00,,---,0.00,VWS V14.00,2013-10-19 22:28:00,
2013-10-19 18:29:00,59.0,0.0,29.78,SSW,200,5.0,7.8,0,0.00,,---,0.00,VWS V14.00,2013-10-19 22:29:00,
2013-10-19 18:30:00,59.0,0.0,29.78,SSW,194,5.5,8.4,0,0.00,,---,0.00,VWS V14.00,2013-10-19 22:30:00,
2013-10-19 18:31:00,59.0,0.0,29.78,SSE,167,4.6,8.4,0,0.00,,---,0.00,VWS V14.00,2013-10-19 22:31:00,
2013-10-19 18:32:00,59.0,0.0,29.78,SSW,202,5.3,8.4,0,0.00,,---,0.00,VWS V14.00,2013-10-19 22:32:00,
2013-10-19 18:33:00,59.0,0.0,29.78,South,177,3.3,8.4,0,0.00,,---,0.00,VWS V14.00,2013-10-19 22:33:00,
2013-10-19 18:34:00,59.0,0.0,29.78,SSW,198,5.2,8.4,0,0.00,,---,0.00,VWS V14.00,2013-10-19 22:34:00,
2013-10-19 18:35:00,58.9,0.0,29.78,SSW,193,5.5,8.8,0,0.00,,---,0.00,VWS V14.00,2013-10-19 22:35:00,
2013-10-19 18:36:00,58.9,0.0,29.78,South,184,5.5,8.8,0,0.00,,---,0.00,VWS V14.00,2013-10-19 22:36:00,
2013-10-19 18:37:00,58.9,0.0,29.78,South,186,4.1,8.8,0,0.00,,---,0.00,VWS V14.00,2013-10-19 22:37:00,
2013-10-19 18:38:00,58.9,0.0,29.79,South,184,4.3,8.8,0,0.00,,---,0.00,VWS V14.00,2013-10-19 22:38:00,
2013-10-19 18:39:00,58.9,0.0,29.79,SSW,194,6.0,8.8,0,0.00,,---,0.00,VWS V14.00,2013-10-19 22:39:00,
2013-10-19 18:40:00,58.9,0.0,29.79,SW,221,5.2,9.2,0,0.00,,---,0.00,VWS V14.00,2013-10-19 22:40:00,
2013-10-19 18:41:00,59.1,0.0,29.79,SW,225,4.5,9.2,0,0.00,,---,0.00,VWS V14.00,2013-10-19 22:41:00,
2013-10-19 18:42:00,59.1,0.0,29.79,SW,232,6.8,9.2,0,0.00,,---,0.00,VWS V14.00,2013-10-19 22:42:00,
2013-10-19 18:43:00,59.0,0.0,29.79,SSW,204,4.3,9.2,0,0.00,,---,0.00,VWS V14.00,2013-10-19 22:43:00,
2013-10-19 18:44:00,58.9,0.0,29.79,South,172,3.4,9.2,0,0.00,,---,0.00,VWS V14.00,2013-10-19 22:44:00,
2013-10-19 18:45:00,58.9,0.0,29.79,South,190,4.6,8.4,0,0.00,,---,0.00,VWS V14.00,2013-10-19 22:45:00,
2013-10-19 18:46:00,58.8,0.0,29.79,SSW,211,3.5,8.4,0,0.00,,---,0.00,VWS V14.00,2013-10-19 22:46:00,
2013-10-19 18:47:00,58.7,0.0,29.79,WSW,249,4.7,8.4,0,0.00,,---,0.00,VWS V14.00,2013-10-19 22:47:00,
2013-10-19 18:48:00,58.7,0.0,29.79,SSW,197,3.3,8.4,0,0.00,,---,0.00,VWS V14.00,2013-10-19 22:48:00,
2013-10-19 18:49:00,58.5,0.0,29.79,SSW,197,3.5,8.4,0,0.00,,---,0.00,VWS V14.00,2013-10-19 22:49:00,
2013-10-19 18:50:00,58.5,0.0,29.79,SSW,200,3.5,7.4,0,0.00,,---,0.00,VWS V14.00,2013-10-19 22:50:00,
2013-10-19 18:51:00,58.4,0.0,29.79,South,183,3.4,7.4,0,0.00,,---,0.00,VWS V14.00,2013-10-19 22:51:00,
2013-10-19 18:52:00,58.4,0.0,29.79,South,169,3.0,7.4,0,0.00,,---,0.00,VWS V14.00,2013-10-19 22:52:00,
2013-10-19 18:53:00,58.4,0.0,29.79,South,176,2.9,7.4,0,0.00,,---,0.00,VWS V14.00,2013-10-19 22:53:00,
2013-10-19 18:54:00,58.4,0.0,29.79,SSE,155,0.0,7.4,0,0.00,,---,0.00,VWS V14.00,2013-10-19 22:54:00,
2013-10-19 18:55:00,58.4,0.0,29.79,South,183,0.0,5.1,0,0.00,,---,0.00,VWS V14.00,2013-10-19 22:55:00,
2013-10-19 18:56:00,58.4,0.0,29.79,South,191,2.1,5.1,0,0.00,,---,0.00,VWS V14.00,2013-10-19 22:56:00,
2013-10-19 18:57:00,58.4,0.0,29.79,South,184,0.0,5.1,0,0.00,,---,0.00,VWS V14.00,2013-10-19 22:57:00,
2013-10-19 18:58:00,58.5,0.0,29.79,South,174,0.0,5.1,0,0.00,,---,0.00,VWS V14.00,2013-10-19 22:58:00,
2013-10-19 18:59:00,58.5,0.0,29.78,South,174,0.0,5.1,0,0.00,,---,0.00,VWS V14.00,2013-10-19 22:59:00,
2013-10-19 19:00:00,58.4,0.0,29.78,South,176,2.9,6.0,0,0.00,,---,0.00,VWS V14.00,2013-10-19 23:00:00,
2013-10-19 19:01:00,58.6,0.0,29.78,South,188,4.3,6.0,0,0.00,,---,0.00,VWS V14.00,2013-10-19 23:01:00,
2013-10-19 19:02:00,58.6,0.0,29.78,SSW,193,0.0,6.0,0,0.00,,---,0.00,VWS V14.00,2013-10-19 23:02:00,
2013-10-19 19:03:00,58.6,0.0,29.78,SW,229,0.0,6.0,0,0.00,,---,0.00,VWS V14.00,2013-10-19 23:03:00,
2013-10-19 19:04:00,58.6,0.0,29.78,South,187,0.0,6.0,0,0.00,,---,0.00,VWS V14.00,2013-10-19 23:04:00,
2013-10-19 19:05:00,58.6,0.0,29.78,SSE,148,1.6,4.6,0,0.00,,---,0.00,VWS V14.00,2013-10-19 23:05:00,
2013-10-19 19:06:00,58.6,0.0,29.78,South,176,3.0,4.6,0,0.00,,---,0.00,VWS V14.00,2013-10-19 23:06:00,
2013-10-19 19:07:00,58.7,0.0,29.78,SSE,166,0.0,4.6,0,0.00,,---,0.00,VWS V14.00,2013-10-19 23:07:00,
2013-10-19 19:08:00,58.7,0.0,29.78,SSE,166,0.0,4.6,0,0.00,,---,0.00,VWS V14.00,2013-10-19 23:08:00,
2013-10-19 19:09:00,58.7,0.0,29.77,SSE,166,0.0,4.6,0,0.00,,---,0.00,VWS V14.00,2013-10-19 23:09:00,
2013-10-19 19:10:00,58.6,0.0,29.77,SSE,166,0.0,3.4,0,0.00,,---,0.00,VWS V14.00,2013-10-19 23:10:00,
2013-10-19 19:11:00,58.7,0.0,29.77,South,177,0.0,3.4,0,0.00,,---,0.00,VWS V14.00,2013-10-19 23:11:00,
2013-10-19 19:12:00,58.6,0.0,29.77,South,188,2.5,3.4,0,0.00,,---,0.00,VWS V14.00,2013-10-19 23:12:00,
2013-10-19 19:13:00,58.7,0.0,29.77,South,188,0.0,3.4,0,0.00,,---,0.00,VWS V14.00,2013-10-19 23:13:00,
2013-10-19 19:14:00,58.7,0.0,29.77,South,188,0.0,3.4,0,0.00,,---,0.00,VWS V14.00,2013-10-19 23:14:00,
2013-10-19 19:15:00,58.6,0.0,29.77,South,188,0.0,3.4,0,0.00,,---,0.00,VWS V14.00,2013-10-19 23:15:00,
2013-10-19 19:16:00,58.6,0.0,29.77,South,176,0.0,4.5,0,0.00,,---,0.00,VWS V14.00,2013-10-19 23:16:00,
2013-10-19 19:17:00,58.5,0.0,29.77,SSW,193,3.0,4.5,0,0.00,,---,0.00,VWS V14.00,2013-10-19 23:17:00,
2013-10-19 19:18:00,58.5,0.0,29.78,South,187,3.2,4.5,0,0.00,,---,0.00,VWS V14.00,2013-10-19 23:18:00,
2013-10-19 19:19:00,58.5,0.0,29.78,South,187,3.2,4.5,0,0.00,,---,0.00,VWS V14.00,2013-10-19 23:19:00,
2013-10-19 19:20:00,58.5,0.0,29.78,SSE,160,3.2,4.5,0,0.00,,---,0.00,VWS V14.00,2013-10-19 23:20:00,
2013-10-19 19:21:00,58.5,0.0,29.78,South,181,0.0,5.0,0,0.00,,---,0.00,VWS V14.00,2013-10-19 23:21:00,
2013-10-19 19:22:00,58.5,0.0,29.77,South,173,2.1,5.0,0,0.00,,---,0.00,VWS V14.00,2013-10-19 23:22:00,
2013-10-19 19:23:00,58.4,0.0,29.77,SSW,197,0.0,5.0,0,0.00,,---,0.00,VWS V14.00,2013-10-19 23:23:00,
2013-10-19 19:24:00,58.4,0.0,29.78,South,174,3.4,5.0,0,0.00,,---,0.00,VWS V14.00,2013-10-19 23:24:00,
2013-10-19 19:25:00,58.4,0.0,29.78,SSW,211,4.5,7.0,0,0.00,,---,0.00,VWS V14.00,2013-10-19 23:25:00,
2013-10-19 19:26:00,58.4,0.0,29.78,South,176,3.0,7.0,0,0.00,,---,0.00,VWS V14.00,2013-10-19 23:26:00,
2013-10-19 19:27:00,58.4,0.0,29.78,SSW,200,5.3,7.0,0,0.00,,---,0.00,VWS V14.00,2013-10-19 23:27:00,
2013-10-19 19:28:00,58.4,0.0,29.78,SSW,210,6.0,7.0,0,0.00,,---,0.00,VWS V14.00,2013-10-19 23:28:00,
2013-10-19 19:29:00,58.3,0.0,29.78,SSW,197,3.4,7.0,0,0.00,,---,0.00,VWS V14.00,2013-10-19 23:29:00,
2013-10-19 19:30:00,58.3,0.0,29.78,South,180,3.0,6.0,0,0.00,,---,0.00,VWS V14.00,2013-10-19 23:30:00,
2013-10-19 19:31:00,58.3,0.0,29.78,SSE,166,3.0,6.0,0,0.00,,---,0.00,VWS V14.00,2013-10-19 23:31:00,
2013-10-19 19:32:00,58.2,0.0,29.78,SSW,200,3.2,6.0,0,0.00,,---,0.00,VWS V14.00,2013-10-19 23:32:00,
2013-10-19 19:33:00,58.2,0.0,29.77,South,174,3.2,6.0,0,0.00,,---,0.00,VWS V14.00,2013-10-19 23:33:00,
2013-10-19 19:34:00,58.1,0.0,29.78,South,191,3.5,6.0,0,0.00,,---,0.00,VWS V14.00,2013-10-19 23:34:00,
2013-10-19 19:35:00,58.1,0.0,29.78,South,191,4.9,7.1,0,0.00,,---,0.00,VWS V14.00,2013-10-19 23:35:00,
2013-10-19 19:36:00,58.1,0.0,29.78,South,176,5.2,7.1,0,0.00,,---,0.00,VWS V14.00,2013-10-19 23:36:00,
2013-10-19 19:37:00,58.1,0.0,29.78,SSW,195,5.0,7.1,0,0.00,,---,0.00,VWS V14.00,2013-10-19 23:37:00,
2013-10-19 19:38:00,58.1,0.0,29.78,SSW,204,5.6,7.1,0,0.00,,---,0.00,VWS V14.00,2013-10-19 23:38:00,
2013-10-19 19:39:00,58.1,0.0,29.78,SW,214,5.7,7.1,0,0.00,,---,0.00,VWS V14.00,2013-10-19 23:39:00,
2013-10-19 19:40:00,58.1,0.0,29.78,South,186,5.5,9.7,0,0.00,,---,0.00,VWS V14.00,2013-10-19 23:40:00,
2013-10-19 19:41:00,58.1,0.0,29.78,South,181,7.0,9.7,0,0.00,,---,0.00,VWS V14.00,2013-10-19 23:41:00,
2013-10-19 19:42:00,58.1,0.0,29.78,SW,218,4.3,9.7,0,0.00,,---,0.00,VWS V14.00,2013-10-19 23:42:00,
2013-10-19 19:43:00,58.1,0.0,29.78,SSW,195,4.7,9.7,0,0.00,,---,0.00,VWS V14.00,2013-10-19 23:43:00,
2013-10-19 19:44:00,58.0,0.0,29.78,SSW,205,6.0,9.7,0,0.00,,---,0.00,VWS V14.00,2013-10-19 23:44:00,
2013-10-19 19:45:00,58.0,0.0,29.78,SSW,197,7.0,8.7,0,0.00,,---,0.00,VWS V14.00,2013-10-19 23:45:00,
2013-10-19 19:46:00,58.0,0.0,29.78,South,187,4.5,8.7,0,0.00,,---,0.00,VWS V14.00,2013-10-19 23:46:00,
2013-10-19 19:47:00,58.0,0.0,29.78,South,169,5.7,8.7,0,0.00,,---,0.00,VWS V14.00,2013-10-19 23:47:00,
2013-10-19 19:48:00,58.0,0.0,29.78,SSW,212,6.0,8.7,0,0.00,,---,0.00,VWS V14.00,2013-10-19 23:48:00,
2013-10-19 19:49:00,58.0,0.0,29.79,SSE,167,4.6,8.7,0,0.00,,---,0.00,VWS V14.00,2013-10-19 23:49:00,
2013-10-19 19:50:00,57.9,0.0,29.79,South,183,3.2,7.1,0,0.00,,---,0.00,VWS V14.00,2013-10-19 23:50:00,
2013-10-19 19:51:00,57.9,0.0,29.79,South,176,4.3,7.1,0,0.00,,---,0.00,VWS V14.00,2013-10-19 23:51:00,
2013-10-19 19:52:00,57.9,0.0,29.79,SSW,211,4.2,7.1,0,0.00,,---,0.00,VWS V14.00,2013-10-19 23:52:00,
2013-10-19 19:53:00,57.9,0.0,29.79,South,179,4.8,7.1,0,0.00,,---,0.00,VWS V14.00,2013-10-19 23:53:00,
2013-10-19 19:54:00,57.9,0.0,29.79,SSW,208,3.5,7.1,0,0.00,,---,0.00,VWS V14.00,2013-10-19 23:54:00,
2013-10-19 19:55:00,57.9,0.0,29.79,SSW,197,3.4,6.7,0,0.00,,---,0.00,VWS V14.00,2013-10-19 23:55:00,
2013-10-19 19:56:00,57.9,0.0,29.79,SSW,194,7.8,7.8,0,0.00,,---,0.00,VWS V14.00,2013-10-19 23:56:00,
2013-10-19 19:57:00,57.9,0.0,29.79,South,190,5.2,6.7,0,0.00,,---,0.00,VWS V14.00,2013-10-19 23:57:00,
2013-10-19 19:58:00,57.9,0.0,29.79,SSW,200,4.9,6.7,0,0.00,,---,0.00,VWS V14.00,2013-10-19 23:58:00,
2013-10-19 19:59:00,57.9,0.0,29.78,South,184,4.3,6.7,0,0.00,,---,0.00,VWS V14.00,2013-10-19 23:59:00,
2013-10-19 20:00:00,57.9,0.0,29.78,SSW,207,4.3,8.7,0,0.00,,---,0.00,VWS V14.00,2013-10-20 00:00:00,
2013-10-19 20:01:00,57.9,0.0,29.78,South,190,5.8,8.7,0,0.00,,---,0.00,VWS V14.00,2013-10-20 00:01:00,
2013-10-19 20:02:00,57.9,0.0,29.78,SW,214,5.7,8.7,0,0.00,,---,0.00,VWS V14.00,2013-10-20 00:02:00,
2013-10-19 20:03:00,57.9,0.0,29.77,SSW,201,4.1,8.7,0,0.00,,---,0.00,VWS V14.00,2013-10-20 00:03:00,
2013-10-19 20:04:00,57.9,0.0,29.77,South,181,5.1,8.7,0,0.00,,---,0.00,VWS V14.00,2013-10-20 00:04:00,
2013-10-19 20:05:00,58.0,0.0,29.77,SSW,197,6.2,9.3,0,0.00,,---,0.00,VWS V14.00,2013-10-20 00:05:00,
2013-10-19 20:06:00,58.0,0.0,29.77,South,174,5.2,9.3,0,0.00,,---,0.00,VWS V14.00,2013-10-20 00:06:00,
2013-10-19 20:07:00,58.0,0.0,29.76,SSW,207,4.5,9.3,0,0.00,,---,0.00,VWS V14.00,2013-10-20 00:07:00,
2013-10-19 20:08:00,58.0,0.0,29.77,SSW,194,6.5,9.3,0,0.00,,---,0.00,VWS V14.00,2013-10-20 00:08:00,
2013-10-19 20:09:00,58.0,0.0,29.77,SW,233,7.3,9.3,0,0.00,,---,0.00,VWS V14.00,2013-10-20 00:09:00,
2013-10-19 20:10:00,58.0,0.0,29.77,SSW,205,4.8,9.4,0,0.00,,---,0.00,VWS V14.00,2013-10-20 00:10:00,
2013-10-19 20:11:00,58.0,0.0,29.78,SSW,198,5.7,9.4,0,0.00,,---,0.00,VWS V14.00,2013-10-20 00:11:00,
2013-10-19 20:12:00,58.1,0.0,29.78,South,172,6.1,9.4,0,0.00,,---,0.00,VWS V14.00,2013-10-20 00:12:00,
2013-10-19 20:13:00,58.1,0.0,29.78,SSW,201,5.5,9.4,0,0.00,,---,0.00,VWS V14.00,2013-10-20 00:13:00,
2013-10-19 20:14:00,58.1,0.0,29.78,SW,229,6.7,9.4,0,0.00,,---,0.00,VWS V14.00,2013-10-20 00:14:00,
2013-10-19 20:15:00,58.1,0.0,29.79,South,186,4.9,9.9,0,0.00,,---,0.00,VWS V14.00,2013-10-20 00:15:00,
2013-10-19 20:16:00,58.1,0.0,29.78,SW,225,6.3,9.9,0,0.00,,---,0.00,VWS V14.00,2013-10-20 00:16:00,
2013-10-19 20:17:00,58.1,0.0,29.78,South,180,8.3,9.9,0,0.00,,---,0.00,VWS V14.00,2013-10-20 00:17:00,
2013-10-19 20:18:00,58.1,0.0,29.79,SSW,205,5.7,9.9,0,0.00,,---,0.00,VWS V14.00,2013-10-20 00:18:00,
2013-10-19 20:19:00,58.0,0.0,29.78,South,170,7.0,9.9,0,0.00,,---,0.00,VWS V14.00,2013-10-20 00:19:00,
2013-10-19 20:20:00,58.0,0.0,29.78,SSW,201,5.1,9.9,0,0.00,,---,0.00,VWS V14.00,2013-10-20 00:20:00,
2013-10-19 20:21:00,58.0,0.0,29.78,South,186,6.0,11.9,0,0.00,,---,0.00,VWS V14.00,2013-10-20 00:21:00,
2013-10-19 20:22:00,57.9,0.0,29.78,South,181,8.8,11.9,0,0.00,,---,0.00,VWS V14.00,2013-10-20 00:22:00,
2013-10-19 20:23:00,57.8,0.0,29.77,SSE,156,7.5,11.9,0,0.00,,---,0.00,VWS V14.00,2013-10-20 00:23:00,
2013-10-19 20:24:00,57.8,0.0,29.77,South,170,4.7,11.9,0,0.00,,---,0.00,VWS V14.00,2013-10-20 00:24:00,
2013-10-19 20:25:00,57.7,0.0,29.77,SW,215,5.0,11.9,0,0.00,,---,0.00,VWS V14.00,2013-10-20 00:25:00,
2013-10-19 20:26:00,57.4,0.0,29.77,SSW,211,7.1,10.9,0,0.00,,---,0.00,VWS V14.00,2013-10-20 00:26:00,
2013-10-19 20:27:00,57.3,0.0,29.77,SSW,197,6.6,10.9,0,0.00,,---,0.00,VWS V14.00,2013-10-20 00:27:00,
2013-10-19 20:28:00,57.2,0.0,29.77,SSE,162,6.6,10.9,0,0.00,,---,0.00,VWS V14.00,2013-10-20 00:28:00,
2013-10-19 20:29:00,57.3,0.0,29.77,SSE,167,6.6,10.9,0,0.00,,---,0.00,VWS V14.00,2013-10-20 00:29:00,
2013-10-19 20:30:00,57.2,0.0,29.77,SSW,193,5.2,9.9,0,0.00,,---,0.00,VWS V14.00,2013-10-20 00:30:00,
2013-10-19 20:31:00,57.2,0.0,29.77,South,173,5.7,9.9,0,0.00,,---,0.00,VWS V14.00,2013-10-20 00:31:00,
2013-10-19 20:32:00,57.1,0.0,29.77,SSE,162,5.8,9.9,0,0.00,,---,0.00,VWS V14.00,2013-10-20 00:32:00,
2013-10-19 20:33:00,57.1,0.0,29.77,South,176,6.0,9.9,0,0.00,,---,0.00,VWS V14.00,2013-10-20 00:33:00,
2013-10-19 20:34:00,57.1,0.0,29.77,SSW,200,3.4,9.9,0,0.00,,---,0.00,VWS V14.00,2013-10-20 00:34:00,
2013-10-19 20:35:00,57.1,0.0,29.77,SW,225,5.5,9.1,0,0.00,,---,0.00,VWS V14.00,2013-10-20 00:35:00,
2013-10-19 20:36:00,57.1,0.0,29.77,South,172,5.2,9.1,0,0.00,,---,0.00,VWS V14.00,2013-10-20 00:36:00,
2013-10-19 20:37:00,57.0,0.0,29.77,South,179,7.7,9.1,0,0.00,,---,0.00,VWS V14.00,2013-10-20 00:37:00,
2013-10-19 20:38:00,57.0,0.0,29.76,South,187,3.5,9.1,0,0.00,,---,0.00,VWS V14.00,2013-10-20 00:38:00,
2013-10-19 20:39:00,57.0,0.0,29.76,SSW,197,4.7,9.1,0,0.00,,---,0.00,VWS V14.00,2013-10-20 00:39:00,
2013-10-19 20:40:00,57.1,0.0,29.76,South,180,3.4,11.4,0,0.00,,---,0.00,VWS V14.00,2013-10-20 00:40:00,
2013-10-19 20:41:00,57.1,0.0,29.76,SSE,158,5.3,11.4,0,0.00,,---,0.00,VWS V14.00,2013-10-20 00:41:00,
2013-10-19 20:42:00,57.1,0.0,29.76,SSW,205,5.3,11.4,0,0.00,,---,0.00,VWS V14.00,2013-10-20 00:42:00,
2013-10-19 20:43:00,57.1,0.0,29.76,South,181,5.2,11.4,0,0.00,,---,0.00,VWS V14.00,2013-10-20 00:43:00,
2013-10-19 20:44:00,57.2,0.0,29.76,SSW,200,7.6,11.4,0,0.00,,---,0.00,VWS V14.00,2013-10-20 00:44:00,
2013-10-19 20:45:00,57.1,0.0,29.76,South,179,5.2,8.6,0,0.00,,---,0.00,VWS V14.00,2013-10-20 00:45:00,
2013-10-19 20:46:00,57.1,0.0,29.76,South,172,5.6,8.6,0,0.00,,---,0.00,VWS V14.00,2013-10-20 00:46:00,
2013-10-19 20:47:00,57.1,0.0,29.75,SSW,204,6.1,8.6,0,0.00,,---,0.00,VWS V14.00,2013-10-20 00:47:00,
2013-10-19 20:48:00,57.1,0.0,29.75,South,184,4.9,8.6,0,0.00,,---,0.00,VWS V14.00,2013-10-20 00:48:00,
2013-10-19 20:49:00,57.2,0.0,29.75,South,188,6.6,8.6,0,0.00,,---,0.00,VWS V14.00,2013-10-20 00:49:00,
2013-10-19 20:50:00,57.2,0.0,29.76,South,180,6.3,10.0,0,0.00,,---,0.00,VWS V14.00,2013-10-20 00:50:00,
2013-10-19 20:51:00,57.3,0.0,29.76,SSE,162,4.8,10.0,0,0.00,,---,0.00,VWS V14.00,2013-10-20 00:51:00,
2013-10-19 20:52:00,57.2,0.0,29.76,SSW,208,5.5,10.0,0,0.00,,---,0.00,VWS V14.00,2013-10-20 00:52:00,
2013-10-19 20:53:00,57.3,0.0,29.75,South,176,7.8,10.0,0,0.00,,---,0.00,VWS V14.00,2013-10-20 00:53:00,
2013-10-19 20:54:00,57.3,0.0,29.76,SSW,210,5.3,10.0,0,0.00,,---,0.00,VWS V14.00,2013-10-20 00:54:00,
2013-10-19 20:55:00,57.3,0.0,29.76,SSW,194,4.9,10.2,0,0.00,,---,0.00,VWS V14.00,2013-10-20 00:55:00,
2013-10-19 20:56:00,57.3,0.0,29.76,South,188,7.0,10.2,0,0.00,,---,0.00,VWS V14.00,2013-10-20 00:56:00,
2013-10-19 20:57:00,57.3,0.0,29.76,South,172,5.8,10.2,0,0.00,,---,0.00,VWS V14.00,2013-10-20 00:57:00,
2013-10-19 20:58:00,57.3,0.0,29.76,South,187,5.3,10.2,0,0.00,,---,0.00,VWS V14.00,2013-10-20 00:58:00,
2013-10-19 20:59:00,57.3,0.0,29.76,SW,215,6.7,10.2,0,0.00,,---,0.00,VWS V14.00,2013-10-20 00:59:00,
2013-10-19 21:00:00,57.4,0.0,29.76,South,190,6.2,10.9,0,0.00,,---,0.00,VWS V14.00,2013-10-20 01:00:00,
2013-10-19 21:01:00,57.3,0.0,29.76,South,183,6.6,10.9,0,0.00,,---,0.00,VWS V14.00,2013-10-20 01:01:00,
2013-10-19 21:02:00,57.2,0.0,29.76,South,179,5.8,10.9,0,0.00,,---,0.00,VWS V14.00,2013-10-20 01:02:00,
2013-10-19 21:03:00,57.2,0.0,29.76,SSW,195,5.0,10.9,0,0.00,,---,0.00,VWS V14.00,2013-10-20 01:03:00,
2013-10-19 21:04:00,57.2,0.0,29.76,SW,217,6.6,10.9,0,0.00,,---,0.00,VWS V14.00,2013-10-20 01:04:00,
2013-10-19 21:05:00,57.2,0.0,29.76,SSE,158,5.5,9.9,0,0.00,,---,0.00,VWS V14.00,2013-10-20 01:05:00,
2013-10-19 21:06:00,57.2,0.0,29.76,South,179,4.6,9.9,0,0.00,,---,0.00,VWS V14.00,2013-10-20 01:06:00,
2013-10-19 21:07:00,57.2,0.0,29.76,SSW,200,6.6,9.9,0,0.00,,---,0.00,VWS V14.00,2013-10-20 01:07:00,
2013-10-19 21:08:00,57.2,0.0,29.76,South,184,5.0,9.9,0,0.00,,---,0.00,VWS V14.00,2013-10-20 01:08:00,
2013-10-19 21:09:00,57.3,0.0,29.76,SSW,197,6.8,9.9,0,0.00,,---,0.00,VWS V14.00,2013-10-20 01:09:00,
2013-10-19 21:10:00,57.3,0.0,29.76,South,187,7.1,12.0,0,0.00,,---,0.00,VWS V14.00,2013-10-20 01:10:00,
2013-10-19 21:11:00,57.3,0.0,29.76,South,188,7.0,12.0,0,0.00,,---,0.00,VWS V14.00,2013-10-20 01:11:00,
2013-10-19 21:12:00,57.3,0.0,29.76,South,191,6.3,12.0,0,0.00,,---,0.00,VWS V14.00,2013-10-20 01:12:00,
2013-10-19 21:13:00,57.3,0.0,29.76,SSW,195,6.8,12.0,0,0.00,,---,0.00,VWS V14.00,2013-10-20 01:13:00,
2013-10-19 21:14:00,57.3,0.0,29.76,SSW,208,6.9,12.0,0,0.00,,---,0.00,VWS V14.00,2013-10-20 01:14:00,
2013-10-19 21:15:00,57.3,0.0,29.76,SSE,155,9.2,10.9,0,0.00,,---,0.00,VWS V14.00,2013-10-20 01:15:00,
2013-10-19 21:16:00,57.3,0.0,29.76,SSW,210,6.1,10.9,0,0.00,,---,0.00,VWS V14.00,2013-10-20 01:16:00,
2013-10-19 21:17:00,57.3,0.0,29.76,South,188,5.5,10.9,0,0.00,,---,0.00,VWS V14.00,2013-10-20 01:17:00,
2013-10-19 21:18:00,57.3,0.0,29.76,SSW,195,6.6,10.9,0,0.00,,---,0.00,VWS V14.00,2013-10-20 01:18:00,
2013-10-19 21:19:00,57.2,0.0,29.76,South,190,6.8,10.9,0,0.00,,---,0.00,VWS V14.00,2013-10-20 01:19:00,
2013-10-19 21:20:00,57.3,0.0,29.76,SSW,195,4.7,11.4,0,0.00,,---,0.00,VWS V14.00,2013-10-20 01:20:00,
2013-10-19 21:21:00,57.2,0.0,29.76,South,190,6.0,11.4,0,0.00,,---,0.00,VWS V14.00,2013-10-20 01:21:00,
2013-10-19 21:22:00,57.2,0.0,29.75,SSE,163,5.8,11.4,0,0.00,,---,0.00,VWS V14.00,2013-10-20 01:22:00,
2013-10-19 21:23:00,57.3,0.0,29.75,SSW,210,6.6,11.4,0,0.00,,---,0.00,VWS V14.00,2013-10-20 01:23:00,
2013-10-19 21:24:00,57.2,0.0,29.75,South,169,6.0,11.4,0,0.00,,---,0.00,VWS V14.00,2013-10-20 01:24:00,
2013-10-19 21:25:00,57.3,0.0,29.75,South,187,5.8,11.4,0,0.00,,---,0.00,VWS V14.00,2013-10-20 01:25:00,
2013-10-19 21:26:00,57.2,0.0,29.76,South,184,4.8,10.0,0,0.00,,---,0.00,VWS V14.00,2013-10-20 01:26:00,
2013-10-19 21:27:00,57.2,0.0,29.75,South,186,5.7,10.0,0,0.00,,---,0.00,VWS V14.00,2013-10-20 01:27:00,
2013-10-19 21:28:00,57.3,0.0,29.75,SSE,156,6.5,10.0,0,0.00,,---,0.00,VWS V14.00,2013-10-20 01:28:00,
2013-10-19 21:29:00,57.3,0.0,29.76,South,170,5.2,10.0,0,0.00,,---,0.00,VWS V14.00,2013-10-20 01:29:00,
2013-10-19 21:30:00,57.3,0.0,29.76,SSW,204,7.7,10.3,0,0.00,,---,0.00,VWS V14.00,2013-10-20 01:30:00,
2013-10-19 21:31:00,57.2,0.0,29.76,SSW,200,4.5,10.3,0,0.00,,---,0.00,VWS V14.00,2013-10-20 01:31:00,
2013-10-19 21:32:00,57.2,0.0,29.76,SSW,211,5.7,10.3,0,0.00,,---,0.00,VWS V14.00,2013-10-20 01:32:00,
2013-10-19 21:33:00,57.2,0.0,29.76,South,187,5.9,10.3,0,0.00,,---,0.00,VWS V14.00,2013-10-20 01:33:00,
2013-10-19 21:34:00,57.2,0.0,29.76,SSW,201,5.7,10.3,0,0.00,,---,0.00,VWS V14.00,2013-10-20 01:34:00,
2013-10-19 21:35:00,57.2,0.0,29.76,SSW,193,3.4,8.7,0,0.00,,---,0.00,VWS V14.00,2013-10-20 01:35:00,
2013-10-19 21:36:00,57.2,0.0,29.76,South,181,4.4,8.7,0,0.00,,---,0.00,VWS V14.00,2013-10-20 01:36:00,
2013-10-19 21:37:00,57.2,0.0,29.76,SE,146,7.0,8.7,0,0.00,,---,0.00,VWS V14.00,2013-10-20 01:37:00,
2013-10-19 21:38:00,57.2,0.0,29.76,South,183,3.3,8.7,0,0.00,,---,0.00,VWS V14.00,2013-10-20 01:38:00,
2013-10-19 21:39:00,57.2,0.0,29.76,South,188,3.4,8.7,0,0.00,,---,0.00,VWS V14.00,2013-10-20 01:39:00,
2013-10-19 21:40:00,57.1,0.0,29.76,SSW,212,4.8,7.6,0,0.00,,---,0.00,VWS V14.00,2013-10-20 01:40:00,
2013-10-19 21:41:00,57.1,0.0,29.76,South,176,5.1,7.6,0,0.00,,---,0.00,VWS V14.00,2013-10-20 01:41:00,
2013-10-19 21:42:00,57.1,0.0,29.76,SSW,204,4.3,7.6,0,0.00,,---,0.00,VWS V14.00,2013-10-20 01:42:00,
2013-10-19 21:43:00,57.0,0.0,29.76,South,186,5.0,7.6,0,0.00,,---,0.00,VWS V14.00,2013-10-20 01:43:00,
2013-10-19 21:44:00,57.0,0.0,29.76,South,191,5.0,7.6,0,0.00,,---,0.00,VWS V14.00,2013-10-20 01:44:00,
2013-10-19 21:45:00,57.0,0.0,29.76,SSW,194,4.2,7.5,0,0.00,,---,0.00,VWS V14.00,2013-10-20 01:45:00,
2013-10-19 21:46:00,56.9,0.0,29.76,South,173,0.0,7.5,0,0.00,,---,0.00,VWS V14.00,2013-10-20 01:46:00,
2013-10-19 21:47:00,56.9,0.0,29.76,South,174,3.5,7.5,0,0.00,,---,0.00,VWS V14.00,2013-10-20 01:47:00,
2013-10-19 21:48:00,56.8,0.0,29.76,SSW,202,3.4,7.5,0,0.00,,---,0.00,VWS V14.00,2013-10-20 01:48:00,
2013-10-19 21:49:00,56.8,0.0,29.76,SSW,208,4.3,7.5,0,0.00,,---,0.00,VWS V14.00,2013-10-20 01:49:00,
2013-10-19 21:50:00,56.8,0.0,29.76,South,184,0.0,5.6,0,0.00,,---,0.00,VWS V14.00,2013-10-20 01:50:00,
2013-10-19 21:51:00,56.8,0.0,29.76,SSE,167,2.7,5.6,0,0.00,,---,0.00,VWS V14.00,2013-10-20 01:51:00,
2013-10-19 21:52:00,56.8,0.0,29.76,South,169,3.5,5.6,0,0.00,,---,0.00,VWS V14.00,2013-10-20 01:52:00,
2013-10-19 21:53:00,56.7,0.0,29.76,SW,229,3.4,5.6,0,0.00,,---,0.00,VWS V14.00,2013-10-20 01:53:00,
2013-10-19 21:54:00,56.7,0.0,29.76,SSW,201,4.7,5.6,0,0.00,,---,0.00,VWS V14.00,2013-10-20 01:54:00,
2013-10-19 21:55:00,56.7,0.0,29.76,South,170,4.5,6.2,0,0.00,,---,0.00,VWS V14.00,2013-10-20 01:55:00,
2013-10-19 21:56:00,56.7,0.0,29.75,South,179,3.2,6.2,0,0.00,,---,0.00,VWS V14.00,2013-10-20 01:56:00,
2013-10-19 21:57:00,56.7,0.0,29.75,South,191,3.2,6.2,0,0.00,,---,0.00,VWS V14.00,2013-10-20 01:57:00,
2013-10-19 21:58:00,56.7,0.0,29.75,SSW,201,6.2,6.2,0,0.00,,---,0.00,VWS V14.00,2013-10-20 01:58:00,
2013-10-19 21:59:00,56.8,0.0,29.75,SW,217,5.7,6.2,0,0.00,,---,0.00,VWS V14.00,2013-10-20 01:59:00,
2013-10-19 22:00:00,56.8,0.0,29.75,SSW,211,6.0,8.0,0,0.00,,---,0.00,VWS V14.00,2013-10-20 02:00:00,
2013-10-19 22:01:00,56.8,0.0,29.75,South,176,6.5,8.0,0,0.00,,---,0.00,VWS V14.00,2013-10-20 02:01:00,
2013-10-19 22:02:00,56.9,0.0,29.75,South,188,3.5,8.0,0,0.00,,---,0.00,VWS V14.00,2013-10-20 02:02:00,
2013-10-19 22:03:00,56.8,0.0,29.75,SSW,202,4.9,8.0,0,0.00,,---,0.00,VWS V14.00,2013-10-20 02:03:00,
2013-10-19 22:04:00,56.8,0.0,29.75,South,179,5.6,8.0,0,0.00,,---,0.00,VWS V14.00,2013-10-20 02:04:00,
2013-10-19 22:05:00,56.8,0.0,29.75,South,183,5.4,8.6,0,0.00,,---,0.00,VWS V14.00,2013-10-20 02:05:00,
2013-10-19 22:06:00,56.9,0.0,29.75,South,190,4.6,8.6,0,0.00,,---,0.00,VWS V14.00,2013-10-20 02:06:00,
2013-10-19 22:07:00,56.9,0.0,29.75,South,191,5.3,8.6,0,0.00,,---,0.00,VWS V14.00,2013-10-20 02:07:00,
2013-10-19 22:08:00,56.9,0.0,29.75,SSW,194,4.3,8.6,0,0.00,,---,0.00,VWS V14.00,2013-10-20 02:08:00,
2013-10-19 22:09:00,57.0,0.0,29.75,SSW,195,4.8,8.6,0,0.00,,---,0.00,VWS V14.00,2013-10-20 02:09:00,
2013-10-19 22:10:00,57.0,0.0,29.75,SW,215,7.0,10.3,0,0.00,,---,0.00,VWS V14.00,2013-10-20 02:10:00,
2013-10-19 22:11:00,56.9,0.0,29.75,SSW,197,6.1,10.3,0,0.00,,---,0.00,VWS V14.00,2013-10-20 02:11:00,
2013-10-19 22:12:00,57.0,0.0,29.75,SSW,198,5.2,10.3,0,0.00,,---,0.00,VWS V14.00,2013-10-20 02:12:00,
2013-10-19 22:13:00,57.0,0.0,29.75,South,170,6.1,10.3,0,0.00,,---,0.00,VWS V14.00,2013-10-20 02:13:00,
2013-10-19 22:14:00,57.0,0.0,29.75,South,184,5.3,10.3,0,0.00,,---,0.00,VWS V14.00,2013-10-20 02:14:00,
2013-10-19 22:15:00,57.0,0.0,29.74,South,174,5.4,9.6,0,0.00,,---,0.00,VWS V14.00,2013-10-20 02:15:00,
2013-10-19 22:16:00,57.0,0.0,29.75,South,180,4.6,9.6,0,0.00,,---,0.00,VWS V14.00,2013-10-20 02:16:00,
2013-10-19 22:17:00,57.0,0.0,29.74,SSW,194,4.7,9.6,0,0.00,,---,0.00,VWS V14.00,2013-10-20 02:17:00,
2013-10-19 22:18:00,57.0,0.0,29.75,SSE,163,6.8,9.6,0,0.00,,---,0.00,VWS V14.00,2013-10-20 02:18:00,
2013-10-19 22:19:00,57.0,0.0,29.74,South,184,5.2,9.6,0,0.00,,---,0.00,VWS V14.00,2013-10-20 02:19:00,
2013-10-19 22:20:00,56.9,0.0,29.75,South,187,4.7,10.8,0,0.00,,---,0.00,VWS V14.00,2013-10-20 02:20:00,
2013-10-19 22:21:00,56.9,0.0,29.75,SSW,205,3.0,10.8,0,0.00,,---,0.00,VWS V14.00,2013-10-20 02:21:00,
2013-10-19 22:22:00,56.9,0.0,29.75,SSE,166,3.4,10.8,0,0.00,,---,0.00,VWS V14.00,2013-10-20 02:22:00,
2013-10-19 22:23:00,56.9,0.0,29.75,SSW,197,3.2,10.8,0,0.00,,---,0.00,VWS V14.00,2013-10-20 02:23:00,
2013-10-19 22:24:00,56.9,0.0,29.75,South,187,4.3,10.8,0,0.00,,---,0.00,VWS V14.00,2013-10-20 02:24:00,
2013-10-19 22:25:00,56.9,0.0,29.74,South,190,6.1,9.1,0,0.00,,---,0.00,VWS V14.00,2013-10-20 02:25:00,
2013-10-19 22:26:00,56.9,0.0,29.74,SSW,198,3.4,9.1,0,0.00,,---,0.00,VWS V14.00,2013-10-20 02:26:00,
2013-10-19 22:27:00,56.9,0.0,29.74,South,188,3.4,9.1,0,0.00,,---,0.00,VWS V14.00,2013-10-20 02:27:00,
2013-10-19 22:28:00,56.9,0.0,29.74,SSW,193,3.4,9.1,0,0.00,,---,0.00,VWS V14.00,2013-10-20 02:28:00,
2013-10-19 22:29:00,56.9,0.0,29.74,SSW,202,4.2,9.1,0,0.00,,---,0.00,VWS V14.00,2013-10-20 02:29:00,
2013-10-19 22:30:00,56.8,0.0,29.74,South,190,3.3,9.1,0,0.00,,---,0.00,VWS V14.00,2013-10-20 02:30:00,
2013-10-19 22:31:00,56.8,0.0,29.74,South,191,4.7,7.8,0,0.00,,---,0.00,VWS V14.00,2013-10-20 02:31:00,
2013-10-19 22:32:00,56.8,0.0,29.74,South,172,2.9,7.8,0,0.00,,---,0.00,VWS V14.00,2013-10-20 02:32:00,
2013-10-19 22:33:00,56.8,0.0,29.74,SW,226,4.3,7.8,0,0.00,,---,0.00,VWS V14.00,2013-10-20 02:33:00,
2013-10-19 22:34:00,56.8,0.0,29.74,South,184,3.5,7.8,0,0.00,,---,0.00,VWS V14.00,2013-10-20 02:34:00,
2013-10-19 22:35:00,56.8,0.0,29.74,South,177,3.3,8.4,0,0.00,,---,0.00,VWS V14.00,2013-10-20 02:35:00,
2013-10-19 22:36:00,56.7,0.0,29.74,SSW,193,2.9,8.4,0,0.00,,---,0.00,VWS V14.00,2013-10-20 02:36:00,
2013-10-19 22:37:00,56.8,0.0,29.74,South,190,4.7,8.4,0,0.00,,---,0.00,VWS V14.00,2013-10-20 02:37:00,
2013-10-19 22:38:00,56.7,0.0,29.74,SSW,197,4.5,8.4,0,0.00,,---,0.00,VWS V14.00,2013-10-20 02:38:00,
2013-10-19 22:39:00,56.7,0.0,29.74,South,186,4.5,8.4,0,0.00,,---,0.00,VWS V14.00,2013-10-20 02:39:00,
2013-10-19 22:40:00,56.7,0.0,29.74,SSW,207,4.8,8.9,0,0.00,,---,0.00,VWS V14.00,2013-10-20 02:40:00,
2013-10-19 22:41:00,56.7,0.0,29.74,South,173,3.5,8.9,0,0.00,,---,0.00,VWS V14.00,2013-10-20 02:41:00,
2013-10-19 22:42:00,56.7,0.0,29.74,SSW,195,4.2,8.9,0,0.00,,---,0.00,VWS V14.00,2013-10-20 02:42:00,
2013-10-19 22:43:00,56.7,0.0,29.74,South,191,4.4,8.9,0,0.00,,---,0.00,VWS V14.00,2013-10-20 02:43:00,
2013-10-19 22:44:00,56.7,0.0,29.74,South,183,3.3,8.9,0,0.00,,---,0.00,VWS V14.00,2013-10-20 02:44:00,
2013-10-19 22:45:00,56.7,0.0,29.74,SSW,208,6.6,6.6,0,0.00,,---,0.00,VWS V14.00,2013-10-20 02:45:00,
2013-10-19 22:46:00,56.7,0.0,29.74,SSW,205,4.2,6.5,0,0.00,,---,0.00,VWS V14.00,2013-10-20 02:46:00,
2013-10-19 22:47:00,56.7,0.0,29.74,South,183,3.5,6.5,0,0.00,,---,0.00,VWS V14.00,2013-10-20 02:47:00,
2013-10-19 22:48:00,56.7,0.0,29.74,SSW,198,3.4,6.5,0,0.00,,---,0.00,VWS V14.00,2013-10-20 02:48:00,
2013-10-19 22:49:00,56.7,0.0,29.74,South,179,3.5,6.5,0,0.00,,---,0.00,VWS V14.00,2013-10-20 02:49:00,
2013-10-19 22:50:00,56.7,0.0,29.74,South,191,3.4,6.6,0,0.00,,---,0.00,VWS V14.00,2013-10-20 02:50:00,
2013-10-19 22:51:00,56.7,0.0,29.74,South,172,0.0,6.6,0,0.00,,---,0.00,VWS V14.00,2013-10-20 02:51:00,
2013-10-19 22:52:00,56.7,0.0,29.74,South,184,3.4,6.6,0,0.00,,---,0.00,VWS V14.00,2013-10-20 02:52:00,
2013-10-19 22:53:00,56.7,0.0,29.74,SSW,195,5.4,6.6,0,0.00,,---,0.00,VWS V14.00,2013-10-20 02:53:00,
2013-10-19 22:54:00,56.6,0.0,29.74,South,183,3.4,6.6,0,0.00,,---,0.00,VWS V14.00,2013-10-20 02:54:00,
2013-10-19 22:55:00,56.6,0.0,29.74,SSW,200,4.2,5.8,0,0.00,,---,0.00,VWS V14.00,2013-10-20 02:55:00,
2013-10-19 22:56:00,56.6,0.0,29.74,South,179,0.0,5.8,0,0.00,,---,0.00,VWS V14.00,2013-10-20 02:56:00,
2013-10-19 22:57:00,56.6,0.0,29.74,SSE,163,6.0,6.0,0,0.00,,---,0.00,VWS V14.00,2013-10-20 02:57:00,
2013-10-19 22:58:00,56.6,0.0,29.74,South,187,4.7,5.8,0,0.00,,---,0.00,VWS V14.00,2013-10-20 02:58:00,
2013-10-19 22:59:00,56.6,0.0,29.74,SSW,193,4.5,5.8,0,0.00,,---,0.00,VWS V14.00,2013-10-20 02:59:00,
2013-10-19 23:00:00,56.7,0.0,29.73,SSE,163,4.5,8.8,0,0.00,,---,0.00,VWS V14.00,2013-10-20 03:00:00,
2013-10-19 23:01:00,56.7,0.0,29.73,SSW,194,4.2,8.8,0,0.00,,---,0.00,VWS V14.00,2013-10-20 03:01:00,
2013-10-19 23:02:00,56.7,0.0,29.73,SSW,204,3.5,8.8,0,0.00,,---,0.00,VWS V14.00,2013-10-20 03:02:00,
2013-10-19 23:03:00,56.7,0.0,29.73,South,177,4.2,8.8,0,0.00,,---,0.00,VWS V14.00,2013-10-20 03:03:00,
2013-10-19 23:04:00,56.7,0.0,29.73,SSW,198,4.8,8.8,0,0.00,,---,0.00,VWS V14.00,2013-10-20 03:04:00,
2013-10-19 23:05:00,56.7,0.0,29.73,South,172,6.0,8.5,0,0.00,,---,0.00,VWS V14.00,2013-10-20 03:05:00,
2013-10-19 23:06:00,56.7,0.0,29.73,South,190,5.7,8.5,0,0.00,,---,0.00,VWS V14.00,2013-10-20 03:06:00,
2013-10-19 23:07:00,56.7,0.0,29.73,SSW,193,3.3,8.5,0,0.00,,---,0.00,VWS V14.00,2013-10-20 03:07:00,
2013-10-19 23:08:00,56.7,0.0,29.73,SSW,194,5.2,8.5,0,0.00,,---,0.00,VWS V14.00,2013-10-20 03:08:00,
2013-10-19 23:09:00,56.7,0.0,29.73,South,169,3.3,8.5,0,0.00,,---,0.00,VWS V14.00,2013-10-20 03:09:00,
2013-10-19 23:10:00,56.7,0.0,29.73,SSW,195,5.2,7.8,0,0.00,,---,0.00,VWS V14.00,2013-10-20 03:10:00,
2013-10-19 23:11:00,56.7,0.0,29.73,South,186,5.1,7.8,0,0.00,,---,0.00,VWS V14.00,2013-10-20 03:11:00,
2013-10-19 23:12:00,56.8,0.0,29.73,SSW,202,5.2,7.8,0,0.00,,---,0.00,VWS V14.00,2013-10-20 03:12:00,
2013-10-19 23:13:00,56.7,0.0,29.73,South,183,3.3,7.8,0,0.00,,---,0.00,VWS V14.00,2013-10-20 03:13:00,